<?xml version='1.0' encoding='UTF-8'?><gpx version="1.1" creator="JPX - https://github.com/jenetics/jpx" xmlns="http://www.topografix.com/GPX/1/1"><trk><trkseg><trkpt lat="42.69950093542902" lon="2.7425465197770293"><ele>82.0</ele><time>2026-04-04T10:19:01.999Z</time></trkpt><trkpt lat="42.699497696028324" lon="2.7426387722951544"><ele>82.0</ele><time>2026-04-04T10:19:02.999Z</time></trkpt><trkpt lat="42.69949308791055" lon="2.74277000351836"><ele>82.0</ele><time>2026-04-04T10:19:03.999Z</time></trkpt><trkpt lat="42.69948590057607" lon="2.742937518461102"><ele>82.0</ele><time>2026-04-04T10:19:04.999Z</time></trkpt><trkpt lat="42.69948104697164" lon="2.743031457164711"><ele>82.0</ele><time>2026-04-04T10:19:05.999Z</time></trkpt><trkpt lat="42.69961513607462" lon="2.7430527582344797"><ele>82.0</ele><time>2026-04-04T10:19:07.999Z</time></trkpt><trkpt lat="42.699693663136145" lon="2.742932268675632"><ele>82.0</ele><time>2026-04-04T10:19:09.999Z</time></trkpt><trkpt lat="42.69969370875093" lon="2.742813152600449"><ele>82.0</ele><time>2026-04-04T10:19:10.999Z</time></trkpt><trkpt lat="42.69967424350601" lon="2.7426548921596834"><ele>82.0</ele><time>2026-04-04T10:19:11.999Z</time></trkpt><trkpt lat="42.699678322595354" lon="2.742481811111649"><ele>82.0</ele><time>2026-04-04T10:19:12.999Z</time></trkpt><trkpt lat="42.69968438949919" lon="2.742305976621025"><ele>82.0</ele><time>2026-04-04T10:19:13.999Z</time></trkpt><trkpt lat="42.69956544187528" lon="2.74209305872412"><ele>82.0</ele><time>2026-04-04T10:19:14.999Z</time></trkpt><trkpt lat="42.69957199696239" lon="2.741861353129314"><ele>82.33333333333333</ele><time>2026-04-04T10:19:15.999Z</time></trkpt><trkpt lat="42.69958249136414" lon="2.7415881261841317"><ele>82.66666666666667</ele><time>2026-04-04T10:19:16.999Z</time></trkpt><trkpt lat="42.69959582824486" lon="2.7412991780957507"><ele>83.0</ele><time>2026-04-04T10:19:17.999Z</time></trkpt><trkpt lat="42.69961525376854" lon="2.7410320965179413"><ele>83.66666666666667</ele><time>2026-04-04T10:19:18.999Z</time></trkpt><trkpt lat="42.69963836598566" lon="2.7407946129303222"><ele>84.33333333333333</ele><time>2026-04-04T10:19:19.999Z</time></trkpt><trkpt lat="42.69967344038819" lon="2.740550893059033"><ele>85.0</ele><time>2026-04-04T10:19:20.999Z</time></trkpt><trkpt lat="42.699729404889645" lon="2.7403017257427704"><ele>85.5</ele><time>2026-04-04T10:19:21.999Z</time></trkpt><trkpt lat="42.69981731639802" lon="2.740019652644413"><ele>86.0</ele><time>2026-04-04T10:19:22.999Z</time></trkpt><trkpt lat="42.69990629203034" lon="2.739724872805946"><ele>86.0</ele><time>2026-04-04T10:19:23.999Z</time></trkpt><trkpt lat="42.69999124550792" lon="2.7394231109688905"><ele>86.0</ele><time>2026-04-04T10:19:24.999Z</time></trkpt><trkpt lat="42.70008105604278" lon="2.7391047104932875"><ele>86.0</ele><time>2026-04-04T10:19:25.999Z</time></trkpt><trkpt lat="42.70016325030619" lon="2.7388215061685037"><ele>86.0</ele><time>2026-04-04T10:19:26.999Z</time></trkpt><trkpt lat="42.700226056496184" lon="2.7386096165401583"><ele>86.0</ele><time>2026-04-04T10:19:27.999Z</time></trkpt><trkpt lat="42.70028636290905" lon="2.738416183974257"><ele>86.66666666666667</ele><time>2026-04-04T10:19:28.999Z</time></trkpt><trkpt lat="42.70036721619773" lon="2.7382084669360327"><ele>87.33333333333333</ele><time>2026-04-04T10:19:29.999Z</time></trkpt><trkpt lat="42.70046534669436" lon="2.7380302561133445"><ele>88.0</ele><time>2026-04-04T10:19:30.999Z</time></trkpt><trkpt lat="42.70058392968135" lon="2.7378624701765344"><ele>88.0</ele><time>2026-04-04T10:19:31.999Z</time></trkpt><trkpt lat="42.70073781317441" lon="2.7377153503512797"><ele>88.0</ele><time>2026-04-04T10:19:32.999Z</time></trkpt><trkpt lat="42.700925798891596" lon="2.7375869532389476"><ele>88.0</ele><time>2026-04-04T10:19:33.999Z</time></trkpt><trkpt lat="42.70111232359683" lon="2.7374258704090138"><ele>88.0</ele><time>2026-04-04T10:19:34.999Z</time></trkpt><trkpt lat="42.70129425877331" lon="2.737268751092001"><ele>88.0</ele><time>2026-04-04T10:19:35.999Z</time></trkpt><trkpt lat="42.701495742127435" lon="2.737094750010924"><ele>88.0</ele><time>2026-04-04T10:19:36.999Z</time></trkpt><trkpt lat="42.70165842262" lon="2.73695425909314"><ele>88.0</ele><time>2026-04-04T10:19:37.999Z</time></trkpt><trkpt lat="42.701794703597464" lon="2.7368365668057066"><ele>88.0</ele><time>2026-04-04T10:19:38.999Z</time></trkpt><trkpt lat="42.70202558005961" lon="2.7369007431174706"><ele>89.33333333333333</ele><time>2026-04-04T10:19:40Z</time></trkpt><trkpt lat="42.702209282965796" lon="2.7368483897813234"><ele>90.66666666666667</ele><time>2026-04-04T10:19:41Z</time></trkpt><trkpt lat="42.70237607178547" lon="2.736812899016403"><ele>92.0</ele><time>2026-04-04T10:19:42Z</time></trkpt><trkpt lat="42.70249735294359" lon="2.736786431389842"><ele>92.0</ele><time>2026-04-04T10:19:43Z</time></trkpt><trkpt lat="42.70259555202118" lon="2.736758806394636"><ele>92.0</ele><time>2026-04-04T10:19:44Z</time></trkpt><trkpt lat="42.70269316782202" lon="2.7367222131918933"><ele>92.0</ele><time>2026-04-04T10:19:45Z</time></trkpt><trkpt lat="42.702835599358124" lon="2.736646148794438"><ele>92.0</ele><time>2026-04-04T10:19:46Z</time></trkpt><trkpt lat="42.70294731349758" lon="2.7365563458060382"><ele>92.0</ele><time>2026-04-04T10:19:47Z</time></trkpt><trkpt lat="42.703016694223" lon="2.736438547895129"><ele>92.0</ele><time>2026-04-04T10:19:48Z</time></trkpt><trkpt lat="42.703078476922755" lon="2.736275141764065"><ele>92.0</ele><time>2026-04-04T10:19:49Z</time></trkpt><trkpt lat="42.70309862930962" lon="2.736106575903285"><ele>92.0</ele><time>2026-04-04T10:19:50Z</time></trkpt><trkpt lat="42.703078674846076" lon="2.7359843260152936"><ele>92.0</ele><time>2026-04-04T10:19:51Z</time></trkpt><trkpt lat="42.7030565674425" lon="2.7358811811395904"><ele>92.0</ele><time>2026-04-04T10:19:52Z</time></trkpt><trkpt lat="42.703067253793954" lon="2.7357841579340363"><ele>92.0</ele><time>2026-04-04T10:19:53Z</time></trkpt><trkpt lat="42.70309298922507" lon="2.7356527530102808"><ele>92.0</ele><time>2026-04-04T10:19:54Z</time></trkpt><trkpt lat="42.70312489491978" lon="2.735536237891581"><ele>92.0</ele><time>2026-04-04T10:19:55Z</time></trkpt><trkpt lat="42.703146754665106" lon="2.735434149663322"><ele>92.0</ele><time>2026-04-04T10:19:56Z</time></trkpt><trkpt lat="42.70317477054839" lon="2.73535040999537"><ele>92.0</ele><time>2026-04-04T10:19:57Z</time></trkpt><trkpt lat="42.70323058395578" lon="2.735231753415533"><ele>92.0</ele><time>2026-04-04T10:19:59Z</time></trkpt><trkpt lat="42.70325290602334" lon="2.7351297866458766"><ele>92.0</ele><time>2026-04-04T10:20:29.999Z</time></trkpt><trkpt lat="42.70316080218835" lon="2.7351184678037423"><ele>92.0</ele><time>2026-04-04T10:20:32.999Z</time></trkpt><trkpt lat="42.70317097903984" lon="2.7349687449661086"><ele>92.0</ele><time>2026-04-04T10:20:36.999Z</time></trkpt><trkpt lat="42.70323367610793" lon="2.734857982484378"><ele>91.75</ele><time>2026-04-04T10:20:37.999Z</time></trkpt><trkpt lat="42.70329878567508" lon="2.7347547125490443"><ele>91.5</ele><time>2026-04-04T10:20:38.999Z</time></trkpt><trkpt lat="42.70338278547346" lon="2.7346065425734163"><ele>91.25</ele><time>2026-04-04T10:20:39.999Z</time></trkpt><trkpt lat="42.703465280191374" lon="2.734462253699609"><ele>91.0</ele><time>2026-04-04T10:20:40.999Z</time></trkpt><trkpt lat="42.70356849202766" lon="2.7342806952705394"><ele>91.75</ele><time>2026-04-04T10:20:41.999Z</time></trkpt><trkpt lat="42.70366807836478" lon="2.7341121324138493"><ele>92.5</ele><time>2026-04-04T10:20:42.999Z</time></trkpt><trkpt lat="42.70376254340576" lon="2.7339428736292786"><ele>93.25</ele><time>2026-04-04T10:20:43.999Z</time></trkpt><trkpt lat="42.70383807376358" lon="2.7338159783840688"><ele>94.0</ele><time>2026-04-04T10:20:44.999Z</time></trkpt><trkpt lat="42.703912551628875" lon="2.73371067390476"><ele>94.0</ele><time>2026-04-04T10:20:45.999Z</time></trkpt><trkpt lat="42.70403013410472" lon="2.733573428370059"><ele>94.0</ele><time>2026-04-04T10:20:46.999Z</time></trkpt><trkpt lat="42.704179405125586" lon="2.733455618016373"><ele>94.0</ele><time>2026-04-04T10:20:47.999Z</time></trkpt><trkpt lat="42.70434318799936" lon="2.7333440108110443"><ele>94.80000000000001</ele><time>2026-04-04T10:20:48.999Z</time></trkpt><trkpt lat="42.704489925694425" lon="2.7332405259648125"><ele>95.60000000000001</ele><time>2026-04-04T10:20:49.999Z</time></trkpt><trkpt lat="42.70459220187232" lon="2.7331671653396663"><ele>96.4</ele><time>2026-04-04T10:20:50.999Z</time></trkpt><trkpt lat="42.70465721611778" lon="2.7331024816929212"><ele>97.2</ele><time>2026-04-04T10:20:51.999Z</time></trkpt><trkpt lat="42.70468186233493" lon="2.733006602858391"><ele>98.0</ele><time>2026-04-04T10:20:52.999Z</time></trkpt><trkpt lat="42.704675220389475" lon="2.7328786284234066"><ele>97.99999999999999</ele><time>2026-04-04T10:20:53.999Z</time></trkpt><trkpt lat="42.70466422664309" lon="2.7327741355661264"><ele>98.0</ele><time>2026-04-04T10:20:54.999Z</time></trkpt><trkpt lat="42.704657367643115" lon="2.7326363346825913"><ele>98.0</ele><time>2026-04-04T10:20:56.999Z</time></trkpt><trkpt lat="42.70464511954317" lon="2.732542901948249"><ele>98.0</ele><time>2026-04-04T10:20:57.999Z</time></trkpt><trkpt lat="42.70461658706563" lon="2.732425882380669"><ele>97.99999999999999</ele><time>2026-04-04T10:20:58.999Z</time></trkpt><trkpt lat="42.70459117470036" lon="2.73229427217962"><ele>98.0</ele><time>2026-04-04T10:20:59.999Z</time></trkpt><trkpt lat="42.704624225706965" lon="2.7322045555570353"><ele>97.5</ele><time>2026-04-04T10:21:00.999Z</time></trkpt><trkpt lat="42.70472875408616" lon="2.7321086130429286"><ele>97.0</ele><time>2026-04-04T10:21:01.999Z</time></trkpt><trkpt lat="42.704819239969815" lon="2.7319722568020777"><ele>96.5</ele><time>2026-04-04T10:21:02.999Z</time></trkpt><trkpt lat="42.704896482109696" lon="2.7317510877499376"><ele>96.0</ele><time>2026-04-04T10:21:03.999Z</time></trkpt><trkpt lat="42.70500310375361" lon="2.731506433983036"><ele>96.0</ele><time>2026-04-04T10:21:04.999Z</time></trkpt><trkpt lat="42.705091982976164" lon="2.731294834812175"><ele>96.0</ele><time>2026-04-04T10:21:05.999Z</time></trkpt><trkpt lat="42.70514721787828" lon="2.731110381325727"><ele>96.0</ele><time>2026-04-04T10:21:06.999Z</time></trkpt><trkpt lat="42.7051801200388" lon="2.7309031098141956"><ele>96.33333333333334</ele><time>2026-04-04T10:21:07.999Z</time></trkpt><trkpt lat="42.705229532255316" lon="2.7306384683632663"><ele>96.66666666666667</ele><time>2026-04-04T10:21:08.999Z</time></trkpt><trkpt lat="42.70530255546449" lon="2.7304029073290574"><ele>97.0</ele><time>2026-04-04T10:21:09.999Z</time></trkpt><trkpt lat="42.70535681265433" lon="2.730178015985495"><ele>97.0</ele><time>2026-04-04T10:21:10.999Z</time></trkpt><trkpt lat="42.70539428081685" lon="2.729922269422248"><ele>97.0</ele><time>2026-04-04T10:21:11.999Z</time></trkpt><trkpt lat="42.70541856842283" lon="2.729731372067781"><ele>97.0</ele><time>2026-04-04T10:21:12.999Z</time></trkpt><trkpt lat="42.70544080509246" lon="2.729593055432719"><ele>97.0</ele><time>2026-04-04T10:21:13.999Z</time></trkpt><trkpt lat="42.705511101548346" lon="2.729406496551768"><ele>97.33333333333334</ele><time>2026-04-04T10:21:14.999Z</time></trkpt><trkpt lat="42.705614365834016" lon="2.7291793061923912"><ele>97.66666666666666</ele><time>2026-04-04T10:21:15.999Z</time></trkpt><trkpt lat="42.70572097947327" lon="2.728923528276036"><ele>98.0</ele><time>2026-04-04T10:21:16.999Z</time></trkpt><trkpt lat="42.705805324731585" lon="2.728727943959818"><ele>98.0</ele><time>2026-04-04T10:21:17.999Z</time></trkpt><trkpt lat="42.70588297098617" lon="2.7285749921342215"><ele>98.0</ele><time>2026-04-04T10:21:18.999Z</time></trkpt><trkpt lat="42.705972729884316" lon="2.7284987001912646"><ele>98.0</ele><time>2026-04-04T10:21:19.999Z</time></trkpt><trkpt lat="42.70610787187642" lon="2.7284477903943416"><ele>98.0</ele><time>2026-04-04T10:21:20.999Z</time></trkpt><trkpt lat="42.70624657673349" lon="2.7283926342481717"><ele>98.60000000000001</ele><time>2026-04-04T10:21:21.999Z</time></trkpt><trkpt lat="42.70631609297409" lon="2.728311769789616"><ele>99.2</ele><time>2026-04-04T10:21:22.999Z</time></trkpt><trkpt lat="42.70634857558085" lon="2.728185604614056"><ele>99.8</ele><time>2026-04-04T10:21:23.999Z</time></trkpt><trkpt lat="42.70634605786559" lon="2.728017390499832"><ele>100.4</ele><time>2026-04-04T10:21:24.999Z</time></trkpt><trkpt lat="42.706373312648445" lon="2.727838373606669"><ele>101.0</ele><time>2026-04-04T10:21:25.999Z</time></trkpt><trkpt lat="42.70641318899697" lon="2.7277025995911885"><ele>101.0</ele><time>2026-04-04T10:21:26.999Z</time></trkpt><trkpt lat="42.70652546507784" lon="2.7275524896818455"><ele>101.0</ele><time>2026-04-04T10:21:27.999Z</time></trkpt><trkpt lat="42.706653013816684" lon="2.727383392775128"><ele>101.0</ele><time>2026-04-04T10:21:28.999Z</time></trkpt><trkpt lat="42.70672177577151" lon="2.7272646345956484"><ele>101.0</ele><time>2026-04-04T10:21:29.999Z</time></trkpt><trkpt lat="42.70675154066134" lon="2.7271643282088727"><ele>101.0</ele><time>2026-04-04T10:21:30.999Z</time></trkpt><trkpt lat="42.70675566971048" lon="2.727035959797443"><ele>101.0</ele><time>2026-04-04T10:21:31.999Z</time></trkpt><trkpt lat="42.70677040886857" lon="2.7268716785206704"><ele>101.0</ele><time>2026-04-04T10:21:32.999Z</time></trkpt><trkpt lat="42.70682351321387" lon="2.726699453055218"><ele>101.0</ele><time>2026-04-04T10:21:33.999Z</time></trkpt><trkpt lat="42.706855854571245" lon="2.7265319572675977"><ele>101.4</ele><time>2026-04-04T10:21:34.999Z</time></trkpt><trkpt lat="42.70683600820582" lon="2.726396015900472"><ele>101.8</ele><time>2026-04-04T10:21:35.999Z</time></trkpt><trkpt lat="42.7067855514111" lon="2.726317343704783"><ele>102.2</ele><time>2026-04-04T10:21:36.999Z</time></trkpt><trkpt lat="42.70681132527553" lon="2.726438158622709"><ele>102.60000000000001</ele><time>2026-04-04T10:23:09.999Z</time></trkpt><trkpt lat="42.70676980835641" lon="2.7263462822406512"><ele>103.0</ele><time>2026-04-04T10:23:12.999Z</time></trkpt><trkpt lat="42.70674377594444" lon="2.7261722770034633"><ele>103.00000000000001</ele><time>2026-04-04T10:23:14.999Z</time></trkpt><trkpt lat="42.70675730624674" lon="2.7260657243131106"><ele>103.0</ele><time>2026-04-04T10:23:16.999Z</time></trkpt><trkpt lat="42.70674969470953" lon="2.7259417639549293"><ele>103.0</ele><time>2026-04-04T10:23:18.999Z</time></trkpt><trkpt lat="42.70670636981629" lon="2.725859789729294"><ele>103.0</ele><time>2026-04-04T10:23:59Z</time></trkpt><trkpt lat="42.70659651969072" lon="2.7258770412239177"><ele>103.00000000000001</ele><time>2026-04-04T10:24:01Z</time></trkpt><trkpt lat="42.7065057593834" lon="2.725849115750217"><ele>103.0</ele><time>2026-04-04T10:24:02Z</time></trkpt><trkpt lat="42.706429998963245" lon="2.7258618547724534"><ele>103.2</ele><time>2026-04-04T10:24:03Z</time></trkpt><trkpt lat="42.70633669754521" lon="2.725879822522088"><ele>103.4</ele><time>2026-04-04T10:24:04Z</time></trkpt><trkpt lat="42.706251508024536" lon="2.7258999279798237"><ele>103.60000000000001</ele><time>2026-04-04T10:24:05Z</time></trkpt><trkpt lat="42.70617407373454" lon="2.725918617052405"><ele>103.80000000000001</ele><time>2026-04-04T10:24:06Z</time></trkpt><trkpt lat="42.70604607231563" lon="2.725941206702617"><ele>104.0</ele><time>2026-04-04T10:24:07Z</time></trkpt><trkpt lat="42.705921062342725" lon="2.7259603140523776"><ele>106.0</ele><time>2026-04-04T10:24:08Z</time></trkpt><trkpt lat="42.705823220651965" lon="2.725972093718023"><ele>108.0</ele><time>2026-04-04T10:24:09Z</time></trkpt><trkpt lat="42.7056929207142" lon="2.72597902065413"><ele>110.0</ele><time>2026-04-04T10:24:11Z</time></trkpt><trkpt lat="42.705610114926785" lon="2.725969595534087"><ele>112.0</ele><time>2026-04-04T10:24:12Z</time></trkpt><trkpt lat="42.705544195844375" lon="2.725951793855467"><ele>114.0</ele><time>2026-04-04T10:24:13Z</time></trkpt><trkpt lat="42.705468746948945" lon="2.7259318158356702"><ele>114.0</ele><time>2026-04-04T10:24:14Z</time></trkpt><trkpt lat="42.70537984842728" lon="2.7259066307208295"><ele>114.0</ele><time>2026-04-04T10:24:16Z</time></trkpt><trkpt lat="42.705305854122045" lon="2.725883106261288"><ele>114.0</ele><time>2026-04-04T10:24:18Z</time></trkpt><trkpt lat="42.70522563861106" lon="2.7258552669800764"><ele>114.0</ele><time>2026-04-04T10:24:42.999Z</time></trkpt><trkpt lat="42.70513878216186" lon="2.725825122926918"><ele>114.0</ele><time>2026-04-04T10:24:46.999Z</time></trkpt><trkpt lat="42.705062015693045" lon="2.7257959319890532"><ele>114.0</ele><time>2026-04-04T10:24:47.999Z</time></trkpt><trkpt lat="42.70498209735421" lon="2.7257760060185316"><ele>114.4</ele><time>2026-04-04T10:24:48.999Z</time></trkpt><trkpt lat="42.70488449678806" lon="2.725811294173287"><ele>114.80000000000001</ele><time>2026-04-04T10:24:49.999Z</time></trkpt><trkpt lat="42.70479967315627" lon="2.725914200064436"><ele>115.19999999999999</ele><time>2026-04-04T10:24:50.999Z</time></trkpt><trkpt lat="42.70472356740165" lon="2.7260227221136244"><ele>115.6</ele><time>2026-04-04T10:24:51.999Z</time></trkpt><trkpt lat="42.704664219876285" lon="2.726094390329555"><ele>116.0</ele><time>2026-04-04T10:24:52.999Z</time></trkpt><trkpt lat="42.704573857978936" lon="2.7261848233561023"><ele>115.99999999999999</ele><time>2026-04-04T10:24:54.999Z</time></trkpt><trkpt lat="42.70452047588765" lon="2.726232210658602"><ele>116.0</ele><time>2026-04-04T10:24:56.999Z</time></trkpt><trkpt lat="42.70445695653461" lon="2.7262793685554034"><ele>116.0</ele><time>2026-04-04T10:24:59.999Z</time></trkpt><trkpt lat="42.70437754861194" lon="2.726318544186119"><ele>116.0</ele><time>2026-04-04T10:25:02.999Z</time></trkpt><trkpt lat="42.704247618152266" lon="2.7263641185517824"><ele>115.99999999999999</ele><time>2026-04-04T10:25:04.999Z</time></trkpt><trkpt lat="42.704171808246386" lon="2.726379736778178"><ele>116.0</ele><time>2026-04-04T10:25:05.999Z</time></trkpt><trkpt lat="42.7040993775093" lon="2.726393285997373"><ele>116.16666666666666</ele><time>2026-04-04T10:25:06.999Z</time></trkpt><trkpt lat="42.704005424789266" lon="2.726431555015078"><ele>116.33333333333333</ele><time>2026-04-04T10:25:08.999Z</time></trkpt><trkpt lat="42.70392694412084" lon="2.726448757852887"><ele>116.5</ele><time>2026-04-04T10:25:10.999Z</time></trkpt><trkpt lat="42.70384998484032" lon="2.726465627204631"><ele>116.66666666666666</ele><time>2026-04-04T10:25:12.999Z</time></trkpt><trkpt lat="42.70378193571684" lon="2.726480004014083"><ele>116.83333333333333</ele><time>2026-04-04T10:25:13.999Z</time></trkpt><trkpt lat="42.703706774146276" lon="2.7264946890207957"><ele>117.0</ele><time>2026-04-04T10:25:14.999Z</time></trkpt><trkpt lat="42.70356512807786" lon="2.726524328793944"><ele>117.0</ele><time>2026-04-04T10:25:15.999Z</time></trkpt><trkpt lat="42.70339244746858" lon="2.726569936135697"><ele>117.0</ele><time>2026-04-04T10:25:16.999Z</time></trkpt><trkpt lat="42.703201723822225" lon="2.7266200310333555"><ele>117.0</ele><time>2026-04-04T10:25:17.999Z</time></trkpt><trkpt lat="42.7030796545257" lon="2.7266447231074697"><ele>117.0</ele><time>2026-04-04T10:25:18.999Z</time></trkpt><trkpt lat="42.70294181955976" lon="2.7266597568393163"><ele>117.0</ele><time>2026-04-04T10:25:19.999Z</time></trkpt><trkpt lat="42.702811757132544" lon="2.726672543128063"><ele>117.0</ele><time>2026-04-04T10:25:20.999Z</time></trkpt><trkpt lat="42.702699166989" lon="2.7266943827350256"><ele>117.0</ele><time>2026-04-04T10:25:21.999Z</time></trkpt><trkpt lat="42.7026065912411" lon="2.726717239778671"><ele>115.16666666666667</ele><time>2026-04-04T10:25:22.999Z</time></trkpt><trkpt lat="42.70254171059378" lon="2.7267248120486918"><ele>113.33333333333334</ele><time>2026-04-04T10:25:23.999Z</time></trkpt><trkpt lat="42.702446511557824" lon="2.726715055424758"><ele>111.5</ele><time>2026-04-04T10:25:24.999Z</time></trkpt><trkpt lat="42.70235984496856" lon="2.726698616739064"><ele>109.66666666666667</ele><time>2026-04-04T10:25:25.999Z</time></trkpt><trkpt lat="42.702280753442245" lon="2.7266627048455625"><ele>107.83333333333334</ele><time>2026-04-04T10:25:26.999Z</time></trkpt><trkpt lat="42.70221665791881" lon="2.726609062964767"><ele>106.0</ele><time>2026-04-04T10:25:27.999Z</time></trkpt><trkpt lat="42.702153448880765" lon="2.726555909616814"><ele>106.00000000000001</ele><time>2026-04-04T10:25:28.999Z</time></trkpt><trkpt lat="42.7021037434376" lon="2.726488543398861"><ele>106.0</ele><time>2026-04-04T10:25:29.999Z</time></trkpt><trkpt lat="42.70205023818217" lon="2.7264294941923124"><ele>106.0</ele><time>2026-04-04T10:25:30.999Z</time></trkpt><trkpt lat="42.70199930216431" lon="2.7263762512881997"><ele>106.0</ele><time>2026-04-04T10:25:31.999Z</time></trkpt><trkpt lat="42.70191362006986" lon="2.7262807691981803"><ele>106.00000000000001</ele><time>2026-04-04T10:25:33.999Z</time></trkpt><trkpt lat="42.70184516887909" lon="2.726200038121717"><ele>106.0</ele><time>2026-04-04T10:25:35.999Z</time></trkpt><trkpt lat="42.701775517032374" lon="2.7261478519349325"><ele>104.66666666666667</ele><time>2026-04-04T10:25:36.999Z</time></trkpt><trkpt lat="42.701713708476255" lon="2.7261141014924997"><ele>103.33333333333334</ele><time>2026-04-04T10:25:37.999Z</time></trkpt><trkpt lat="42.701650423503956" lon="2.7260864010312447"><ele>102.0</ele><time>2026-04-04T10:25:38.999Z</time></trkpt><trkpt lat="42.701550328636934" lon="2.7260469984913067"><ele>100.66666666666666</ele><time>2026-04-04T10:25:40.999Z</time></trkpt><trkpt lat="42.70146234560536" lon="2.7260075443054226"><ele>99.33333333333333</ele><time>2026-04-04T10:25:42.999Z</time></trkpt><trkpt lat="42.701375911179625" lon="2.72596795312167"><ele>98.0</ele><time>2026-04-04T10:25:43.999Z</time></trkpt><trkpt lat="42.70129273789514" lon="2.7259298557030363"><ele>97.0</ele><time>2026-04-04T10:25:44.999Z</time></trkpt><trkpt lat="42.70122985926593" lon="2.725901054218903"><ele>96.0</ele><time>2026-04-04T10:25:45.999Z</time></trkpt><trkpt lat="42.70113468848837" lon="2.725857461360564"><ele>95.0</ele><time>2026-04-04T10:25:47.999Z</time></trkpt><trkpt lat="42.70104818780096" lon="2.7258167197249725"><ele>94.0</ele><time>2026-04-04T10:25:48.999Z</time></trkpt><trkpt lat="42.700933413193425" lon="2.7257624650606234"><ele>93.0</ele><time>2026-04-04T10:25:50Z</time></trkpt><trkpt lat="42.70083086603136" lon="2.7257133036273733"><ele>92.60000000000001</ele><time>2026-04-04T10:25:51Z</time></trkpt><trkpt lat="42.700702259238284" lon="2.725650030485918"><ele>92.2</ele><time>2026-04-04T10:25:52Z</time></trkpt><trkpt lat="42.700593113855" lon="2.725628357861805"><ele>91.8</ele><time>2026-04-04T10:25:53Z</time></trkpt><trkpt lat="42.700516057411015" lon="2.725621738946987"><ele>91.4</ele><time>2026-04-04T10:25:55Z</time></trkpt><trkpt lat="42.700421452475325" lon="2.725649867632536"><ele>91.0</ele><time>2026-04-04T10:27:11Z</time></trkpt><trkpt lat="42.70036767716153" lon="2.7256976173826843"><ele>91.0</ele><time>2026-04-04T10:27:12Z</time></trkpt><trkpt lat="42.700305024265" lon="2.725776619656664"><ele>91.0</ele><time>2026-04-04T10:27:13Z</time></trkpt><trkpt lat="42.7002582517961" lon="2.725882967724838"><ele>91.0</ele><time>2026-04-04T10:27:14Z</time></trkpt><trkpt lat="42.70022228863626" lon="2.7259946864670566"><ele>91.0</ele><time>2026-04-04T10:27:15Z</time></trkpt><trkpt lat="42.70017192165682" lon="2.726130251635666"><ele>91.0</ele><time>2026-04-04T10:27:16Z</time></trkpt><trkpt lat="42.70009198265237" lon="2.7263414293018506"><ele>91.0</ele><time>2026-04-04T10:27:17Z</time></trkpt><trkpt lat="42.70002915341982" lon="2.726507697383966"><ele>91.0</ele><time>2026-04-04T10:27:18Z</time></trkpt><trkpt lat="42.699989572915285" lon="2.7266112391765405"><ele>91.0</ele><time>2026-04-04T10:27:19Z</time></trkpt><trkpt lat="42.69989342973708" lon="2.7264511061780206"><ele>91.0</ele><time>2026-04-04T10:27:23Z</time></trkpt><trkpt lat="42.699826455983946" lon="2.7263807561543927"><ele>91.0</ele><time>2026-04-04T10:27:24Z</time></trkpt><trkpt lat="42.69977156407069" lon="2.7263241936996097"><ele>91.0</ele><time>2026-04-04T10:27:25Z</time></trkpt><trkpt lat="42.699675768905294" lon="2.726227319157349"><ele>91.0</ele><time>2026-04-04T10:27:27Z</time></trkpt><trkpt lat="42.69960597802999" lon="2.7261554548346436"><ele>91.0</ele><time>2026-04-04T10:27:28Z</time></trkpt><trkpt lat="42.69953784103298" lon="2.726065546604932"><ele>91.0</ele><time>2026-04-04T10:27:29Z</time></trkpt><trkpt lat="42.699525808908064" lon="2.725970908103711"><ele>91.0</ele><time>2026-04-04T10:27:30Z</time></trkpt><trkpt lat="42.699550853381425" lon="2.725850859956374"><ele>90.83333333333333</ele><time>2026-04-04T10:27:31Z</time></trkpt><trkpt lat="42.699536233730576" lon="2.725729687126079"><ele>90.66666666666666</ele><time>2026-04-04T10:27:32Z</time></trkpt><trkpt lat="42.69945693892202" lon="2.72567451896501"><ele>90.5</ele><time>2026-04-04T10:27:33Z</time></trkpt><trkpt lat="42.699398994417386" lon="2.7256184421857608"><ele>90.33333333333333</ele><time>2026-04-04T10:27:34Z</time></trkpt><trkpt lat="42.69931413851374" lon="2.725575231132211"><ele>90.16666666666667</ele><time>2026-04-04T10:27:36Z</time></trkpt><trkpt lat="42.69930794746015" lon="2.7254576773582797"><ele>90.0</ele><time>2026-04-04T10:27:39Z</time></trkpt><trkpt lat="42.69933365436931" lon="2.7253452419444315"><ele>90.0</ele><time>2026-04-04T10:27:40Z</time></trkpt><trkpt lat="42.69936105653793" lon="2.7252358228354754"><ele>90.0</ele><time>2026-04-04T10:27:41Z</time></trkpt><trkpt lat="42.69939886809335" lon="2.7250953070790778"><ele>90.0</ele><time>2026-04-04T10:27:42Z</time></trkpt><trkpt lat="42.69944939682412" lon="2.7248666702889066"><ele>90.0</ele><time>2026-04-04T10:27:43Z</time></trkpt><trkpt lat="42.69949602029934" lon="2.724688734770401"><ele>90.0</ele><time>2026-04-04T10:27:44Z</time></trkpt><trkpt lat="42.699553603793966" lon="2.7244416344369347"><ele>90.0</ele><time>2026-04-04T10:27:45Z</time></trkpt><trkpt lat="42.69959497031506" lon="2.7242612106821618"><ele>90.0</ele><time>2026-04-04T10:27:46Z</time></trkpt><trkpt lat="42.699633836049145" lon="2.7240916943666407"><ele>90.0</ele><time>2026-04-04T10:27:47Z</time></trkpt><trkpt lat="42.69968871377057" lon="2.7238523400891057"><ele>90.0</ele><time>2026-04-04T10:27:48Z</time></trkpt><trkpt lat="42.69974105960112" lon="2.7236240290299665"><ele>90.0</ele><time>2026-04-04T10:27:49Z</time></trkpt><trkpt lat="42.699786108366894" lon="2.7233778050328334"><ele>90.0</ele><time>2026-04-04T10:27:50Z</time></trkpt><trkpt lat="42.69984636823272" lon="2.72312936543001"><ele>90.0</ele><time>2026-04-04T10:27:51Z</time></trkpt><trkpt lat="42.69990087956225" lon="2.7228689841281355"><ele>90.0</ele><time>2026-04-04T10:27:52Z</time></trkpt><trkpt lat="42.69995932256745" lon="2.7226122081539805"><ele>91.33333333333333</ele><time>2026-04-04T10:27:53Z</time></trkpt><trkpt lat="42.70003213566505" lon="2.7223621949365895"><ele>92.66666666666666</ele><time>2026-04-04T10:27:54Z</time></trkpt><trkpt lat="42.7000777936748" lon="2.7221652740783036"><ele>94.0</ele><time>2026-04-04T10:27:55Z</time></trkpt><trkpt lat="42.700110981121995" lon="2.721947965335193"><ele>94.0</ele><time>2026-04-04T10:27:56Z</time></trkpt><trkpt lat="42.70016018011817" lon="2.7217528794728376"><ele>94.0</ele><time>2026-04-04T10:27:57Z</time></trkpt><trkpt lat="42.70021010222311" lon="2.7215465993996233"><ele>94.0</ele><time>2026-04-04T10:27:58Z</time></trkpt><trkpt lat="42.70025690004556" lon="2.721327710820911"><ele>94.0</ele><time>2026-04-04T10:27:59Z</time></trkpt><trkpt lat="42.700305833056845" lon="2.7211144350612795"><ele>94.0</ele><time>2026-04-04T10:28:00Z</time></trkpt><trkpt lat="42.70035861515092" lon="2.7208995311950583"><ele>94.0</ele><time>2026-04-04T10:28:01Z</time></trkpt><trkpt lat="42.70041154938946" lon="2.7206839112269052"><ele>93.33333333333333</ele><time>2026-04-04T10:28:02Z</time></trkpt><trkpt lat="42.700461159320064" lon="2.720461220566419"><ele>92.66666666666667</ele><time>2026-04-04T10:28:03Z</time></trkpt><trkpt lat="42.700515426164884" lon="2.720223844116942"><ele>92.0</ele><time>2026-04-04T10:28:04.001Z</time></trkpt><trkpt lat="42.700585783474274" lon="2.7199930038967386"><ele>92.0</ele><time>2026-04-04T10:28:05.001Z</time></trkpt><trkpt lat="42.70064460648649" lon="2.719741251841423"><ele>92.0</ele><time>2026-04-04T10:28:06.001Z</time></trkpt><trkpt lat="42.700700836131205" lon="2.7194616875510875"><ele>92.0</ele><time>2026-04-04T10:28:07.001Z</time></trkpt><trkpt lat="42.70076361089957" lon="2.7192012297406145"><ele>92.33333333333334</ele><time>2026-04-04T10:28:08.001Z</time></trkpt><trkpt lat="42.70081708837444" lon="2.7189583951910237"><ele>92.66666666666667</ele><time>2026-04-04T10:28:09.001Z</time></trkpt><trkpt lat="42.70087870704477" lon="2.7186803581233128"><ele>93.0</ele><time>2026-04-04T10:28:10.001Z</time></trkpt><trkpt lat="42.700930465205595" lon="2.7184211662706477"><ele>93.0</ele><time>2026-04-04T10:28:11.001Z</time></trkpt><trkpt lat="42.70097431842138" lon="2.718150722071241"><ele>93.0</ele><time>2026-04-04T10:28:12.001Z</time></trkpt><trkpt lat="42.701006145708945" lon="2.717868419826733"><ele>93.0</ele><time>2026-04-04T10:28:13.001Z</time></trkpt><trkpt lat="42.701019384340995" lon="2.717573661487286"><ele>93.0</ele><time>2026-04-04T10:28:14.001Z</time></trkpt><trkpt lat="42.70102503290488" lon="2.7172572168834703"><ele>93.0</ele><time>2026-04-04T10:28:15.001Z</time></trkpt><trkpt lat="42.70102625784301" lon="2.716969217470572"><ele>93.0</ele><time>2026-04-04T10:28:16.001Z</time></trkpt><trkpt lat="42.701028159562874" lon="2.7167170384561863"><ele>93.0</ele><time>2026-04-04T10:28:17.001Z</time></trkpt><trkpt lat="42.701032631060976" lon="2.7164786871764477"><ele>93.0</ele><time>2026-04-04T10:28:18.001Z</time></trkpt><trkpt lat="42.701035813955514" lon="2.71623804959072"><ele>93.0</ele><time>2026-04-04T10:28:19.001Z</time></trkpt><trkpt lat="42.70104223387438" lon="2.715984361006671"><ele>94.0</ele><time>2026-04-04T10:28:20.001Z</time></trkpt><trkpt lat="42.7010491230033" lon="2.7157115579660385"><ele>95.0</ele><time>2026-04-04T10:28:21.001Z</time></trkpt><trkpt lat="42.70105541463095" lon="2.7154354734313446"><ele>96.0</ele><time>2026-04-04T10:28:22.001Z</time></trkpt><trkpt lat="42.701063052346235" lon="2.715160541866047"><ele>96.0</ele><time>2026-04-04T10:28:23.001Z</time></trkpt><trkpt lat="42.70106785264923" lon="2.7148798160047245"><ele>96.0</ele><time>2026-04-04T10:28:24.001Z</time></trkpt><trkpt lat="42.70107286843619" lon="2.714596069875508"><ele>96.0</ele><time>2026-04-04T10:28:25.001Z</time></trkpt><trkpt lat="42.701079962547354" lon="2.714306636404901"><ele>96.66666666666666</ele><time>2026-04-04T10:28:26.001Z</time></trkpt><trkpt lat="42.701088717342415" lon="2.71401463651693"><ele>97.33333333333333</ele><time>2026-04-04T10:28:27.001Z</time></trkpt><trkpt lat="42.70111062432137" lon="2.713711149557189"><ele>98.0</ele><time>2026-04-04T10:28:28.001Z</time></trkpt><trkpt lat="42.70110185700506" lon="2.7133984658062555"><ele>98.0</ele><time>2026-04-04T10:28:29.001Z</time></trkpt><trkpt lat="42.70111512029398" lon="2.713064583316613"><ele>98.0</ele><time>2026-04-04T10:28:30.001Z</time></trkpt><trkpt lat="42.70112582287156" lon="2.7127052182657003"><ele>99.5</ele><time>2026-04-04T10:28:31.001Z</time></trkpt><trkpt lat="42.70113499754765" lon="2.712340577064129"><ele>101.0</ele><time>2026-04-04T10:28:32.001Z</time></trkpt><trkpt lat="42.70114146112655" lon="2.7119601658014685"><ele>103.5</ele><time>2026-04-04T10:28:33Z</time></trkpt><trkpt lat="42.70114800919291" lon="2.7115626691214736"><ele>106.0</ele><time>2026-04-04T10:28:34Z</time></trkpt><trkpt lat="42.701155488488425" lon="2.711139234100382"><ele>109.5</ele><time>2026-04-04T10:28:35Z</time></trkpt><trkpt lat="42.70116428703325" lon="2.710726907959416"><ele>113.0</ele><time>2026-04-04T10:28:36Z</time></trkpt><trkpt lat="42.70117519281848" lon="2.7103331644101196"><ele>115.0</ele><time>2026-04-04T10:28:37Z</time></trkpt><trkpt lat="42.70118231765422" lon="2.7099500411579673"><ele>117.0</ele><time>2026-04-04T10:28:38Z</time></trkpt><trkpt lat="42.70118938320298" lon="2.7095888810847377"><ele>116.0</ele><time>2026-04-04T10:28:39Z</time></trkpt><trkpt lat="42.7011985706011" lon="2.7092731300858808"><ele>115.0</ele><time>2026-04-04T10:28:40Z</time></trkpt><trkpt lat="42.70120231689163" lon="2.7089652205167543"><ele>115.0</ele><time>2026-04-04T10:28:41Z</time></trkpt><trkpt lat="42.70120702742763" lon="2.7086589898760196"><ele>115.0</ele><time>2026-04-04T10:28:42Z</time></trkpt><trkpt lat="42.70120900609711" lon="2.708359140114142"><ele>115.0</ele><time>2026-04-04T10:28:43Z</time></trkpt><trkpt lat="42.701227957297235" lon="2.7080627019717443"><ele>111.66666666666667</ele><time>2026-04-04T10:28:44Z</time></trkpt><trkpt lat="42.70121795346266" lon="2.707777717075536"><ele>108.33333333333334</ele><time>2026-04-04T10:28:45Z</time></trkpt><trkpt lat="42.70124144205916" lon="2.707480799484709"><ele>105.0</ele><time>2026-04-04T10:28:46Z</time></trkpt><trkpt lat="42.70124787016912" lon="2.7072353879194857"><ele>104.33333333333334</ele><time>2026-04-04T10:28:47Z</time></trkpt><trkpt lat="42.70125085499048" lon="2.706990170937607"><ele>103.66666666666667</ele><time>2026-04-04T10:28:48Z</time></trkpt><trkpt lat="42.70123856264622" lon="2.7067665359209356"><ele>103.0</ele><time>2026-04-04T10:28:49Z</time></trkpt><trkpt lat="42.701199253559196" lon="2.7065552363811247"><ele>103.0</ele><time>2026-04-04T10:28:50Z</time></trkpt><trkpt lat="42.70115488482016" lon="2.706361044563774"><ele>103.0</ele><time>2026-04-04T10:28:51Z</time></trkpt><trkpt lat="42.70108988642087" lon="2.706170304412604"><ele>103.0</ele><time>2026-04-04T10:28:52Z</time></trkpt><trkpt lat="42.70104927826561" lon="2.705981120795518"><ele>103.0</ele><time>2026-04-04T10:28:53Z</time></trkpt><trkpt lat="42.700993193906605" lon="2.705791506783033"><ele>101.75</ele><time>2026-04-04T10:28:54Z</time></trkpt><trkpt lat="42.70093714117624" lon="2.7056019996853853"><ele>100.5</ele><time>2026-04-04T10:28:55Z</time></trkpt><trkpt lat="42.70088254029935" lon="2.7054174011243"><ele>99.25</ele><time>2026-04-04T10:28:56Z</time></trkpt><trkpt lat="42.700829835109865" lon="2.705239211650433"><ele>98.0</ele><time>2026-04-04T10:28:57Z</time></trkpt><trkpt lat="42.700781065488535" lon="2.705074327808228"><ele>98.0</ele><time>2026-04-04T10:28:58Z</time></trkpt><trkpt lat="42.70073650896284" lon="2.704923687893821"><ele>98.0</ele><time>2026-04-04T10:28:59Z</time></trkpt><trkpt lat="42.700695718833266" lon="2.7047857817109455"><ele>98.0</ele><time>2026-04-04T10:29:00Z</time></trkpt><trkpt lat="42.70066164329359" lon="2.70466837602009"><ele>98.0</ele><time>2026-04-04T10:29:01Z</time></trkpt><trkpt lat="42.70063804020482" lon="2.704588614062773"><ele>98.0</ele><time>2026-04-04T10:29:02Z</time></trkpt><trkpt lat="42.70071566205796" lon="2.704602596824438"><ele>98.0</ele><time>2026-04-04T10:29:06Z</time></trkpt><trkpt lat="42.70075841113562" lon="2.704689137420503"><ele>98.0</ele><time>2026-04-04T10:29:07Z</time></trkpt><trkpt lat="42.700825261052046" lon="2.704796024699842"><ele>98.0</ele><time>2026-04-04T10:29:08Z</time></trkpt><trkpt lat="42.70088878448118" lon="2.7048796010385394"><ele>98.0</ele><time>2026-04-04T10:29:09Z</time></trkpt><trkpt lat="42.70097102411921" lon="2.7050031396494023"><ele>98.0</ele><time>2026-04-04T10:29:10Z</time></trkpt><trkpt lat="42.70104277027036" lon="2.7051294161681807"><ele>100.5</ele><time>2026-04-04T10:29:11Z</time></trkpt><trkpt lat="42.701136707785025" lon="2.705288682575581"><ele>103.0</ele><time>2026-04-04T10:29:12Z</time></trkpt><trkpt lat="42.70121542822529" lon="2.705436439466788"><ele>105.5</ele><time>2026-04-04T10:29:13Z</time></trkpt><trkpt lat="42.70129225232514" lon="2.7055871780028853"><ele>108.0</ele><time>2026-04-04T10:29:14Z</time></trkpt><trkpt lat="42.70134897379986" lon="2.7057163744596475"><ele>108.0</ele><time>2026-04-04T10:29:15Z</time></trkpt><trkpt lat="42.70137914261992" lon="2.7058764295406688"><ele>108.0</ele><time>2026-04-04T10:29:16Z</time></trkpt><trkpt lat="42.7014235704402" lon="2.706088543474932"><ele>108.0</ele><time>2026-04-04T10:29:17Z</time></trkpt><trkpt lat="42.701489512334" lon="2.706298757834666"><ele>107.0</ele><time>2026-04-04T10:29:18Z</time></trkpt><trkpt lat="42.70153025620311" lon="2.706469068230383"><ele>106.00000000000001</ele><time>2026-04-04T10:29:19Z</time></trkpt><trkpt lat="42.701568795700375" lon="2.70659262478505"><ele>105.0</ele><time>2026-04-04T10:29:20Z</time></trkpt><trkpt lat="42.70160681283102" lon="2.706675897041149"><ele>104.0</ele><time>2026-04-04T10:29:21Z</time></trkpt><trkpt lat="42.70167561711895" lon="2.7067145599866547"><ele>103.0</ele><time>2026-04-04T10:29:22Z</time></trkpt><trkpt lat="42.701764155492924" lon="2.706717334751508"><ele>103.0</ele><time>2026-04-04T10:29:23Z</time></trkpt><trkpt lat="42.70188737675576" lon="2.7066770737056456"><ele>103.0</ele><time>2026-04-04T10:29:24Z</time></trkpt><trkpt lat="42.70199832732993" lon="2.7066276957951407"><ele>103.0</ele><time>2026-04-04T10:29:25Z</time></trkpt><trkpt lat="42.70206556909263" lon="2.7065172180109682"><ele>103.0</ele><time>2026-04-04T10:29:26Z</time></trkpt><trkpt lat="42.70212634241108" lon="2.706455819279049"><ele>103.0</ele><time>2026-04-04T10:29:27Z</time></trkpt><trkpt lat="42.702180979047775" lon="2.706387434525048"><ele>103.5</ele><time>2026-04-04T10:29:28Z</time></trkpt><trkpt lat="42.702290840175024" lon="2.7063389382669643"><ele>104.0</ele><time>2026-04-04T10:29:29Z</time></trkpt><trkpt lat="42.70241190104655" lon="2.706319517998595"><ele>104.5</ele><time>2026-04-04T10:29:30Z</time></trkpt><trkpt lat="42.7025462115261" lon="2.706337208557632"><ele>105.0</ele><time>2026-04-04T10:29:31Z</time></trkpt><trkpt lat="42.70269752720288" lon="2.7063612675444695"><ele>106.0</ele><time>2026-04-04T10:29:32Z</time></trkpt><trkpt lat="42.702818911388874" lon="2.706372121100616"><ele>107.0</ele><time>2026-04-04T10:29:33Z</time></trkpt><trkpt lat="42.702917793612755" lon="2.70636986632075"><ele>108.0</ele><time>2026-04-04T10:29:34Z</time></trkpt><trkpt lat="42.70299324843425" lon="2.706360352973367"><ele>109.0</ele><time>2026-04-04T10:29:35Z</time></trkpt><trkpt lat="42.70309077426957" lon="2.706362835768806"><ele>110.0</ele><time>2026-04-04T10:29:37Z</time></trkpt><trkpt lat="42.70320821142068" lon="2.7063924695056447"><ele>110.0</ele><time>2026-04-04T10:29:39Z</time></trkpt><trkpt lat="42.703313117613384" lon="2.7064093060032235"><ele>110.0</ele><time>2026-04-04T10:29:40Z</time></trkpt><trkpt lat="42.70341292903511" lon="2.7063872053763447"><ele>110.0</ele><time>2026-04-04T10:29:41Z</time></trkpt><trkpt lat="42.70350199371072" lon="2.706354659628605"><ele>110.0</ele><time>2026-04-04T10:29:42Z</time></trkpt><trkpt lat="42.703607326439595" lon="2.7063288003417947"><ele>110.0</ele><time>2026-04-04T10:29:43Z</time></trkpt><trkpt lat="42.70375177956222" lon="2.7062930397325156"><ele>112.0</ele><time>2026-04-04T10:29:44Z</time></trkpt><trkpt lat="42.703916995335604" lon="2.706263127495487"><ele>114.0</ele><time>2026-04-04T10:29:45Z</time></trkpt><trkpt lat="42.70404615604004" lon="2.706244751383948"><ele>116.0</ele><time>2026-04-04T10:29:46Z</time></trkpt><trkpt lat="42.70414343977429" lon="2.7062562360120372"><ele>118.0</ele><time>2026-04-04T10:29:47Z</time></trkpt><trkpt lat="42.704235825631876" lon="2.7062897897433382"><ele>118.0</ele><time>2026-04-04T10:29:48Z</time></trkpt><trkpt lat="42.70434182918758" lon="2.7063418604188096"><ele>118.00000000000001</ele><time>2026-04-04T10:29:49Z</time></trkpt><trkpt lat="42.704447218555444" lon="2.7063943005179296"><ele>118.00000000000001</ele><time>2026-04-04T10:29:50Z</time></trkpt><trkpt lat="42.704540911651875" lon="2.7064301081861593"><ele>118.0</ele><time>2026-04-04T10:29:51Z</time></trkpt><trkpt lat="42.70461593246594" lon="2.7064347312046606"><ele>118.0</ele><time>2026-04-04T10:29:52Z</time></trkpt><trkpt lat="42.70473765914088" lon="2.706428302976954"><ele>119.0</ele><time>2026-04-04T10:29:54Z</time></trkpt><trkpt lat="42.70481675635225" lon="2.7064418178699317"><ele>120.00000000000001</ele><time>2026-04-04T10:29:55Z</time></trkpt><trkpt lat="42.704907086182864" lon="2.7064886463860582"><ele>121.00000000000001</ele><time>2026-04-04T10:29:56Z</time></trkpt><trkpt lat="42.70500737131192" lon="2.706549230526572"><ele>122.0</ele><time>2026-04-04T10:29:57Z</time></trkpt><trkpt lat="42.7051131864682" lon="2.7065819126345567"><ele>123.0</ele><time>2026-04-04T10:29:58Z</time></trkpt><trkpt lat="42.70523885447258" lon="2.7065846657564885"><ele>124.5</ele><time>2026-04-04T10:29:59Z</time></trkpt><trkpt lat="42.705395371888905" lon="2.706584860676499"><ele>126.0</ele><time>2026-04-04T10:30:00Z</time></trkpt><trkpt lat="42.705543738759694" lon="2.7065966867951747"><ele>127.5</ele><time>2026-04-04T10:30:01Z</time></trkpt><trkpt lat="42.705674537435776" lon="2.706583322615993"><ele>129.0</ele><time>2026-04-04T10:30:02Z</time></trkpt><trkpt lat="42.70581425103014" lon="2.706560751715741"><ele>129.0</ele><time>2026-04-04T10:30:03Z</time></trkpt><trkpt lat="42.70596566881274" lon="2.706501777684658"><ele>129.0</ele><time>2026-04-04T10:30:04Z</time></trkpt><trkpt lat="42.70614162576846" lon="2.706419606276609"><ele>129.0</ele><time>2026-04-04T10:30:05Z</time></trkpt><trkpt lat="42.70631656521026" lon="2.7063348510986223"><ele>130.33333333333334</ele><time>2026-04-04T10:30:06Z</time></trkpt><trkpt lat="42.70648370438495" lon="2.706270826029245"><ele>131.66666666666669</ele><time>2026-04-04T10:30:07Z</time></trkpt><trkpt lat="42.70669255133566" lon="2.7062191190700835"><ele>133.0</ele><time>2026-04-04T10:30:08Z</time></trkpt><trkpt lat="42.7068743816126" lon="2.706142405116517"><ele>135.0</ele><time>2026-04-04T10:30:09.001Z</time></trkpt><trkpt lat="42.707047733809965" lon="2.7061123125102737"><ele>137.0</ele><time>2026-04-04T10:30:10.001Z</time></trkpt><trkpt lat="42.707184236509306" lon="2.7061069388221273"><ele>139.0</ele><time>2026-04-04T10:30:11.001Z</time></trkpt><trkpt lat="42.70732603237069" lon="2.706173641323526"><ele>139.0</ele><time>2026-04-04T10:30:12.001Z</time></trkpt><trkpt lat="42.70750244918102" lon="2.706219846781401"><ele>139.0</ele><time>2026-04-04T10:30:13.001Z</time></trkpt><trkpt lat="42.70766353945323" lon="2.706267657998191"><ele>139.0</ele><time>2026-04-04T10:30:14.001Z</time></trkpt><trkpt lat="42.7078282390749" lon="2.7062681931362786"><ele>140.5</ele><time>2026-04-04T10:30:15.001Z</time></trkpt><trkpt lat="42.707996672992024" lon="2.706270604186933"><ele>142.0</ele><time>2026-04-04T10:30:16.001Z</time></trkpt><trkpt lat="42.70813176835149" lon="2.706289649574719"><ele>143.5</ele><time>2026-04-04T10:30:17.001Z</time></trkpt><trkpt lat="42.70827244102823" lon="2.706314376383168"><ele>145.0</ele><time>2026-04-04T10:30:18.001Z</time></trkpt><trkpt lat="42.70840943454938" lon="2.7063097745759888"><ele>145.0</ele><time>2026-04-04T10:30:19.001Z</time></trkpt><trkpt lat="42.70855061211718" lon="2.7062610415227875"><ele>145.0</ele><time>2026-04-04T10:30:20.001Z</time></trkpt><trkpt lat="42.70871613969882" lon="2.7061893902665024"><ele>145.0</ele><time>2026-04-04T10:30:21.001Z</time></trkpt><trkpt lat="42.708891528240756" lon="2.706124212579465"><ele>146.75</ele><time>2026-04-04T10:30:22.001Z</time></trkpt><trkpt lat="42.70902884692161" lon="2.706070770695666"><ele>148.5</ele><time>2026-04-04T10:30:23Z</time></trkpt><trkpt lat="42.709141565905206" lon="2.7060271718914586"><ele>150.25</ele><time>2026-04-04T10:30:24Z</time></trkpt><trkpt lat="42.7092611511308" lon="2.705975778689466"><ele>152.0</ele><time>2026-04-04T10:30:25Z</time></trkpt><trkpt lat="42.7093879778119" lon="2.7059180743623417"><ele>151.25</ele><time>2026-04-04T10:30:26Z</time></trkpt><trkpt lat="42.709555106577895" lon="2.705835349299435"><ele>150.5</ele><time>2026-04-04T10:30:27Z</time></trkpt><trkpt lat="42.70969398595834" lon="2.7057781137195835"><ele>149.75</ele><time>2026-04-04T10:30:28Z</time></trkpt><trkpt lat="42.70980453243266" lon="2.7057241025207057"><ele>149.0</ele><time>2026-04-04T10:30:29Z</time></trkpt><trkpt lat="42.70990857052078" lon="2.70567468595992"><ele>149.0</ele><time>2026-04-04T10:30:30Z</time></trkpt><trkpt lat="42.7100182377583" lon="2.7056277259136117"><ele>149.0</ele><time>2026-04-04T10:30:31Z</time></trkpt><trkpt lat="42.71015170344949" lon="2.7055673241793827"><ele>149.0</ele><time>2026-04-04T10:30:32Z</time></trkpt><trkpt lat="42.71032251788895" lon="2.705489472575808"><ele>149.0</ele><time>2026-04-04T10:30:33Z</time></trkpt><trkpt lat="42.7104583549926" lon="2.7054344046458714"><ele>148.0</ele><time>2026-04-04T10:30:34Z</time></trkpt><trkpt lat="42.710568134632055" lon="2.70539600949986"><ele>147.0</ele><time>2026-04-04T10:30:35Z</time></trkpt><trkpt lat="42.71066914559662" lon="2.705348673401032"><ele>146.0</ele><time>2026-04-04T10:30:36Z</time></trkpt><trkpt lat="42.710768645825254" lon="2.7052847422448436"><ele>145.0</ele><time>2026-04-04T10:30:37Z</time></trkpt><trkpt lat="42.71085813141454" lon="2.705211175145832"><ele>144.0</ele><time>2026-04-04T10:30:38Z</time></trkpt><trkpt lat="42.710950452493876" lon="2.7051295313501997"><ele>143.8</ele><time>2026-04-04T10:30:39Z</time></trkpt><trkpt lat="42.711054134329096" lon="2.7050871458059866"><ele>143.60000000000002</ele><time>2026-04-04T10:30:40Z</time></trkpt><trkpt lat="42.71113749596079" lon="2.705039377273842"><ele>143.4</ele><time>2026-04-04T10:30:41Z</time></trkpt><trkpt lat="42.71122574934052" lon="2.7049905445501587"><ele>143.20000000000002</ele><time>2026-04-04T10:30:42Z</time></trkpt><trkpt lat="42.711332845753205" lon="2.7049322643844436"><ele>143.0</ele><time>2026-04-04T10:30:43Z</time></trkpt><trkpt lat="42.71143479785558" lon="2.7048676102325215"><ele>143.5</ele><time>2026-04-04T10:30:44Z</time></trkpt><trkpt lat="42.71155106249566" lon="2.70481517961976"><ele>144.0</ele><time>2026-04-04T10:30:45Z</time></trkpt><trkpt lat="42.71168552693055" lon="2.704752142588361"><ele>144.5</ele><time>2026-04-04T10:30:46Z</time></trkpt><trkpt lat="42.71185141518888" lon="2.7046765231700594"><ele>145.0</ele><time>2026-04-04T10:30:47Z</time></trkpt><trkpt lat="42.71201948634241" lon="2.7046138030162465"><ele>145.8</ele><time>2026-04-04T10:30:48Z</time></trkpt><trkpt lat="42.71213389872126" lon="2.7045879390467125"><ele>146.6</ele><time>2026-04-04T10:30:49Z</time></trkpt><trkpt lat="42.7122232100703" lon="2.7046336056644056"><ele>147.4</ele><time>2026-04-04T10:30:50Z</time></trkpt><trkpt lat="42.712338024282275" lon="2.7046840399372503"><ele>148.2</ele><time>2026-04-04T10:30:51Z</time></trkpt><trkpt lat="42.71245039392354" lon="2.70472624279649"><ele>149.0</ele><time>2026-04-04T10:30:52Z</time></trkpt><trkpt lat="42.712525840168624" lon="2.704689201906429"><ele>149.0</ele><time>2026-04-04T10:30:53Z</time></trkpt><trkpt lat="42.712569650811766" lon="2.704605215402272"><ele>149.0</ele><time>2026-04-04T10:30:54Z</time></trkpt><trkpt lat="42.712552623557116" lon="2.7044166883710483"><ele>149.0</ele><time>2026-04-04T10:30:55Z</time></trkpt><trkpt lat="42.71254724718371" lon="2.704240394630684"><ele>149.0</ele><time>2026-04-04T10:30:56Z</time></trkpt><trkpt lat="42.7125736789283" lon="2.7041260519660804"><ele>149.0</ele><time>2026-04-04T10:30:57Z</time></trkpt><trkpt lat="42.71265952061699" lon="2.7040658636306483"><ele>153.5</ele><time>2026-04-04T10:30:58Z</time></trkpt><trkpt lat="42.712774231996384" lon="2.704076586126995"><ele>158.0</ele><time>2026-04-04T10:30:59Z</time></trkpt><trkpt lat="42.712905915655774" lon="2.7040262598128963"><ele>162.5</ele><time>2026-04-04T10:31:00Z</time></trkpt><trkpt lat="42.71302941969511" lon="2.7039354445059485"><ele>167.0</ele><time>2026-04-04T10:31:01Z</time></trkpt><trkpt lat="42.713118314739894" lon="2.703798083075098"><ele>167.0</ele><time>2026-04-04T10:31:02Z</time></trkpt><trkpt lat="42.713199283718794" lon="2.7036364798132735"><ele>167.0</ele><time>2026-04-04T10:31:03Z</time></trkpt><trkpt lat="42.713283315567445" lon="2.703573013977875"><ele>167.0</ele><time>2026-04-04T10:31:04Z</time></trkpt><trkpt lat="42.71339487904509" lon="2.703583934744105"><ele>167.0</ele><time>2026-04-04T10:31:05Z</time></trkpt><trkpt lat="42.713543901985624" lon="2.703621376083806"><ele>167.5</ele><time>2026-04-04T10:31:06Z</time></trkpt><trkpt lat="42.71367458743241" lon="2.703643165002893"><ele>168.0</ele><time>2026-04-04T10:31:07Z</time></trkpt><trkpt lat="42.713809051239586" lon="2.7036312072712527"><ele>168.5</ele><time>2026-04-04T10:31:08Z</time></trkpt><trkpt lat="42.713913706998994" lon="2.703583194910177"><ele>169.0</ele><time>2026-04-04T10:31:09Z</time></trkpt><trkpt lat="42.71401274869391" lon="2.7035080679053864"><ele>169.5</ele><time>2026-04-04T10:31:10Z</time></trkpt><trkpt lat="42.71409319202695" lon="2.7034499586377274"><ele>170.0</ele><time>2026-04-04T10:31:11Z</time></trkpt><trkpt lat="42.71417262502122" lon="2.703399122477517"><ele>170.5</ele><time>2026-04-04T10:31:12Z</time></trkpt><trkpt lat="42.71423466380764" lon="2.703359010946418"><ele>171.0</ele><time>2026-04-04T10:31:13Z</time></trkpt><trkpt lat="42.71430414840692" lon="2.703311924665067"><ele>171.5</ele><time>2026-04-04T10:31:14Z</time></trkpt><trkpt lat="42.714362689584675" lon="2.703270754900715"><ele>172.0</ele><time>2026-04-04T10:31:15Z</time></trkpt><trkpt lat="42.71443040101615" lon="2.703221001230585"><ele>172.0</ele><time>2026-04-04T10:31:16Z</time></trkpt><trkpt lat="42.714495589200524" lon="2.703175841071911"><ele>172.0</ele><time>2026-04-04T10:31:17Z</time></trkpt><trkpt lat="42.71455735501502" lon="2.7031460151248154"><ele>172.0</ele><time>2026-04-04T10:31:18Z</time></trkpt><trkpt lat="42.714620138667144" lon="2.703121563145314"><ele>172.0</ele><time>2026-04-04T10:31:19Z</time></trkpt><trkpt lat="42.714729763486744" lon="2.703096599704097"><ele>172.0</ele><time>2026-04-04T10:31:21Z</time></trkpt><trkpt lat="42.7148229229149" lon="2.703072021060827"><ele>172.0</ele><time>2026-04-04T10:31:23Z</time></trkpt><trkpt lat="42.71495160085745" lon="2.703067941476999"><ele>172.0</ele><time>2026-04-04T10:31:25Z</time></trkpt><trkpt lat="42.715023325559706" lon="2.703070294899035"><ele>172.0</ele><time>2026-04-04T10:31:26Z</time></trkpt><trkpt lat="42.71509685047766" lon="2.703070849811392"><ele>172.0</ele><time>2026-04-04T10:31:27Z</time></trkpt><trkpt lat="42.715173139326886" lon="2.7030758548676883"><ele>172.0</ele><time>2026-04-04T10:31:28Z</time></trkpt><trkpt lat="42.71528115923735" lon="2.7031004767003775"><ele>172.0</ele><time>2026-04-04T10:31:30Z</time></trkpt><trkpt lat="42.71538999555548" lon="2.703162670873354"><ele>172.0</ele><time>2026-04-04T10:31:32Z</time></trkpt><trkpt lat="42.71541275702862" lon="2.703252349767932"><ele>173.8</ele><time>2026-04-04T10:31:33Z</time></trkpt><trkpt lat="42.715429974342925" lon="2.7033552237071805"><ele>175.6</ele><time>2026-04-04T10:31:34Z</time></trkpt><trkpt lat="42.71544777667162" lon="2.703439341148207"><ele>177.4</ele><time>2026-04-04T10:31:35Z</time></trkpt><trkpt lat="42.71547391272598" lon="2.70356745279671"><ele>179.20000000000002</ele><time>2026-04-04T10:31:36Z</time></trkpt><trkpt lat="42.71550271344505" lon="2.7037767352934567"><ele>181.0</ele><time>2026-04-04T10:31:37Z</time></trkpt><trkpt lat="42.715566112452215" lon="2.7039586159600257"><ele>181.0</ele><time>2026-04-04T10:31:38Z</time></trkpt><trkpt lat="42.71559310123618" lon="2.7040704758728267"><ele>181.0</ele><time>2026-04-04T10:31:39Z</time></trkpt><trkpt lat="42.71564185456887" lon="2.7041520581619505"><ele>181.0</ele><time>2026-04-04T10:31:40Z</time></trkpt><trkpt lat="42.71568410151077" lon="2.7042370598449086"><ele>181.0</ele><time>2026-04-04T10:31:41Z</time></trkpt><trkpt lat="42.71575014846811" lon="2.704355618246941"><ele>181.0</ele><time>2026-04-04T10:31:42Z</time></trkpt><trkpt lat="42.71581734189295" lon="2.7044739052088906"><ele>180.60000000000002</ele><time>2026-04-04T10:31:43Z</time></trkpt><trkpt lat="42.71587588666882" lon="2.704553699858502"><ele>180.2</ele><time>2026-04-04T10:31:44Z</time></trkpt><trkpt lat="42.715946984768216" lon="2.704617113538742"><ele>179.8</ele><time>2026-04-04T10:31:45Z</time></trkpt><trkpt lat="42.716039164469436" lon="2.704657003354817"><ele>179.39999999999998</ele><time>2026-04-04T10:31:46Z</time></trkpt><trkpt lat="42.716128112303885" lon="2.704650303977586"><ele>179.0</ele><time>2026-04-04T10:31:47Z</time></trkpt><trkpt lat="42.716219746210044" lon="2.7046099274930904"><ele>179.0</ele><time>2026-04-04T10:31:48Z</time></trkpt><trkpt lat="42.71630285483017" lon="2.7045335151218937"><ele>179.0</ele><time>2026-04-04T10:31:49Z</time></trkpt><trkpt lat="42.71636681676546" lon="2.704432942136069"><ele>179.0</ele><time>2026-04-04T10:31:50Z</time></trkpt><trkpt lat="42.71640889723404" lon="2.7043174253466717"><ele>179.0</ele><time>2026-04-04T10:31:51Z</time></trkpt><trkpt lat="42.7164347776958" lon="2.704180905128866"><ele>179.0</ele><time>2026-04-04T10:31:52Z</time></trkpt><trkpt lat="42.716439967044224" lon="2.704036164429985"><ele>181.0</ele><time>2026-04-04T10:31:53Z</time></trkpt><trkpt lat="42.716468346036024" lon="2.7038440745590138"><ele>183.0</ele><time>2026-04-04T10:31:54Z</time></trkpt><trkpt lat="42.71648565190242" lon="2.7036700975693515"><ele>185.0</ele><time>2026-04-04T10:31:55Z</time></trkpt><trkpt lat="42.716483366910396" lon="2.703477118080985"><ele>187.0</ele><time>2026-04-04T10:31:56Z</time></trkpt><trkpt lat="42.716443188657266" lon="2.703246443456466"><ele>189.66666666666669</ele><time>2026-04-04T10:31:57Z</time></trkpt><trkpt lat="42.71644371507664" lon="2.7029764228939195"><ele>192.33333333333334</ele><time>2026-04-04T10:31:58Z</time></trkpt><trkpt lat="42.716444611175575" lon="2.7027315676658428"><ele>195.0</ele><time>2026-04-04T10:31:59Z</time></trkpt><trkpt lat="42.716440853074566" lon="2.7025442474879826"><ele>196.5</ele><time>2026-04-04T10:32:00Z</time></trkpt><trkpt lat="42.71645376222421" lon="2.702386752379262"><ele>198.0</ele><time>2026-04-04T10:32:01Z</time></trkpt><trkpt lat="42.71649541477264" lon="2.702216085355348"><ele>199.5</ele><time>2026-04-04T10:32:02Z</time></trkpt><trkpt lat="42.71655214701877" lon="2.70200538667509"><ele>201.0</ele><time>2026-04-04T10:32:03Z</time></trkpt><trkpt lat="42.71662053104897" lon="2.70178748846806"><ele>201.5</ele><time>2026-04-04T10:32:04Z</time></trkpt><trkpt lat="42.71667827514797" lon="2.7016149103668163"><ele>202.0</ele><time>2026-04-04T10:32:05Z</time></trkpt><trkpt lat="42.716723780841335" lon="2.7014821569102816"><ele>202.5</ele><time>2026-04-04T10:32:06Z</time></trkpt><trkpt lat="42.71682177119168" lon="2.7013333179913386"><ele>203.0</ele><time>2026-04-04T10:32:07Z</time></trkpt><trkpt lat="42.71692708477178" lon="2.701172089524952"><ele>205.5</ele><time>2026-04-04T10:32:08Z</time></trkpt><trkpt lat="42.71703780667162" lon="2.701014335223231"><ele>208.0</ele><time>2026-04-04T10:32:09Z</time></trkpt><trkpt lat="42.71714614727318" lon="2.7008791933803034"><ele>210.5</ele><time>2026-04-04T10:32:10Z</time></trkpt><trkpt lat="42.71724510019382" lon="2.7007906264700012"><ele>213.0</ele><time>2026-04-04T10:32:11Z</time></trkpt><trkpt lat="42.717363684996045" lon="2.7007219313442707"><ele>213.0</ele><time>2026-04-04T10:32:12Z</time></trkpt><trkpt lat="42.71754665725654" lon="2.7006178299421255"><ele>213.0</ele><time>2026-04-04T10:32:13Z</time></trkpt><trkpt lat="42.717713878788764" lon="2.7005152421077794"><ele>213.0</ele><time>2026-04-04T10:32:14Z</time></trkpt><trkpt lat="42.717857891404456" lon="2.700433710048195"><ele>214.0</ele><time>2026-04-04T10:32:15Z</time></trkpt><trkpt lat="42.71800991787133" lon="2.7003409352862398"><ele>215.0</ele><time>2026-04-04T10:32:16Z</time></trkpt><trkpt lat="42.71815386393488" lon="2.7002293626406315"><ele>216.0</ele><time>2026-04-04T10:32:17Z</time></trkpt><trkpt lat="42.71830087747015" lon="2.7000968633954"><ele>217.66666666666669</ele><time>2026-04-04T10:32:18Z</time></trkpt><trkpt lat="42.71844852888156" lon="2.69996667623562"><ele>219.33333333333334</ele><time>2026-04-04T10:32:19Z</time></trkpt><trkpt lat="42.71857933241818" lon="2.699861887727363"><ele>221.0</ele><time>2026-04-04T10:32:20Z</time></trkpt><trkpt lat="42.718703566402134" lon="2.6997892171999895"><ele>222.66666666666669</ele><time>2026-04-04T10:32:21Z</time></trkpt><trkpt lat="42.71885191068837" lon="2.6997367789134863"><ele>224.33333333333331</ele><time>2026-04-04T10:32:22Z</time></trkpt><trkpt lat="42.71903161706639" lon="2.6996893512708118"><ele>226.0</ele><time>2026-04-04T10:32:23Z</time></trkpt><trkpt lat="42.71921096562261" lon="2.699630603476572"><ele>226.0</ele><time>2026-04-04T10:32:24Z</time></trkpt><trkpt lat="42.7193439887779" lon="2.6995925544258035"><ele>226.00000000000003</ele><time>2026-04-04T10:32:25Z</time></trkpt><trkpt lat="42.71944806824665" lon="2.6995728238455547"><ele>226.00000000000003</ele><time>2026-04-04T10:32:26Z</time></trkpt><trkpt lat="42.71954461616319" lon="2.699552188194257"><ele>226.0</ele><time>2026-04-04T10:32:27Z</time></trkpt><trkpt lat="42.71963604456477" lon="2.699528142053553"><ele>226.0</ele><time>2026-04-04T10:32:28Z</time></trkpt><trkpt lat="42.719742065775655" lon="2.6994751032464586"><ele>228.60000000000002</ele><time>2026-04-04T10:32:29Z</time></trkpt><trkpt lat="42.71982551751093" lon="2.6993998428865766"><ele>231.20000000000002</ele><time>2026-04-04T10:32:30Z</time></trkpt><trkpt lat="42.719920587381495" lon="2.699309643486599"><ele>233.79999999999998</ele><time>2026-04-04T10:32:31Z</time></trkpt><trkpt lat="42.719976089560475" lon="2.699248332486634"><ele>236.39999999999998</ele><time>2026-04-04T10:32:32Z</time></trkpt><trkpt lat="42.72004884767111" lon="2.6992032015300618"><ele>239.0</ele><time>2026-04-04T10:32:34Z</time></trkpt><trkpt lat="42.720139608956806" lon="2.699143272309949"><ele>239.0</ele><time>2026-04-04T10:32:36Z</time></trkpt><trkpt lat="42.720215520547924" lon="2.699088245199797"><ele>238.99999999999997</ele><time>2026-04-04T10:32:37Z</time></trkpt><trkpt lat="42.72029976306336" lon="2.699036217863174"><ele>238.99999999999997</ele><time>2026-04-04T10:32:38Z</time></trkpt><trkpt lat="42.72039169045083" lon="2.698984255582245"><ele>239.0</ele><time>2026-04-04T10:32:39Z</time></trkpt><trkpt lat="42.72048634833322" lon="2.698924748857695"><ele>239.0</ele><time>2026-04-04T10:32:40Z</time></trkpt><trkpt lat="42.72057579199718" lon="2.6988607911087175"><ele>241.39999999999998</ele><time>2026-04-04T10:32:41Z</time></trkpt><trkpt lat="42.720679144517774" lon="2.6987782033348697"><ele>243.79999999999998</ele><time>2026-04-04T10:32:42Z</time></trkpt><trkpt lat="42.72078547670109" lon="2.6987227754279917"><ele>246.20000000000002</ele><time>2026-04-04T10:32:43Z</time></trkpt><trkpt lat="42.720875653302066" lon="2.698656333955818"><ele>248.60000000000002</ele><time>2026-04-04T10:32:44Z</time></trkpt><trkpt lat="42.720969632774406" lon="2.698600053678942"><ele>251.0</ele><time>2026-04-04T10:32:45Z</time></trkpt><trkpt lat="42.72104363824265" lon="2.698554822636139"><ele>255.60000000000002</ele><time>2026-04-04T10:32:46Z</time></trkpt><trkpt lat="42.721104686139554" lon="2.6985238552160933"><ele>260.20000000000005</ele><time>2026-04-04T10:32:47Z</time></trkpt><trkpt lat="42.72118331590816" lon="2.6983702795569555"><ele>264.79999999999995</ele><time>2026-04-04T10:32:49Z</time></trkpt><trkpt lat="42.72123372258134" lon="2.6982788486031883"><ele>269.4</ele><time>2026-04-04T10:32:50Z</time></trkpt><trkpt lat="42.72128936827969" lon="2.698177934634164"><ele>274.0</ele><time>2026-04-04T10:32:51Z</time></trkpt><trkpt lat="42.72136120626753" lon="2.6980899327444683"><ele>274.0</ele><time>2026-04-04T10:32:52Z</time></trkpt><trkpt lat="42.721416067588294" lon="2.697998279233519"><ele>274.0</ele><time>2026-04-04T10:32:53Z</time></trkpt><trkpt lat="42.721468839255294" lon="2.6978780867485193"><ele>274.0</ele><time>2026-04-04T10:32:54Z</time></trkpt><trkpt lat="42.72146744935344" lon="2.6977854207413308"><ele>274.0</ele><time>2026-04-04T10:32:55Z</time></trkpt><trkpt lat="42.7214396837398" lon="2.697693852504095"><ele>274.0</ele><time>2026-04-04T10:32:56Z</time></trkpt><trkpt lat="42.721367282731066" lon="2.6976170718360635"><ele>274.0</ele><time>2026-04-04T10:32:57Z</time></trkpt><trkpt lat="42.721310170091655" lon="2.6975039130421927"><ele>274.5</ele><time>2026-04-04T10:32:58Z</time></trkpt><trkpt lat="42.72126940137759" lon="2.6974223939142536"><ele>275.0</ele><time>2026-04-04T10:32:59Z</time></trkpt><trkpt lat="42.72129035023974" lon="2.6973259128898883"><ele>275.5</ele><time>2026-04-04T10:33:00Z</time></trkpt><trkpt lat="42.72129186841582" lon="2.697207562733358"><ele>276.0</ele><time>2026-04-04T10:33:01Z</time></trkpt><trkpt lat="42.721293214549846" lon="2.6970712020707697"><ele>276.5</ele><time>2026-04-04T10:33:02Z</time></trkpt><trkpt lat="42.721294625892604" lon="2.6969475604946394"><ele>277.0</ele><time>2026-04-04T10:33:03Z</time></trkpt><trkpt lat="42.7212769311661" lon="2.6968563545324336"><ele>279.4</ele><time>2026-04-04T10:33:04Z</time></trkpt><trkpt lat="42.721277777782625" lon="2.6967336254367416"><ele>281.79999999999995</ele><time>2026-04-04T10:33:05Z</time></trkpt><trkpt lat="42.7212690996435" lon="2.6965758786050293"><ele>284.2</ele><time>2026-04-04T10:33:06Z</time></trkpt><trkpt lat="42.72125246964809" lon="2.6964351536946043"><ele>286.59999999999997</ele><time>2026-04-04T10:33:07Z</time></trkpt><trkpt lat="42.721253594311754" lon="2.69632133437328"><ele>289.0</ele><time>2026-04-04T10:33:09Z</time></trkpt><trkpt lat="42.7213472170705" lon="2.6963277079676824"><ele>289.0</ele><time>2026-04-04T10:33:11Z</time></trkpt><trkpt lat="42.72143967806265" lon="2.6965102478043868"><ele>289.0</ele><time>2026-04-04T10:33:13Z</time></trkpt><trkpt lat="42.72152562682847" lon="2.6966429150825877"><ele>289.0</ele><time>2026-04-04T10:33:14Z</time></trkpt><trkpt lat="42.72162144861327" lon="2.6967558773520457"><ele>289.0</ele><time>2026-04-04T10:33:15Z</time></trkpt><trkpt lat="42.72170926014874" lon="2.6968433730837873"><ele>289.0</ele><time>2026-04-04T10:33:16Z</time></trkpt><trkpt lat="42.72178840098625" lon="2.6968816624618497"><ele>289.0</ele><time>2026-04-04T10:33:17Z</time></trkpt><trkpt lat="42.7218742997365" lon="2.6969048453815874"><ele>289.0</ele><time>2026-04-04T10:33:18Z</time></trkpt><trkpt lat="42.72197272157596" lon="2.6969259991212104"><ele>289.0</ele><time>2026-04-04T10:33:19Z</time></trkpt><trkpt lat="42.72206343192232" lon="2.696895095399272"><ele>289.0</ele><time>2026-04-04T10:33:20Z</time></trkpt><trkpt lat="42.72218764350392" lon="2.6968499970956765"><ele>291.66666666666663</ele><time>2026-04-04T10:33:21Z</time></trkpt><trkpt lat="42.72228079499784" lon="2.696813904713539"><ele>294.3333333333333</ele><time>2026-04-04T10:33:22Z</time></trkpt><trkpt lat="42.722357906856224" lon="2.6968531128214908"><ele>297.0</ele><time>2026-04-04T10:33:24Z</time></trkpt><trkpt lat="42.72240935730548" lon="2.6969319446303484"><ele>299.6666666666667</ele><time>2026-04-04T10:33:25Z</time></trkpt><trkpt lat="42.72246552166441" lon="2.6970155557640276"><ele>302.33333333333337</ele><time>2026-04-04T10:33:26Z</time></trkpt><trkpt lat="42.722531353615295" lon="2.6969230352768805"><ele>305.0</ele><time>2026-04-04T10:33:28Z</time></trkpt><trkpt lat="42.72246140490292" lon="2.6967613343462866"><ele>305.8</ele><time>2026-04-04T10:33:30Z</time></trkpt><trkpt lat="42.722398722288474" lon="2.696649461024194"><ele>306.6</ele><time>2026-04-04T10:33:31Z</time></trkpt><trkpt lat="42.722338170628404" lon="2.696532514000918"><ele>307.4</ele><time>2026-04-04T10:33:32Z</time></trkpt><trkpt lat="42.72227455095377" lon="2.6963796088493797"><ele>308.2</ele><time>2026-04-04T10:33:33Z</time></trkpt><trkpt lat="42.72220371443619" lon="2.6962696071847794"><ele>309.0</ele><time>2026-04-04T10:33:34Z</time></trkpt><trkpt lat="42.72211543732989" lon="2.6962224051094643"><ele>309.0</ele><time>2026-04-04T10:33:35Z</time></trkpt><trkpt lat="42.72204343650641" lon="2.696142469770123"><ele>309.0</ele><time>2026-04-04T10:33:36Z</time></trkpt><trkpt lat="42.72206647114863" lon="2.6959903124946045"><ele>309.0</ele><time>2026-04-04T10:33:38Z</time></trkpt><trkpt lat="42.72214011383696" lon="2.6959146781255137"><ele>309.0</ele><time>2026-04-04T10:33:39Z</time></trkpt><trkpt lat="42.72221864020569" lon="2.6958795074250075"><ele>309.0</ele><time>2026-04-04T10:33:40Z</time></trkpt><trkpt lat="42.722304194478774" lon="2.6958917037566166"><ele>309.0</ele><time>2026-04-04T10:33:41Z</time></trkpt><trkpt lat="42.722371434934935" lon="2.696002515165952"><ele>309.0</ele><time>2026-04-04T10:33:42Z</time></trkpt><trkpt lat="42.722454222692214" lon="2.6961166967481867"><ele>309.0</ele><time>2026-04-04T10:33:43Z</time></trkpt><trkpt lat="42.72255048846123" lon="2.6962544595892166"><ele>309.0</ele><time>2026-04-04T10:33:44Z</time></trkpt><trkpt lat="42.722671376493864" lon="2.6963983829094897"><ele>315.25</ele><time>2026-04-04T10:33:45Z</time></trkpt><trkpt lat="42.722795674968715" lon="2.6965478707898907"><ele>321.5</ele><time>2026-04-04T10:33:46Z</time></trkpt><trkpt lat="42.7228880523173" lon="2.6966819645005526"><ele>327.75</ele><time>2026-04-04T10:33:47Z</time></trkpt><trkpt lat="42.722976624846126" lon="2.696758108841112"><ele>334.0</ele><time>2026-04-04T10:33:48Z</time></trkpt><trkpt lat="42.723059765306076" lon="2.6968275772193726"><ele>334.0</ele><time>2026-04-04T10:33:49Z</time></trkpt><trkpt lat="42.723085771920886" lon="2.696934366259431"><ele>334.0</ele><time>2026-04-04T10:33:50Z</time></trkpt><trkpt lat="42.7230685542202" lon="2.69712940764639"><ele>334.0</ele><time>2026-04-04T10:33:52Z</time></trkpt><trkpt lat="42.723060047270494" lon="2.6972935954526633"><ele>334.0</ele><time>2026-04-04T10:33:53Z</time></trkpt><trkpt lat="42.723074838678514" lon="2.6974306012676146"><ele>334.0</ele><time>2026-04-04T10:33:54Z</time></trkpt><trkpt lat="42.72307314264134" lon="2.697577613025663"><ele>334.0</ele><time>2026-04-04T10:33:55Z</time></trkpt><trkpt lat="42.723090124767694" lon="2.697721037323848"><ele>334.0</ele><time>2026-04-04T10:33:56Z</time></trkpt><trkpt lat="42.723140338470074" lon="2.6978414636008656"><ele>334.0</ele><time>2026-04-04T10:33:57Z</time></trkpt><trkpt lat="42.72317892233497" lon="2.6979565249066004"><ele>334.0</ele><time>2026-04-04T10:33:58Z</time></trkpt><trkpt lat="42.72323421911566" lon="2.6980521794747085"><ele>333.6</ele><time>2026-04-04T10:33:59Z</time></trkpt><trkpt lat="42.72329054157302" lon="2.6981914642211344"><ele>333.2</ele><time>2026-04-04T10:34:00Z</time></trkpt><trkpt lat="42.723366240084516" lon="2.698333134442727"><ele>332.8</ele><time>2026-04-04T10:34:01Z</time></trkpt><trkpt lat="42.72339055588649" lon="2.6984584185816116"><ele>332.40000000000003</ele><time>2026-04-04T10:34:02Z</time></trkpt><trkpt lat="42.72342141431622" lon="2.698542000075557"><ele>332.0</ele><time>2026-04-04T10:34:03Z</time></trkpt><trkpt lat="42.72351721138525" lon="2.6984805927694926"><ele>332.0</ele><time>2026-04-04T10:34:05Z</time></trkpt><trkpt lat="42.72351194524284" lon="2.6983867338951364"><ele>332.0</ele><time>2026-04-04T10:34:06Z</time></trkpt><trkpt lat="42.723465666946254" lon="2.698295091256425"><ele>332.0</ele><time>2026-04-04T10:34:07Z</time></trkpt><trkpt lat="42.7234401383924" lon="2.6981594574804575"><ele>332.0</ele><time>2026-04-04T10:34:08Z</time></trkpt><trkpt lat="42.72343004958616" lon="2.6980125703178284"><ele>332.0</ele><time>2026-04-04T10:34:09Z</time></trkpt><trkpt lat="42.72343725633447" lon="2.697914021614032"><ele>332.0</ele><time>2026-04-04T10:34:10Z</time></trkpt><trkpt lat="42.72346135511603" lon="2.6977783664295285"><ele>332.5</ele><time>2026-04-04T10:34:11Z</time></trkpt><trkpt lat="42.723499862051156" lon="2.69762139318718"><ele>333.0</ele><time>2026-04-04T10:34:12Z</time></trkpt><trkpt lat="42.72354943813127" lon="2.6974426398676745"><ele>333.5</ele><time>2026-04-04T10:34:13Z</time></trkpt><trkpt lat="42.72358559255883" lon="2.6972650562447167"><ele>334.0</ele><time>2026-04-04T10:34:14Z</time></trkpt><trkpt lat="42.723633803852046" lon="2.6971057673548313"><ele>341.0</ele><time>2026-04-04T10:34:15Z</time></trkpt><trkpt lat="42.723677808087736" lon="2.6969653280736448"><ele>348.0</ele><time>2026-04-04T10:34:16Z</time></trkpt><trkpt lat="42.72369830131943" lon="2.696801384545809"><ele>355.0</ele><time>2026-04-04T10:34:17Z</time></trkpt><trkpt lat="42.723722019599904" lon="2.6966525167694377"><ele>362.0</ele><time>2026-04-04T10:34:18Z</time></trkpt><trkpt lat="42.72371962149029" lon="2.696506972787591"><ele>362.0</ele><time>2026-04-04T10:34:19Z</time></trkpt><trkpt lat="42.72371186534123" lon="2.6963635475437875"><ele>362.0</ele><time>2026-04-04T10:34:20Z</time></trkpt><trkpt lat="42.723711016180346" lon="2.696212645968923"><ele>362.0</ele><time>2026-04-04T10:34:21Z</time></trkpt><trkpt lat="42.723717695771775" lon="2.6960970192582816"><ele>362.0</ele><time>2026-04-04T10:34:22Z</time></trkpt><trkpt lat="42.72377687375644" lon="2.695953058311632"><ele>362.0</ele><time>2026-04-04T10:34:24Z</time></trkpt><trkpt lat="42.72386525606681" lon="2.6958607680171407"><ele>361.0</ele><time>2026-04-04T10:34:26Z</time></trkpt><trkpt lat="42.72392188613214" lon="2.695809300739135"><ele>360.0</ele><time>2026-04-04T10:34:27Z</time></trkpt><trkpt lat="42.72399427647504" lon="2.695742982226934"><ele>359.0</ele><time>2026-04-04T10:34:28Z</time></trkpt><trkpt lat="42.724079025085416" lon="2.69565729519937"><ele>358.0</ele><time>2026-04-04T10:34:29Z</time></trkpt><trkpt lat="42.72415430925189" lon="2.6955808345168917"><ele>357.0</ele><time>2026-04-04T10:34:30Z</time></trkpt><trkpt lat="42.72422609190968" lon="2.6955160825993905"><ele>356.0</ele><time>2026-04-04T10:34:31Z</time></trkpt><trkpt lat="42.72432539872572" lon="2.6954158337686276"><ele>359.6</ele><time>2026-04-04T10:34:32Z</time></trkpt><trkpt lat="42.72440897320419" lon="2.6953360693134774"><ele>363.20000000000005</ele><time>2026-04-04T10:34:33Z</time></trkpt><trkpt lat="42.724481169900265" lon="2.695249765812209"><ele>366.79999999999995</ele><time>2026-04-04T10:34:34Z</time></trkpt><trkpt lat="42.724550645493665" lon="2.695159550577683"><ele>370.4</ele><time>2026-04-04T10:34:35Z</time></trkpt><trkpt lat="42.724631433850874" lon="2.6950560424920464"><ele>374.0</ele><time>2026-04-04T10:34:36Z</time></trkpt><trkpt lat="42.72468047385756" lon="2.6949686769399746"><ele>374.0</ele><time>2026-04-04T10:34:37Z</time></trkpt><trkpt lat="42.72471146628776" lon="2.694838172817446"><ele>374.0</ele><time>2026-04-04T10:34:39Z</time></trkpt><trkpt lat="42.7247274323588" lon="2.694719252601258"><ele>374.0</ele><time>2026-04-04T10:34:42Z</time></trkpt><trkpt lat="42.72475576517928" lon="2.6946122636097156"><ele>374.0</ele><time>2026-04-04T10:34:44Z</time></trkpt><trkpt lat="42.724812014202406" lon="2.694483925984718"><ele>374.0</ele><time>2026-04-04T10:34:46Z</time></trkpt><trkpt lat="42.724887261236105" lon="2.694453996474044"><ele>374.0</ele><time>2026-04-04T10:34:48Z</time></trkpt><trkpt lat="42.72493788881392" lon="2.6944025722113136"><ele>374.0</ele><time>2026-04-04T10:34:49Z</time></trkpt><trkpt lat="42.72503129219441" lon="2.694396634832613"><ele>374.0</ele><time>2026-04-04T10:34:52Z</time></trkpt><trkpt lat="42.72508927504706" lon="2.6944410404715486"><ele>374.0</ele><time>2026-04-04T10:35:06Z</time></trkpt><trkpt lat="42.72498556525237" lon="2.694578904659063"><ele>374.0</ele><time>2026-04-04T10:35:08Z</time></trkpt><trkpt lat="42.724946883686926" lon="2.694705104087605"><ele>374.0</ele><time>2026-04-04T10:35:09Z</time></trkpt><trkpt lat="42.724918487290616" lon="2.6949037802820106"><ele>374.0</ele><time>2026-04-04T10:35:10Z</time></trkpt><trkpt lat="42.724837568660945" lon="2.6951061736946658"><ele>374.0</ele><time>2026-04-04T10:35:11Z</time></trkpt><trkpt lat="42.7247863078226" lon="2.695318283462519"><ele>376.0</ele><time>2026-04-04T10:35:12Z</time></trkpt><trkpt lat="42.724712487480645" lon="2.6954874219187"><ele>378.0</ele><time>2026-04-04T10:35:13Z</time></trkpt><trkpt lat="42.72465074984329" lon="2.6956525084340677"><ele>380.0</ele><time>2026-04-04T10:35:14Z</time></trkpt><trkpt lat="42.72458688577606" lon="2.695809504386161"><ele>382.0</ele><time>2026-04-04T10:35:15Z</time></trkpt><trkpt lat="42.72453044709551" lon="2.6959400276463743"><ele>382.0</ele><time>2026-04-04T10:35:16Z</time></trkpt><trkpt lat="42.724486911583746" lon="2.696048256379233"><ele>382.0</ele><time>2026-04-04T10:35:17Z</time></trkpt><trkpt lat="42.72445280876905" lon="2.6961998433813363"><ele>382.0</ele><time>2026-04-04T10:35:18Z</time></trkpt><trkpt lat="42.724492055929275" lon="2.6963376054205352"><ele>382.0</ele><time>2026-04-04T10:35:19Z</time></trkpt><trkpt lat="42.724512119455966" lon="2.6964462755971654"><ele>382.0</ele><time>2026-04-04T10:35:20Z</time></trkpt><trkpt lat="42.7245203785026" lon="2.6966007448542277"><ele>385.0</ele><time>2026-04-04T10:35:21Z</time></trkpt><trkpt lat="42.72451732384094" lon="2.6967941475611092"><ele>388.0</ele><time>2026-04-04T10:35:22Z</time></trkpt><trkpt lat="42.72451156101664" lon="2.697013005352605"><ele>391.0</ele><time>2026-04-04T10:35:23Z</time></trkpt><trkpt lat="42.724503576815856" lon="2.697230826020658"><ele>392.75</ele><time>2026-04-04T10:35:24Z</time></trkpt><trkpt lat="42.724494531048556" lon="2.697424570627959"><ele>394.5</ele><time>2026-04-04T10:35:25Z</time></trkpt><trkpt lat="42.7244811433871" lon="2.697600998091287"><ele>396.25</ele><time>2026-04-04T10:35:26Z</time></trkpt><trkpt lat="42.72446233985059" lon="2.6977746736036288"><ele>398.0</ele><time>2026-04-04T10:35:27Z</time></trkpt><trkpt lat="42.72444488418894" lon="2.6979097425526413"><ele>397.79999999999995</ele><time>2026-04-04T10:35:28Z</time></trkpt><trkpt lat="42.72442538981576" lon="2.6980334957396783"><ele>397.6</ele><time>2026-04-04T10:35:29Z</time></trkpt><trkpt lat="42.72444372914143" lon="2.6981448769041285"><ele>397.4</ele><time>2026-04-04T10:35:30Z</time></trkpt><trkpt lat="42.72445602908818" lon="2.698273410448224"><ele>397.20000000000005</ele><time>2026-04-04T10:35:31Z</time></trkpt><trkpt lat="42.72448134811099" lon="2.698422511504296"><ele>397.0</ele><time>2026-04-04T10:35:32Z</time></trkpt><trkpt lat="42.724525694683365" lon="2.6985939632600884"><ele>397.0</ele><time>2026-04-04T10:35:33Z</time></trkpt><trkpt lat="42.724579432952595" lon="2.6987410887146748"><ele>397.0</ele><time>2026-04-04T10:35:34Z</time></trkpt><trkpt lat="42.72463427233281" lon="2.698870213208532"><ele>397.0</ele><time>2026-04-04T10:35:35Z</time></trkpt><trkpt lat="42.724693511518666" lon="2.699006058122879"><ele>397.0</ele><time>2026-04-04T10:35:36Z</time></trkpt><trkpt lat="42.72476365899829" lon="2.6991301007850494"><ele>397.00000000000006</ele><time>2026-04-04T10:35:37Z</time></trkpt><trkpt lat="42.72483363507533" lon="2.6992154940896316"><ele>397.0</ele><time>2026-04-04T10:35:38Z</time></trkpt><trkpt lat="42.724898022964936" lon="2.699251932532868"><ele>397.0</ele><time>2026-04-04T10:35:39Z</time></trkpt><trkpt lat="42.724929485537615" lon="2.6991470388795418"><ele>397.0</ele><time>2026-04-04T10:35:41Z</time></trkpt><trkpt lat="42.72491981795072" lon="2.699028061501857"><ele>397.00000000000006</ele><time>2026-04-04T10:35:42Z</time></trkpt><trkpt lat="42.72488591803853" lon="2.6988845859914528"><ele>397.0</ele><time>2026-04-04T10:35:43Z</time></trkpt><trkpt lat="42.72488846051607" lon="2.6987283434291003"><ele>397.8</ele><time>2026-04-04T10:35:44Z</time></trkpt><trkpt lat="42.72488241760337" lon="2.69855209479947"><ele>398.6</ele><time>2026-04-04T10:35:45Z</time></trkpt><trkpt lat="42.724885359620586" lon="2.698389383682212"><ele>399.40000000000003</ele><time>2026-04-04T10:35:46Z</time></trkpt><trkpt lat="42.724913719751044" lon="2.6983117341915834"><ele>400.20000000000005</ele><time>2026-04-04T10:35:48Z</time></trkpt><trkpt lat="42.72496888703965" lon="2.698422543535016"><ele>401.0</ele><time>2026-04-04T10:35:51Z</time></trkpt><trkpt lat="42.725019444248275" lon="2.6984960224014274"><ele>400.0</ele><time>2026-04-04T10:35:52Z</time></trkpt><trkpt lat="42.72508386010239" lon="2.6986380320451278"><ele>399.0</ele><time>2026-04-04T10:35:53Z</time></trkpt><trkpt lat="42.72514950800745" lon="2.6988609480308625"><ele>398.0</ele><time>2026-04-04T10:35:54Z</time></trkpt><trkpt lat="42.725192835659" lon="2.698997405793898"><ele>397.0</ele><time>2026-04-04T10:35:55Z</time></trkpt><trkpt lat="42.72521423582614" lon="2.6990964034669527"><ele>404.40000000000003</ele><time>2026-04-04T10:35:56Z</time></trkpt><trkpt lat="42.725248338670994" lon="2.699183582997264"><ele>411.8</ele><time>2026-04-04T10:35:57Z</time></trkpt><trkpt lat="42.725305293764634" lon="2.6992920831636242"><ele>419.2</ele><time>2026-04-04T10:35:59Z</time></trkpt><trkpt lat="42.72536764747792" lon="2.69924802422007"><ele>426.6</ele><time>2026-04-04T10:36:01Z</time></trkpt><trkpt lat="42.725335297360964" lon="2.6990464809577643"><ele>434.0</ele><time>2026-04-04T10:36:02Z</time></trkpt><trkpt lat="42.725311610947536" lon="2.69893586315133"><ele>434.0</ele><time>2026-04-04T10:36:03Z</time></trkpt><trkpt lat="42.72528864907155" lon="2.698767705851125"><ele>434.0</ele><time>2026-04-04T10:36:04Z</time></trkpt><trkpt lat="42.72527943218716" lon="2.6986030005980206"><ele>434.0</ele><time>2026-04-04T10:36:05Z</time></trkpt><trkpt lat="42.72528851027365" lon="2.6984345418141626"><ele>434.0</ele><time>2026-04-04T10:36:06Z</time></trkpt><trkpt lat="42.72529035697881" lon="2.6982370349554454"><ele>434.0</ele><time>2026-04-04T10:36:07Z</time></trkpt><trkpt lat="42.7252816143484" lon="2.6980814259185806"><ele>434.0</ele><time>2026-04-04T10:36:08Z</time></trkpt><trkpt lat="42.72528701586131" lon="2.6979187100411637"><ele>434.0</ele><time>2026-04-04T10:36:09Z</time></trkpt><trkpt lat="42.725310529740234" lon="2.6978031424192483"><ele>434.0</ele><time>2026-04-04T10:36:10Z</time></trkpt><trkpt lat="42.72537335553708" lon="2.6977217582718067"><ele>434.0</ele><time>2026-04-04T10:36:11Z</time></trkpt><trkpt lat="42.72542328801362" lon="2.6976063597318922"><ele>432.66666666666663</ele><time>2026-04-04T10:36:12Z</time></trkpt><trkpt lat="42.72551311386892" lon="2.6974450712649753"><ele>431.33333333333337</ele><time>2026-04-04T10:36:13Z</time></trkpt><trkpt lat="42.72562260467915" lon="2.6972556901718585"><ele>430.0</ele><time>2026-04-04T10:36:14Z</time></trkpt><trkpt lat="42.72568108155781" lon="2.6971066477384267"><ele>430.0</ele><time>2026-04-04T10:36:15Z</time></trkpt><trkpt lat="42.725735262943026" lon="2.6969885444539567"><ele>430.0</ele><time>2026-04-04T10:36:16Z</time></trkpt><trkpt lat="42.72582525290832" lon="2.696903016212967"><ele>430.0</ele><time>2026-04-04T10:36:17Z</time></trkpt><trkpt lat="42.725910842685145" lon="2.6968116139455742"><ele>430.0</ele><time>2026-04-04T10:36:18Z</time></trkpt><trkpt lat="42.72600196658294" lon="2.696722446957542"><ele>430.0</ele><time>2026-04-04T10:36:19Z</time></trkpt><trkpt lat="42.726068510870874" lon="2.69665201501399"><ele>433.1666666666667</ele><time>2026-04-04T10:36:20Z</time></trkpt><trkpt lat="42.72611992541392" lon="2.6965889984006157"><ele>436.33333333333337</ele><time>2026-04-04T10:36:21Z</time></trkpt><trkpt lat="42.726179525808" lon="2.6964841733839413"><ele>439.5</ele><time>2026-04-04T10:36:23Z</time></trkpt><trkpt lat="42.726221447038576" lon="2.6963906847855195"><ele>442.66666666666663</ele><time>2026-04-04T10:36:26Z</time></trkpt><trkpt lat="42.72633125747785" lon="2.6964062932177852"><ele>445.8333333333333</ele><time>2026-04-04T10:36:31Z</time></trkpt><trkpt lat="42.726319648270824" lon="2.69630510669499"><ele>449.0</ele><time>2026-04-04T10:36:35Z</time></trkpt><trkpt lat="42.72626596505591" lon="2.6962109867242052"><ele>448.99999999999994</ele><time>2026-04-04T10:36:39Z</time></trkpt><trkpt lat="42.72628328748847" lon="2.6961238126664617"><ele>449.0</ele><time>2026-04-04T10:36:41Z</time></trkpt><trkpt lat="42.7263518308486" lon="2.696101084333426"><ele>449.0</ele><time>2026-04-04T10:36:42Z</time></trkpt><trkpt lat="42.726391283007494" lon="2.696022807396634"><ele>449.0</ele><time>2026-04-04T10:36:43Z</time></trkpt><trkpt lat="42.726438257746004" lon="2.6959296044500642"><ele>448.99999999999994</ele><time>2026-04-04T10:36:44Z</time></trkpt><trkpt lat="42.72650482086901" lon="2.6957980297640702"><ele>449.0</ele><time>2026-04-04T10:36:45Z</time></trkpt><trkpt lat="42.726562360028616" lon="2.695679898196469"><ele>446.0</ele><time>2026-04-04T10:36:46Z</time></trkpt><trkpt lat="42.72662380370924" lon="2.6955218307694095"><ele>443.0</ele><time>2026-04-04T10:36:47Z</time></trkpt><trkpt lat="42.72665440657914" lon="2.695351227222966"><ele>440.0</ele><time>2026-04-04T10:36:48Z</time></trkpt><trkpt lat="42.72669519301451" lon="2.6951964960650243"><ele>437.0</ele><time>2026-04-04T10:36:49Z</time></trkpt><trkpt lat="42.72675824951678" lon="2.695075463580405"><ele>434.75</ele><time>2026-04-04T10:36:50Z</time></trkpt><trkpt lat="42.726866808870724" lon="2.6949933588177815"><ele>432.5</ele><time>2026-04-04T10:36:51Z</time></trkpt><trkpt lat="42.726966084205806" lon="2.6948943658672273"><ele>430.25</ele><time>2026-04-04T10:36:52Z</time></trkpt><trkpt lat="42.72715108556797" lon="2.6947963719866923"><ele>428.0</ele><time>2026-04-04T10:36:53Z</time></trkpt><trkpt lat="42.72730340961908" lon="2.694705558439397"><ele>431.0</ele><time>2026-04-04T10:36:54Z</time></trkpt><trkpt lat="42.7273943703971" lon="2.694661811044746"><ele>433.99999999999994</ele><time>2026-04-04T10:36:55Z</time></trkpt><trkpt lat="42.727507482167304" lon="2.6946153815414564"><ele>436.99999999999994</ele><time>2026-04-04T10:36:56Z</time></trkpt><trkpt lat="42.72762070587284" lon="2.6945941722834674"><ele>440.0</ele><time>2026-04-04T10:36:57Z</time></trkpt><trkpt lat="42.72770929885401" lon="2.694642615879033"><ele>443.0</ele><time>2026-04-04T10:36:58Z</time></trkpt><trkpt lat="42.72778662705629" lon="2.694725108017584"><ele>443.0</ele><time>2026-04-04T10:36:59Z</time></trkpt><trkpt lat="42.7278976633152" lon="2.694819670748016"><ele>443.0</ele><time>2026-04-04T10:37:00Z</time></trkpt><trkpt lat="42.72803874397461" lon="2.6949288347324454"><ele>443.0</ele><time>2026-04-04T10:37:01Z</time></trkpt><trkpt lat="42.7281736369249" lon="2.695042408969847"><ele>443.0</ele><time>2026-04-04T10:37:02Z</time></trkpt><trkpt lat="42.72830703500378" lon="2.695170176900174"><ele>443.0</ele><time>2026-04-04T10:37:03Z</time></trkpt><trkpt lat="42.72848811306936" lon="2.6953078695041133"><ele>443.0</ele><time>2026-04-04T10:37:04Z</time></trkpt><trkpt lat="42.72865007343597" lon="2.6953949686333316"><ele>444.49999999999994</ele><time>2026-04-04T10:37:05Z</time></trkpt><trkpt lat="42.72874049252448" lon="2.695496294929233"><ele>446.0</ele><time>2026-04-04T10:37:06Z</time></trkpt><trkpt lat="42.728819080462934" lon="2.695576102123141"><ele>447.5</ele><time>2026-04-04T10:37:07Z</time></trkpt><trkpt lat="42.72886652525153" lon="2.695662091892104"><ele>449.0</ele><time>2026-04-04T10:37:08Z</time></trkpt><trkpt lat="42.72891266181836" lon="2.6957430614334275"><ele>450.49999999999994</ele><time>2026-04-04T10:37:09Z</time></trkpt><trkpt lat="42.728880950243365" lon="2.695819468974571"><ele>452.0</ele><time>2026-04-04T10:37:10Z</time></trkpt><trkpt lat="42.728843683927394" lon="2.6958925423247857"><ele>451.99999999999994</ele><time>2026-04-04T10:37:11Z</time></trkpt><trkpt lat="42.72880165839908" lon="2.6959875924936845"><ele>452.0</ele><time>2026-04-04T10:37:12Z</time></trkpt><trkpt lat="42.728754448363226" lon="2.6960788931190374"><ele>452.0</ele><time>2026-04-04T10:37:13Z</time></trkpt><trkpt lat="42.728698823515664" lon="2.696152082320571"><ele>452.0</ele><time>2026-04-04T10:37:14Z</time></trkpt><trkpt lat="42.72861827599656" lon="2.6961580669828717"><ele>451.99999999999994</ele><time>2026-04-04T10:37:15Z</time></trkpt><trkpt lat="42.72852260115789" lon="2.6962094978461035"><ele>452.0</ele><time>2026-04-04T10:37:16Z</time></trkpt><trkpt lat="42.72842643998369" lon="2.696299480547844"><ele>456.40000000000003</ele><time>2026-04-04T10:37:17Z</time></trkpt><trkpt lat="42.72840304795528" lon="2.6964839411864863"><ele>460.80000000000007</ele><time>2026-04-04T10:37:18Z</time></trkpt><trkpt lat="42.72839787852249" lon="2.6966340740097663"><ele>465.2</ele><time>2026-04-04T10:37:19Z</time></trkpt><trkpt lat="42.72841432726078" lon="2.696773464690092"><ele>469.6</ele><time>2026-04-04T10:37:20Z</time></trkpt><trkpt lat="42.72839253810342" lon="2.6968688572451285"><ele>474.0</ele><time>2026-04-04T10:37:21Z</time></trkpt><trkpt lat="42.72832043063982" lon="2.697022055176557"><ele>474.25</ele><time>2026-04-04T10:37:23Z</time></trkpt><trkpt lat="42.728316285781645" lon="2.6972511664273178"><ele>474.5</ele><time>2026-04-04T10:37:24Z</time></trkpt><trkpt lat="42.728289096392295" lon="2.6974131713690976"><ele>474.75</ele><time>2026-04-04T10:37:25Z</time></trkpt><trkpt lat="42.72826752554527" lon="2.6975364229980014"><ele>475.0</ele><time>2026-04-04T10:37:26Z</time></trkpt><trkpt lat="42.72824288621693" lon="2.697636158781015"><ele>475.00000000000006</ele><time>2026-04-04T10:37:27Z</time></trkpt><trkpt lat="42.728168938902826" lon="2.6976720303746635"><ele>475.0</ele><time>2026-04-04T10:37:28Z</time></trkpt><trkpt lat="42.72809515982067" lon="2.697704510874011"><ele>475.0</ele><time>2026-04-04T10:37:29Z</time></trkpt><trkpt lat="42.72801478497745" lon="2.697742434645391"><ele>475.0</ele><time>2026-04-04T10:37:30Z</time></trkpt><trkpt lat="42.72792831310032" lon="2.6977733868787057"><ele>475.00000000000006</ele><time>2026-04-04T10:37:31Z</time></trkpt><trkpt lat="42.72783990855728" lon="2.697801415196038"><ele>475.0</ele><time>2026-04-04T10:37:32Z</time></trkpt><trkpt lat="42.72776237698196" lon="2.697825628214275"><ele>476.2</ele><time>2026-04-04T10:37:33Z</time></trkpt><trkpt lat="42.727675788955025" lon="2.697852669515896"><ele>477.4</ele><time>2026-04-04T10:37:34Z</time></trkpt><trkpt lat="42.727594755598204" lon="2.697902379029548"><ele>478.6</ele><time>2026-04-04T10:37:35Z</time></trkpt><trkpt lat="42.72750461750001" lon="2.697929437515853"><ele>479.8</ele><time>2026-04-04T10:37:36Z</time></trkpt><trkpt lat="42.72740391617164" lon="2.697960005488074"><ele>481.0</ele><time>2026-04-04T10:37:37Z</time></trkpt><trkpt lat="42.727320002054974" lon="2.6980156632777357"><ele>481.00000000000006</ele><time>2026-04-04T10:37:38Z</time></trkpt><trkpt lat="42.727262034018864" lon="2.698067366797342"><ele>481.0</ele><time>2026-04-04T10:37:40Z</time></trkpt><trkpt lat="42.72722476662647" lon="2.6979910506408156"><ele>481.0</ele><time>2026-04-04T10:37:45Z</time></trkpt><trkpt lat="42.72724045885059" lon="2.697900745788077"><ele>481.0</ele><time>2026-04-04T10:37:46Z</time></trkpt><trkpt lat="42.72725720226938" lon="2.697807027212863"><ele>481.00000000000006</ele><time>2026-04-04T10:37:47Z</time></trkpt><trkpt lat="42.72727905674904" lon="2.697645026434259"><ele>481.0</ele><time>2026-04-04T10:37:49Z</time></trkpt><trkpt lat="42.72731458890867" lon="2.69747760257404"><ele>482.33333333333337</ele><time>2026-04-04T10:37:51Z</time></trkpt><trkpt lat="42.72734667522273" lon="2.6973446667295136"><ele>483.6666666666667</ele><time>2026-04-04T10:37:53Z</time></trkpt><trkpt lat="42.72734060756003" lon="2.6972313817631486"><ele>485.0</ele><time>2026-04-04T10:37:55Z</time></trkpt><trkpt lat="42.72731845559028" lon="2.697141567892601"><ele>486.33333333333337</ele><time>2026-04-04T10:37:58Z</time></trkpt><trkpt lat="42.72731918501761" lon="2.6972347948196536"><ele>487.6666666666667</ele><time>2026-04-04T10:41:15Z</time></trkpt><trkpt lat="42.72734358379522" lon="2.6973243755467906"><ele>489.0</ele><time>2026-04-04T10:41:19Z</time></trkpt><trkpt lat="42.72733865120915" lon="2.6974116202785656"><ele>489.0</ele><time>2026-04-04T10:41:22Z</time></trkpt><trkpt lat="42.72729062316714" lon="2.6974692856330735"><ele>489.0</ele><time>2026-04-04T10:41:24Z</time></trkpt><trkpt lat="42.72726310046225" lon="2.697575637939942"><ele>489.0</ele><time>2026-04-04T10:41:27Z</time></trkpt><trkpt lat="42.72724287597966" lon="2.6976755103031747"><ele>489.0</ele><time>2026-04-04T10:41:30Z</time></trkpt><trkpt lat="42.72723019292216" lon="2.697776792427274"><ele>489.0</ele><time>2026-04-04T10:41:33Z</time></trkpt><trkpt lat="42.72721164749836" lon="2.6978961572798563"><ele>489.0</ele><time>2026-04-04T10:41:36Z</time></trkpt><trkpt lat="42.72719479429775" lon="2.6980156364032855"><ele>487.4</ele><time>2026-04-04T10:41:39Z</time></trkpt><trkpt lat="42.72733349815927" lon="2.6980660271332337"><ele>485.79999999999995</ele><time>2026-04-04T10:41:44Z</time></trkpt><trkpt lat="42.72737990797725" lon="2.6980065456440347"><ele>484.20000000000005</ele><time>2026-04-04T10:41:46Z</time></trkpt><trkpt lat="42.727456963283835" lon="2.6979713584260683"><ele>482.6</ele><time>2026-04-04T10:41:48Z</time></trkpt><trkpt lat="42.72754802635395" lon="2.6979302324571472"><ele>481.0</ele><time>2026-04-04T10:41:50Z</time></trkpt><trkpt lat="42.72764714129755" lon="2.697887578912617"><ele>479.5</ele><time>2026-04-04T10:41:52Z</time></trkpt><trkpt lat="42.72775040112926" lon="2.697860078871212"><ele>478.0</ele><time>2026-04-04T10:41:54Z</time></trkpt><trkpt lat="42.72786276211307" lon="2.6978248631335906"><ele>476.5</ele><time>2026-04-04T10:41:56Z</time></trkpt><trkpt lat="42.72798151730518" lon="2.697779117308187"><ele>475.0</ele><time>2026-04-04T10:41:58Z</time></trkpt><trkpt lat="42.728094519150744" lon="2.6977421912284303"><ele>475.00000000000006</ele><time>2026-04-04T10:42:00Z</time></trkpt><trkpt lat="42.72815077969238" lon="2.697699550959494"><ele>475.0</ele><time>2026-04-04T10:42:01Z</time></trkpt><trkpt lat="42.72823111831784" lon="2.6976011488307883"><ele>475.0</ele><time>2026-04-04T10:42:03Z</time></trkpt><trkpt lat="42.72829265694489" lon="2.6975078365538154"><ele>475.0</ele><time>2026-04-04T10:42:05Z</time></trkpt><trkpt lat="42.728321380788366" lon="2.6974053584944686"><ele>475.00000000000006</ele><time>2026-04-04T10:42:07Z</time></trkpt><trkpt lat="42.72831332040458" lon="2.6972942268430975"><ele>475.0</ele><time>2026-04-04T10:42:09Z</time></trkpt><trkpt lat="42.72832365511204" lon="2.69714797501105"><ele>475.00000000000006</ele><time>2026-04-04T10:42:11Z</time></trkpt><trkpt lat="42.72834849926398" lon="2.69705618117609"><ele>475.0</ele><time>2026-04-04T10:42:12Z</time></trkpt><trkpt lat="42.72837489734251" lon="2.69694925407924"><ele>475.0</ele><time>2026-04-04T10:42:13Z</time></trkpt><trkpt lat="42.728397665588396" lon="2.69685736733528"><ele>475.0</ele><time>2026-04-04T10:42:14Z</time></trkpt><trkpt lat="42.72843666846245" lon="2.696732631154535"><ele>475.00000000000006</ele><time>2026-04-04T10:42:16Z</time></trkpt><trkpt lat="42.72842996402999" lon="2.6966459245583145"><ele>475.0</ele><time>2026-04-04T10:42:17Z</time></trkpt><trkpt lat="42.72841926761766" lon="2.6964958135031605"><ele>474.75</ele><time>2026-04-04T10:42:19Z</time></trkpt><trkpt lat="42.72845752605742" lon="2.69636096081665"><ele>474.5</ele><time>2026-04-04T10:42:21Z</time></trkpt><trkpt lat="42.72853376200529" lon="2.6962511095705177"><ele>474.25</ele><time>2026-04-04T10:42:23Z</time></trkpt><trkpt lat="42.72864224554517" lon="2.6961886082166573"><ele>474.0</ele><time>2026-04-04T10:42:25Z</time></trkpt><trkpt lat="42.7287509188905" lon="2.696130454776427"><ele>469.6</ele><time>2026-04-04T10:42:27Z</time></trkpt><trkpt lat="42.728824397116604" lon="2.695999723241286"><ele>465.2</ele><time>2026-04-04T10:42:29Z</time></trkpt><trkpt lat="42.72887288302071" lon="2.6958560687736663"><ele>460.80000000000007</ele><time>2026-04-04T10:42:31Z</time></trkpt><trkpt lat="42.72891379433183" lon="2.6957660625061743"><ele>456.40000000000003</ele><time>2026-04-04T10:42:33Z</time></trkpt><trkpt lat="42.72896033078133" lon="2.6956608379246263"><ele>452.0</ele><time>2026-04-04T10:43:59Z</time></trkpt><trkpt lat="42.72897875716178" lon="2.69555304681879"><ele>452.0</ele><time>2026-04-04T10:44:02Z</time></trkpt><trkpt lat="42.72915758426015" lon="2.695608936238457"><ele>452.00000000000006</ele><time>2026-04-04T10:44:03Z</time></trkpt><trkpt lat="42.72915859560627" lon="2.6955086974993465"><ele>452.00000000000006</ele><time>2026-04-04T10:44:52Z</time></trkpt><trkpt lat="42.729125865938464" lon="2.6954257686584064"><ele>452.0</ele><time>2026-04-04T10:44:53Z</time></trkpt><trkpt lat="42.72907764131169" lon="2.6953593307227326"><ele>452.0</ele><time>2026-04-04T10:45:13Z</time></trkpt><trkpt lat="42.7291623675221" lon="2.6953341637117574"><ele>452.0</ele><time>2026-04-04T10:45:17Z</time></trkpt><trkpt lat="42.729242519212214" lon="2.6953207271082804"><ele>452.0</ele><time>2026-04-04T10:45:19Z</time></trkpt><trkpt lat="42.72923672613151" lon="2.6952336299564714"><ele>452.0</ele><time>2026-04-04T10:45:23Z</time></trkpt><trkpt lat="42.72916495442926" lon="2.6952914756793964"><ele>452.0</ele><time>2026-04-04T10:45:28Z</time></trkpt><trkpt lat="42.72912389338338" lon="2.695363301513898"><ele>452.0</ele><time>2026-04-04T10:45:31Z</time></trkpt><trkpt lat="42.72904907075153" lon="2.6953692426737286"><ele>452.0</ele><time>2026-04-04T10:45:39Z</time></trkpt><trkpt lat="42.72898947927152" lon="2.6953215024636044"><ele>452.0</ele><time>2026-04-04T10:45:41Z</time></trkpt><trkpt lat="42.72882328833577" lon="2.6954930194813222"><ele>451.99999999999994</ele><time>2026-04-04T10:45:42Z</time></trkpt><trkpt lat="42.72875226209593" lon="2.695422382568686"><ele>452.0</ele><time>2026-04-04T10:45:44Z</time></trkpt><trkpt lat="42.72869463955392" lon="2.695371372445819"><ele>452.0</ele><time>2026-04-04T10:45:45Z</time></trkpt><trkpt lat="42.72858994677619" lon="2.695292882722325"><ele>452.0</ele><time>2026-04-04T10:45:47Z</time></trkpt><trkpt lat="42.72852288112502" lon="2.695253140222961"><ele>451.99999999999994</ele><time>2026-04-04T10:45:48Z</time></trkpt><trkpt lat="42.72845387707519" lon="2.6952064777639615"><ele>452.0</ele><time>2026-04-04T10:45:49Z</time></trkpt><trkpt lat="42.72837110319945" lon="2.695145803522679"><ele>450.20000000000005</ele><time>2026-04-04T10:45:51Z</time></trkpt><trkpt lat="42.72828159142561" lon="2.6950625150506795"><ele>448.40000000000003</ele><time>2026-04-04T10:45:53Z</time></trkpt><trkpt lat="42.72818902557156" lon="2.6949709359316123"><ele>446.59999999999997</ele><time>2026-04-04T10:45:55Z</time></trkpt><trkpt lat="42.728085977835576" lon="2.6948877912233278"><ele>444.79999999999995</ele><time>2026-04-04T10:45:57Z</time></trkpt><trkpt lat="42.728027901488346" lon="2.6948430605819023"><ele>443.0</ele><time>2026-04-04T10:45:58Z</time></trkpt><trkpt lat="42.727952647196105" lon="2.6947864881929093"><ele>443.0</ele><time>2026-04-04T10:46:00Z</time></trkpt><trkpt lat="42.727839933101116" lon="2.69469049606394"><ele>442.99999999999994</ele><time>2026-04-04T10:46:02Z</time></trkpt><trkpt lat="42.72774034672904" lon="2.694605683493396"><ele>442.99999999999994</ele><time>2026-04-04T10:46:04Z</time></trkpt><trkpt lat="42.72766206288806" lon="2.6945444240807626"><ele>443.0</ele><time>2026-04-04T10:46:06Z</time></trkpt><trkpt lat="42.727593244423836" lon="2.6944897157098686"><ele>443.0</ele><time>2026-04-04T10:46:08Z</time></trkpt><trkpt lat="42.72751189184834" lon="2.6945074184613165"><ele>444.5</ele><time>2026-04-04T10:46:11Z</time></trkpt><trkpt lat="42.7274460959553" lon="2.6944715779190234"><ele>446.0</ele><time>2026-04-04T10:46:14Z</time></trkpt><trkpt lat="42.727549045009255" lon="2.693855440752391"><ele>443.3333333333333</ele><time>2026-04-04T10:46:17Z</time></trkpt><trkpt lat="42.727593144928" lon="2.6937929513293954"><ele>440.66666666666663</ele><time>2026-04-04T10:46:19Z</time></trkpt><trkpt lat="42.72767564689273" lon="2.6937023889111122"><ele>438.0</ele><time>2026-04-04T10:46:21Z</time></trkpt><trkpt lat="42.727747429743346" lon="2.6936165244380263"><ele>435.33333333333337</ele><time>2026-04-04T10:46:23Z</time></trkpt><trkpt lat="42.7277938896399" lon="2.6935326331007605"><ele>432.6666666666667</ele><time>2026-04-04T10:46:25Z</time></trkpt><trkpt lat="42.727816640391936" lon="2.6934389740990956"><ele>430.0</ele><time>2026-04-04T10:46:28Z</time></trkpt><trkpt lat="42.72786657701105" lon="2.6932776548057533"><ele>428.50000000000006</ele><time>2026-04-04T10:46:35Z</time></trkpt><trkpt lat="42.727898932835025" lon="2.6931885102794215"><ele>427.0</ele><time>2026-04-04T10:46:36Z</time></trkpt><trkpt lat="42.727891862277794" lon="2.6930830993199235"><ele>425.5</ele><time>2026-04-04T10:46:38Z</time></trkpt><trkpt lat="42.727800597244794" lon="2.6930470608400916"><ele>424.0</ele><time>2026-04-04T10:46:40Z</time></trkpt><trkpt lat="42.72772409836666" lon="2.6930355983581222"><ele>422.50000000000006</ele><time>2026-04-04T10:46:41Z</time></trkpt><trkpt lat="42.72765365077959" lon="2.6930228349809013"><ele>421.0</ele><time>2026-04-04T10:46:42Z</time></trkpt><trkpt lat="42.727585850623804" lon="2.693019122709388"><ele>421.0</ele><time>2026-04-04T10:46:43Z</time></trkpt><trkpt lat="42.72747161370168" lon="2.6929741031875505"><ele>421.0</ele><time>2026-04-04T10:46:45Z</time></trkpt><trkpt lat="42.727373185966904" lon="2.69293436207311"><ele>421.0</ele><time>2026-04-04T10:46:47Z</time></trkpt><trkpt lat="42.72728492802952" lon="2.6929020087861333"><ele>421.0</ele><time>2026-04-04T10:46:49Z</time></trkpt><trkpt lat="42.72721758658911" lon="2.6928567057342576"><ele>421.0</ele><time>2026-04-04T10:46:51Z</time></trkpt><trkpt lat="42.727144489831076" lon="2.6927455510422122"><ele>421.8</ele><time>2026-04-04T10:46:53Z</time></trkpt><trkpt lat="42.72709952412926" lon="2.6926417874810897"><ele>422.6</ele><time>2026-04-04T10:46:54Z</time></trkpt><trkpt lat="42.727058848367314" lon="2.692543211471558"><ele>423.4</ele><time>2026-04-04T10:46:55Z</time></trkpt><trkpt lat="42.727021571684" lon="2.6924575379806974"><ele>424.2</ele><time>2026-04-04T10:46:56Z</time></trkpt><trkpt lat="42.72696489395176" lon="2.692316610778478"><ele>425.0</ele><time>2026-04-04T10:46:58.001Z</time></trkpt><trkpt lat="42.72692655269786" lon="2.6921665542641757"><ele>424.99999999999994</ele><time>2026-04-04T10:47:00.001Z</time></trkpt><trkpt lat="42.72690690089237" lon="2.69208084845031"><ele>425.0</ele><time>2026-04-04T10:47:01.001Z</time></trkpt><trkpt lat="42.72687966183154" lon="2.6920024696199616"><ele>425.0</ele><time>2026-04-04T10:47:02.001Z</time></trkpt><trkpt lat="42.72682029114529" lon="2.6918960472007005"><ele>425.0</ele><time>2026-04-04T10:47:04.001Z</time></trkpt><trkpt lat="42.72674762751395" lon="2.6918109437691897"><ele>424.99999999999994</ele><time>2026-04-04T10:47:06.001Z</time></trkpt><trkpt lat="42.72668305695095" lon="2.691741372041276"><ele>425.0</ele><time>2026-04-04T10:47:08.001Z</time></trkpt><trkpt lat="42.72661316389227" lon="2.691688649825133"><ele>421.49999999999994</ele><time>2026-04-04T10:47:10.001Z</time></trkpt><trkpt lat="42.72655933343577" lon="2.6916085708252635"><ele>418.0</ele><time>2026-04-04T10:47:12.001Z</time></trkpt><trkpt lat="42.72652631147693" lon="2.691525128886649"><ele>414.5</ele><time>2026-04-04T10:47:14.001Z</time></trkpt><trkpt lat="42.726521137909934" lon="2.691401748422239"><ele>411.0</ele><time>2026-04-04T10:48:11Z</time></trkpt><trkpt lat="42.7265345754917" lon="2.6912804699680453"><ele>407.49999999999994</ele><time>2026-04-04T10:48:13Z</time></trkpt><trkpt lat="42.726550033726234" lon="2.6911931542041585"><ele>404.0</ele><time>2026-04-04T10:48:14Z</time></trkpt><trkpt lat="42.72657417522612" lon="2.691083758050203"><ele>403.4</ele><time>2026-04-04T10:48:15Z</time></trkpt><trkpt lat="42.72658623540025" lon="2.6909753637978926"><ele>402.79999999999995</ele><time>2026-04-04T10:48:16Z</time></trkpt><trkpt lat="42.726609219767724" lon="2.690843914938404"><ele>402.20000000000005</ele><time>2026-04-04T10:48:17Z</time></trkpt><trkpt lat="42.72662978925419" lon="2.6907115013633254"><ele>401.6</ele><time>2026-04-04T10:48:18Z</time></trkpt><trkpt lat="42.726638044958634" lon="2.6905957498366173"><ele>401.0</ele><time>2026-04-04T10:48:19Z</time></trkpt><trkpt lat="42.72664156608478" lon="2.6904723374387394"><ele>401.0</ele><time>2026-04-04T10:48:20Z</time></trkpt><trkpt lat="42.72664314084022" lon="2.6903503160488005"><ele>401.0</ele><time>2026-04-04T10:48:21Z</time></trkpt><trkpt lat="42.72663853259858" lon="2.6902427266566997"><ele>401.0</ele><time>2026-04-04T10:48:22Z</time></trkpt><trkpt lat="42.72662178115897" lon="2.6900648129717375"><ele>401.0</ele><time>2026-04-04T10:48:24Z</time></trkpt><trkpt lat="42.72661242630419" lon="2.689943655115369"><ele>401.0</ele><time>2026-04-04T10:48:25Z</time></trkpt><trkpt lat="42.726593744238684" lon="2.6898272646917616"><ele>400.8333333333333</ele><time>2026-04-04T10:48:27Z</time></trkpt><trkpt lat="42.72658155039103" lon="2.6897412096362996"><ele>400.66666666666663</ele><time>2026-04-04T10:48:30Z</time></trkpt><trkpt lat="42.726591668987055" lon="2.689646721052462"><ele>400.5</ele><time>2026-04-04T10:48:33Z</time></trkpt><trkpt lat="42.72661363033304" lon="2.689558321337003"><ele>400.33333333333337</ele><time>2026-04-04T10:48:35Z</time></trkpt><trkpt lat="42.72663168417889" lon="2.6894525533315328"><ele>400.1666666666667</ele><time>2026-04-04T10:48:37Z</time></trkpt><trkpt lat="42.72668564788562" lon="2.6892737140979506"><ele>400.0</ele><time>2026-04-04T10:48:39Z</time></trkpt><trkpt lat="42.72671414645209" lon="2.6891815155841146"><ele>399.1666666666667</ele><time>2026-04-04T10:48:40Z</time></trkpt><trkpt lat="42.72674073569919" lon="2.689085671903797"><ele>398.33333333333337</ele><time>2026-04-04T10:48:41Z</time></trkpt><trkpt lat="42.726768602824734" lon="2.688998360756443"><ele>397.5</ele><time>2026-04-04T10:48:42Z</time></trkpt><trkpt lat="42.726788307209176" lon="2.6889113183397746"><ele>396.66666666666663</ele><time>2026-04-04T10:48:43Z</time></trkpt><trkpt lat="42.72683089582628" lon="2.688759239987608"><ele>395.8333333333333</ele><time>2026-04-04T10:48:45Z</time></trkpt><trkpt lat="42.72685427243924" lon="2.688656049887191"><ele>395.0</ele><time>2026-04-04T10:48:46Z</time></trkpt><trkpt lat="42.72687912090987" lon="2.6885722162033985"><ele>397.3333333333333</ele><time>2026-04-04T10:48:47Z</time></trkpt><trkpt lat="42.72689019812245" lon="2.688487674577707"><ele>399.66666666666663</ele><time>2026-04-04T10:48:48Z</time></trkpt><trkpt lat="42.726909639986" lon="2.688398191603233"><ele>402.0</ele><time>2026-04-04T10:48:49Z</time></trkpt><trkpt lat="42.72692535653425" lon="2.6883038988750356"><ele>404.33333333333337</ele><time>2026-04-04T10:48:50Z</time></trkpt><trkpt lat="42.726974290062664" lon="2.6881363770616047"><ele>406.6666666666667</ele><time>2026-04-04T10:48:52Z</time></trkpt><trkpt lat="42.72701543435379" lon="2.68804777013864"><ele>409.0</ele><time>2026-04-04T10:48:53Z</time></trkpt><trkpt lat="42.72705566169561" lon="2.6879545475952344"><ele>409.00000000000006</ele><time>2026-04-04T10:48:54Z</time></trkpt><trkpt lat="42.72708854923116" lon="2.6878720450861384"><ele>409.0</ele><time>2026-04-04T10:48:55Z</time></trkpt><trkpt lat="42.72711995592724" lon="2.6877793015301563"><ele>409.0</ele><time>2026-04-04T10:48:56Z</time></trkpt><trkpt lat="42.72713979295272" lon="2.687694724364216"><ele>409.0</ele><time>2026-04-04T10:48:57Z</time></trkpt><trkpt lat="42.727152945641244" lon="2.687572372339947"><ele>409.00000000000006</ele><time>2026-04-04T10:48:58Z</time></trkpt><trkpt lat="42.72718378824552" lon="2.687467635520223"><ele>409.0</ele><time>2026-04-04T10:48:59Z</time></trkpt><trkpt lat="42.72722974561874" lon="2.6873904586049866"><ele>405.79999999999995</ele><time>2026-04-04T10:49:00Z</time></trkpt><trkpt lat="42.72725989095344" lon="2.68729362074397"><ele>402.59999999999997</ele><time>2026-04-04T10:49:01Z</time></trkpt><trkpt lat="42.72727898522292" lon="2.687205949273322"><ele>399.4</ele><time>2026-04-04T10:49:02Z</time></trkpt><trkpt lat="42.72733436588627" lon="2.687044351803077"><ele>396.2</ele><time>2026-04-04T10:49:04Z</time></trkpt><trkpt lat="42.72735779996867" lon="2.686871544359806"><ele>393.0</ele><time>2026-04-04T10:49:06Z</time></trkpt><trkpt lat="42.72737611095995" lon="2.6867790468007455"><ele>389.5</ele><time>2026-04-04T10:49:07Z</time></trkpt><trkpt lat="42.72742487709988" lon="2.686626713497283"><ele>386.0</ele><time>2026-04-04T10:49:09Z</time></trkpt><trkpt lat="42.727511659818255" lon="2.686494259825941"><ele>382.5</ele><time>2026-04-04T10:49:11Z</time></trkpt><trkpt lat="42.72760275299422" lon="2.6862738171380185"><ele>379.0</ele><time>2026-04-04T10:49:13Z</time></trkpt><trkpt lat="42.72764528802438" lon="2.6861546713903137"><ele>377.66666666666663</ele><time>2026-04-04T10:49:14Z</time></trkpt><trkpt lat="42.72769092963272" lon="2.6860368434032815"><ele>376.3333333333333</ele><time>2026-04-04T10:49:15Z</time></trkpt><trkpt lat="42.72773726194535" lon="2.685932948648663"><ele>375.0</ele><time>2026-04-04T10:49:16Z</time></trkpt><trkpt lat="42.7277781337455" lon="2.6858331093763943"><ele>373.6666666666667</ele><time>2026-04-04T10:49:17Z</time></trkpt><trkpt lat="42.72780676017734" lon="2.6857392454173654"><ele>372.33333333333337</ele><time>2026-04-04T10:49:18Z</time></trkpt><trkpt lat="42.727843416641846" lon="2.685647587081605"><ele>371.0</ele><time>2026-04-04T10:49:19Z</time></trkpt><trkpt lat="42.72786232642764" lon="2.685540226009314"><ele>371.0</ele><time>2026-04-04T10:49:20Z</time></trkpt><trkpt lat="42.72787664434705" lon="2.685412547428105"><ele>371.0</ele><time>2026-04-04T10:49:21Z</time></trkpt><trkpt lat="42.72790276091522" lon="2.6853182105921936"><ele>371.0</ele><time>2026-04-04T10:49:22Z</time></trkpt><trkpt lat="42.72793762509344" lon="2.685234194319268"><ele>371.0</ele><time>2026-04-04T10:49:23Z</time></trkpt><trkpt lat="42.72797644078974" lon="2.6851606195020197"><ele>371.0</ele><time>2026-04-04T10:49:24Z</time></trkpt><trkpt lat="42.72802029224593" lon="2.685071314691105"><ele>371.0</ele><time>2026-04-04T10:49:25Z</time></trkpt><trkpt lat="42.72806986447469" lon="2.684984236785113"><ele>369.6666666666667</ele><time>2026-04-04T10:49:26Z</time></trkpt><trkpt lat="42.72812308837384" lon="2.684906770898673"><ele>368.33333333333337</ele><time>2026-04-04T10:49:27Z</time></trkpt><trkpt lat="42.72817256351752" lon="2.684850951241723"><ele>367.0</ele><time>2026-04-04T10:49:28Z</time></trkpt><trkpt lat="42.72823759180427" lon="2.684766317950678"><ele>365.6666666666667</ele><time>2026-04-04T10:49:30Z</time></trkpt><trkpt lat="42.7283273923875" lon="2.684635690209853"><ele>364.3333333333333</ele><time>2026-04-04T10:49:50Z</time></trkpt><trkpt lat="42.72828978254579" lon="2.6845526089670013"><ele>363.0</ele><time>2026-04-04T10:49:52Z</time></trkpt><trkpt lat="42.72825512844924" lon="2.6844781875661816"><ele>360.0</ele><time>2026-04-04T10:49:54Z</time></trkpt><trkpt lat="42.72820998942784" lon="2.6843845452231903"><ele>357.0</ele><time>2026-04-04T10:49:59Z</time></trkpt><trkpt lat="42.72816643025211" lon="2.6842962336233986"><ele>354.0</ele><time>2026-04-04T10:50:03Z</time></trkpt><trkpt lat="42.72813873490618" lon="2.68418790367544"><ele>351.0</ele><time>2026-04-04T10:50:06Z</time></trkpt><trkpt lat="42.72809321881421" lon="2.6840825776977333"><ele>348.0</ele><time>2026-04-04T10:50:10Z</time></trkpt><trkpt lat="42.728044441339186" lon="2.683981071292621"><ele>345.0</ele><time>2026-04-04T10:50:13Z</time></trkpt><trkpt lat="42.728012018494766" lon="2.6838715146688203"><ele>345.0</ele><time>2026-04-04T10:50:16Z</time></trkpt><trkpt lat="42.72797162876392" lon="2.6837820164230455"><ele>345.0</ele><time>2026-04-04T10:50:19Z</time></trkpt><trkpt lat="42.72797529687593" lon="2.683662899130727"><ele>345.0</ele><time>2026-04-04T10:51:44Z</time></trkpt><trkpt lat="42.72797958837136" lon="2.683558584156204"><ele>345.0</ele><time>2026-04-04T10:51:48Z</time></trkpt><trkpt lat="42.72795811205128" lon="2.683459157868267"><ele>345.0</ele><time>2026-04-04T10:51:52Z</time></trkpt><trkpt lat="42.72792084065688" lon="2.6833615569142837"><ele>345.0</ele><time>2026-04-04T10:51:57Z</time></trkpt><trkpt lat="42.727968837722464" lon="2.68329541778931"><ele>342.42857142857144</ele><time>2026-04-04T10:51:59Z</time></trkpt><trkpt lat="42.7280384936922" lon="2.683252358102116"><ele>339.85714285714283</ele><time>2026-04-04T10:52:00Z</time></trkpt><trkpt lat="42.728107672423626" lon="2.683202780729696"><ele>337.2857142857143</ele><time>2026-04-04T10:52:02Z</time></trkpt><trkpt lat="42.72814971949021" lon="2.683122656516777"><ele>334.7142857142857</ele><time>2026-04-04T10:52:04Z</time></trkpt><trkpt lat="42.72810701376457" lon="2.6830579287273446"><ele>332.14285714285717</ele><time>2026-04-04T10:52:06Z</time></trkpt><trkpt lat="42.7280412726217" lon="2.683043437751735"><ele>329.57142857142856</ele><time>2026-04-04T10:52:08Z</time></trkpt><trkpt lat="42.72795885401745" lon="2.683098323655383"><ele>327.0</ele><time>2026-04-04T10:52:11Z</time></trkpt><trkpt lat="42.727878135025705" lon="2.683056671266214"><ele>327.0</ele><time>2026-04-04T10:52:13Z</time></trkpt><trkpt lat="42.727813998079384" lon="2.683008921401328"><ele>327.0</ele><time>2026-04-04T10:52:15Z</time></trkpt><trkpt lat="42.7277509669532" lon="2.682961891467509"><ele>327.0</ele><time>2026-04-04T10:52:18Z</time></trkpt><trkpt lat="42.727701197854984" lon="2.6828669988641822"><ele>327.0</ele><time>2026-04-04T10:52:21Z</time></trkpt><trkpt lat="42.72768224245157" lon="2.682785067145165"><ele>327.0</ele><time>2026-04-04T10:52:38Z</time></trkpt><trkpt lat="42.72763543978967" lon="2.6826438081014365"><ele>327.0</ele><time>2026-04-04T10:52:40Z</time></trkpt><trkpt lat="42.72759879702791" lon="2.682565657538934"><ele>325.40000000000003</ele><time>2026-04-04T10:52:41Z</time></trkpt><trkpt lat="42.72756142723646" lon="2.682490102951746"><ele>323.8</ele><time>2026-04-04T10:52:42Z</time></trkpt><trkpt lat="42.72751687743699" lon="2.682404523950805"><ele>322.2</ele><time>2026-04-04T10:52:43Z</time></trkpt><trkpt lat="42.72746083776795" lon="2.6823047223333067"><ele>320.6</ele><time>2026-04-04T10:52:44Z</time></trkpt><trkpt lat="42.72742039356757" lon="2.6822322613696072"><ele>319.0</ele><time>2026-04-04T10:52:45Z</time></trkpt><trkpt lat="42.727331192667116" lon="2.682065234506229"><ele>319.0</ele><time>2026-04-04T10:52:47Z</time></trkpt><trkpt lat="42.72728326827942" lon="2.6819719900822467"><ele>319.0</ele><time>2026-04-04T10:52:48Z</time></trkpt><trkpt lat="42.72724066202232" lon="2.6818819250534793"><ele>319.0</ele><time>2026-04-04T10:52:49Z</time></trkpt><trkpt lat="42.72719154727945" lon="2.681778801586378"><ele>319.0</ele><time>2026-04-04T10:52:50Z</time></trkpt><trkpt lat="42.72714527895251" lon="2.681682294716978"><ele>319.0</ele><time>2026-04-04T10:52:51Z</time></trkpt><trkpt lat="42.7270356215471" lon="2.6815174557615626"><ele>318.4</ele><time>2026-04-04T10:52:53Z</time></trkpt><trkpt lat="42.72695170792424" lon="2.6814152804324944"><ele>317.79999999999995</ele><time>2026-04-04T10:52:55Z</time></trkpt><trkpt lat="42.7268979058981" lon="2.681361032174191"><ele>317.20000000000005</ele><time>2026-04-04T10:52:56Z</time></trkpt><trkpt lat="42.72683634018852" lon="2.681286299244559"><ele>316.6</ele><time>2026-04-04T10:52:57Z</time></trkpt><trkpt lat="42.726730494160876" lon="2.681155452817073"><ele>316.0</ele><time>2026-04-04T10:52:58Z</time></trkpt><trkpt lat="42.72667543119034" lon="2.6810298020718593"><ele>321.5</ele><time>2026-04-04T10:52:59Z</time></trkpt><trkpt lat="42.726654385032745" lon="2.6809415327442045"><ele>327.0</ele><time>2026-04-04T10:53:00Z</time></trkpt><trkpt lat="42.72704842524994" lon="2.6803327568319424"><ele>326.6</ele><time>2026-04-04T10:53:02Z</time></trkpt><trkpt lat="42.72704254702545" lon="2.680211073631284"><ele>326.20000000000005</ele><time>2026-04-04T10:53:06Z</time></trkpt><trkpt lat="42.72703825661782" lon="2.6800573761592457"><ele>325.8</ele><time>2026-04-04T10:53:08Z</time></trkpt><trkpt lat="42.72699267024423" lon="2.679918362452691"><ele>325.4</ele><time>2026-04-04T10:53:10Z</time></trkpt><trkpt lat="42.72692768371509" lon="2.6798099018391306"><ele>325.0</ele><time>2026-04-04T10:53:12Z</time></trkpt><trkpt lat="42.726862147410856" lon="2.67970318163013"><ele>326.6</ele><time>2026-04-04T10:53:14Z</time></trkpt><trkpt lat="42.726820953640576" lon="2.6796188645869488"><ele>328.2</ele><time>2026-04-04T10:53:16Z</time></trkpt><trkpt lat="42.72677747115457" lon="2.6794990476457192"><ele>329.79999999999995</ele><time>2026-04-04T10:53:18Z</time></trkpt><trkpt lat="42.72675118803371" lon="2.6794138497372684"><ele>331.4</ele><time>2026-04-04T10:53:19Z</time></trkpt><trkpt lat="42.72670510257822" lon="2.679268179036014"><ele>333.0</ele><time>2026-04-04T10:53:21Z</time></trkpt><trkpt lat="42.72667561385383" lon="2.679116277833158"><ele>334.1666666666667</ele><time>2026-04-04T10:53:23Z</time></trkpt><trkpt lat="42.7266597546532" lon="2.679018669478285"><ele>335.3333333333333</ele><time>2026-04-04T10:53:24Z</time></trkpt><trkpt lat="42.72664890977781" lon="2.678926839282214"><ele>336.5</ele><time>2026-04-04T10:53:25Z</time></trkpt><trkpt lat="42.72663575424152" lon="2.6788196786238707"><ele>337.66666666666663</ele><time>2026-04-04T10:53:26Z</time></trkpt><trkpt lat="42.726633622971235" lon="2.6787303655239065"><ele>338.8333333333333</ele><time>2026-04-04T10:53:28Z</time></trkpt><trkpt lat="42.72668845664665" lon="2.6785882940044954"><ele>340.0</ele><time>2026-04-04T10:53:30Z</time></trkpt><trkpt lat="42.72673101690966" lon="2.6785239341363747"><ele>340.8</ele><time>2026-04-04T10:53:31Z</time></trkpt><trkpt lat="42.72674122013209" lon="2.678301717325563"><ele>341.6</ele><time>2026-04-04T10:53:34Z</time></trkpt><trkpt lat="42.72672585289993" lon="2.678210601961214"><ele>342.4</ele><time>2026-04-04T10:53:36Z</time></trkpt><trkpt lat="42.72669081128559" lon="2.678120511834395"><ele>343.2</ele><time>2026-04-04T10:53:38Z</time></trkpt><trkpt lat="42.72669779509138" lon="2.678222171381335"><ele>344.0</ele><time>2026-04-04T10:55:17Z</time></trkpt><trkpt lat="42.72672534755833" lon="2.678323044184401"><ele>344.0</ele><time>2026-04-04T10:55:20Z</time></trkpt><trkpt lat="42.72674511506132" lon="2.6784311423028093"><ele>344.0</ele><time>2026-04-04T10:55:22.001Z</time></trkpt><trkpt lat="42.72673979162871" lon="2.678541757490603"><ele>344.0</ele><time>2026-04-04T10:55:24.001Z</time></trkpt><trkpt lat="42.72666674967778" lon="2.678681609178803"><ele>344.0</ele><time>2026-04-04T10:55:26.001Z</time></trkpt><trkpt lat="42.726634032031015" lon="2.6787636559523422"><ele>344.0</ele><time>2026-04-04T10:55:27.001Z</time></trkpt><trkpt lat="42.72664604528757" lon="2.6789177676449034"><ele>343.2</ele><time>2026-04-04T10:55:29.001Z</time></trkpt><trkpt lat="42.726685157091715" lon="2.679074023137693"><ele>342.4</ele><time>2026-04-04T10:55:31.001Z</time></trkpt><trkpt lat="42.726695818297216" lon="2.679183870130344"><ele>341.6</ele><time>2026-04-04T10:55:32.001Z</time></trkpt><trkpt lat="42.72674018515302" lon="2.679296735481551"><ele>340.8</ele><time>2026-04-04T10:55:33.001Z</time></trkpt><trkpt lat="42.72678739549824" lon="2.6794598498054776"><ele>340.0</ele><time>2026-04-04T10:55:34.001Z</time></trkpt><trkpt lat="42.72685188245749" lon="2.6796473266319545"><ele>337.0</ele><time>2026-04-04T10:55:35.001Z</time></trkpt><trkpt lat="42.726916875420756" lon="2.679844439890717"><ele>334.0</ele><time>2026-04-04T10:55:36Z</time></trkpt><trkpt lat="42.72700548108975" lon="2.680022526503489"><ele>331.0</ele><time>2026-04-04T10:55:37Z</time></trkpt><trkpt lat="42.727074855213644" lon="2.6801715062615754"><ele>328.0</ele><time>2026-04-04T10:55:38Z</time></trkpt><trkpt lat="42.7270647491854" lon="2.680278448828135"><ele>328.0</ele><time>2026-04-04T10:55:39Z</time></trkpt><trkpt lat="42.727059610866824" lon="2.6804172414387173"><ele>328.0</ele><time>2026-04-04T10:55:40Z</time></trkpt><trkpt lat="42.727074232628816" lon="2.6805551204815172"><ele>328.0</ele><time>2026-04-04T10:55:41Z</time></trkpt><trkpt lat="42.72711117548776" lon="2.680664253537214"><ele>328.0</ele><time>2026-04-04T10:55:42Z</time></trkpt><trkpt lat="42.72717570959815" lon="2.6808184438538647"><ele>328.0</ele><time>2026-04-04T10:55:43Z</time></trkpt><trkpt lat="42.72723137943032" lon="2.6809726932831914"><ele>327.79999999999995</ele><time>2026-04-04T10:55:44Z</time></trkpt><trkpt lat="42.72728510953894" lon="2.681107434334564"><ele>327.6</ele><time>2026-04-04T10:55:45Z</time></trkpt><trkpt lat="42.72731751280648" lon="2.681222545680087"><ele>327.4</ele><time>2026-04-04T10:55:46Z</time></trkpt><trkpt lat="42.72734888334035" lon="2.6813376419222132"><ele>327.20000000000005</ele><time>2026-04-04T10:55:47Z</time></trkpt><trkpt lat="42.7273813875315" lon="2.681460297444495"><ele>327.0</ele><time>2026-04-04T10:55:48Z</time></trkpt><trkpt lat="42.72740783823455" lon="2.681572521679602"><ele>327.0</ele><time>2026-04-04T10:55:49Z</time></trkpt><trkpt lat="42.72743153793509" lon="2.6816803385627725"><ele>327.0</ele><time>2026-04-04T10:55:50Z</time></trkpt><trkpt lat="42.72744638463889" lon="2.681790105682884"><ele>327.0</ele><time>2026-04-04T10:55:51Z</time></trkpt><trkpt lat="42.72746173284515" lon="2.681911131114712"><ele>327.0</ele><time>2026-04-04T10:55:52Z</time></trkpt><trkpt lat="42.72746598738663" lon="2.682037390876335"><ele>327.0</ele><time>2026-04-04T10:55:53Z</time></trkpt><trkpt lat="42.727465771459926" lon="2.682151439516462"><ele>327.0</ele><time>2026-04-04T10:55:54Z</time></trkpt><trkpt lat="42.72747430336424" lon="2.682249392602796"><ele>325.0</ele><time>2026-04-04T10:55:55Z</time></trkpt><trkpt lat="42.72752436269838" lon="2.682359316410191"><ele>323.0</ele><time>2026-04-04T10:55:57Z</time></trkpt><trkpt lat="42.72749190103048" lon="2.6824720760701934"><ele>321.0</ele><time>2026-04-04T10:55:58Z</time></trkpt><trkpt lat="42.727586493461565" lon="2.6826637969303424"><ele>319.0</ele><time>2026-04-04T10:56:00Z</time></trkpt><trkpt lat="42.72764755169101" lon="2.6827947381283974"><ele>318.75</ele><time>2026-04-04T10:56:01Z</time></trkpt><trkpt lat="42.727694656200654" lon="2.6828990245947533"><ele>318.5</ele><time>2026-04-04T10:56:02Z</time></trkpt><trkpt lat="42.72771611284857" lon="2.6829861417367313"><ele>318.25</ele><time>2026-04-04T10:56:03Z</time></trkpt><trkpt lat="42.727903706917225" lon="2.682854046186432"><ele>318.0</ele><time>2026-04-04T10:56:07Z</time></trkpt><trkpt lat="42.72795526859315" lon="2.6827587377432374"><ele>317.4</ele><time>2026-04-04T10:56:08Z</time></trkpt><trkpt lat="42.72797264277763" lon="2.6826438673632365"><ele>316.8</ele><time>2026-04-04T10:56:09Z</time></trkpt><trkpt lat="42.72797288497676" lon="2.682500489316814"><ele>316.2</ele><time>2026-04-04T10:56:10Z</time></trkpt><trkpt lat="42.727962170560524" lon="2.6823602411145178"><ele>315.6</ele><time>2026-04-04T10:56:11Z</time></trkpt><trkpt lat="42.72795258956122" lon="2.6822266756173443"><ele>315.0</ele><time>2026-04-04T10:56:12Z</time></trkpt><trkpt lat="42.727972440706516" lon="2.6821285341666554"><ele>315.0</ele><time>2026-04-04T10:56:13Z</time></trkpt><trkpt lat="42.72805763079906" lon="2.682023124634175"><ele>315.0</ele><time>2026-04-04T10:56:15Z</time></trkpt><trkpt lat="42.728122389101664" lon="2.6819891742579607"><ele>315.0</ele><time>2026-04-04T10:56:16Z</time></trkpt><trkpt lat="42.7282380704102" lon="2.6819995110863015"><ele>315.0</ele><time>2026-04-04T10:56:18Z</time></trkpt><trkpt lat="42.72834368640594" lon="2.6820840292278967"><ele>315.0</ele><time>2026-04-04T10:56:20Z</time></trkpt><trkpt lat="42.72841462242452" lon="2.6821218887230787"><ele>315.0</ele><time>2026-04-04T10:56:21Z</time></trkpt><trkpt lat="42.728481839555165" lon="2.6821566313057215"><ele>315.0</ele><time>2026-04-04T10:56:22Z</time></trkpt><trkpt lat="42.72855057470852" lon="2.6821897065359144"><ele>315.0</ele><time>2026-04-04T10:56:23Z</time></trkpt><trkpt lat="42.72861340594954" lon="2.682219047984266"><ele>315.0</ele><time>2026-04-04T10:56:24Z</time></trkpt><trkpt lat="42.728685613238575" lon="2.6822547045758864"><ele>315.0</ele><time>2026-04-04T10:56:25Z</time></trkpt><trkpt lat="42.72874987686439" lon="2.6822854100744418"><ele>315.0</ele><time>2026-04-04T10:56:26Z</time></trkpt><trkpt lat="42.72881236981477" lon="2.6823260530501725"><ele>315.0</ele><time>2026-04-04T10:56:27Z</time></trkpt><trkpt lat="42.72886998496212" lon="2.682369239088648"><ele>310.4</ele><time>2026-04-04T10:56:28Z</time></trkpt><trkpt lat="42.72898208847615" lon="2.6824648423572865"><ele>305.8</ele><time>2026-04-04T10:56:30Z</time></trkpt><trkpt lat="42.72903445373949" lon="2.6825279274176514"><ele>301.2</ele><time>2026-04-04T10:56:31Z</time></trkpt><trkpt lat="42.72909957967882" lon="2.6825989843140543"><ele>296.6</ele><time>2026-04-04T10:56:32Z</time></trkpt><trkpt lat="42.7291606514646" lon="2.6826715538730066"><ele>292.0</ele><time>2026-04-04T10:56:33Z</time></trkpt><trkpt lat="42.72922749551088" lon="2.682744188946345"><ele>291.0</ele><time>2026-04-04T10:56:34Z</time></trkpt><trkpt lat="42.72928403685745" lon="2.682821315067545"><ele>290.0</ele><time>2026-04-04T10:56:35Z</time></trkpt><trkpt lat="42.72935763381539" lon="2.682887857601097"><ele>289.0</ele><time>2026-04-04T10:56:36Z</time></trkpt><trkpt lat="42.72942730213016" lon="2.6829198570317168"><ele>288.0</ele><time>2026-04-04T10:56:37Z</time></trkpt><trkpt lat="42.72949817127994" lon="2.682913391787764"><ele>287.0</ele><time>2026-04-04T10:56:38Z</time></trkpt><trkpt lat="42.72957370150761" lon="2.6828911805188986"><ele>286.0</ele><time>2026-04-04T10:56:39Z</time></trkpt><trkpt lat="42.72964767567767" lon="2.682870185157606"><ele>286.0</ele><time>2026-04-04T10:56:40Z</time></trkpt><trkpt lat="42.72972080331199" lon="2.6828490726665506"><ele>286.0</ele><time>2026-04-04T10:56:41Z</time></trkpt><trkpt lat="42.72979289434698" lon="2.6828307440901766"><ele>286.0</ele><time>2026-04-04T10:56:42Z</time></trkpt><trkpt lat="42.72985840236973" lon="2.6828236132819083"><ele>286.0</ele><time>2026-04-04T10:56:43Z</time></trkpt><trkpt lat="42.72992176482249" lon="2.682802775425552"><ele>286.0</ele><time>2026-04-04T10:56:44Z</time></trkpt><trkpt lat="42.73004314777741" lon="2.6827950864782575"><ele>286.0</ele><time>2026-04-04T10:56:46Z</time></trkpt><trkpt lat="42.7301572597875" lon="2.6828207075537396"><ele>281.6</ele><time>2026-04-04T10:56:48Z</time></trkpt><trkpt lat="42.73026876295975" lon="2.6828904530384197"><ele>277.20000000000005</ele><time>2026-04-04T10:56:50Z</time></trkpt><trkpt lat="42.73037138636678" lon="2.682988078651999"><ele>272.79999999999995</ele><time>2026-04-04T10:56:52Z</time></trkpt><trkpt lat="42.730466199371754" lon="2.6830639651835186"><ele>268.4</ele><time>2026-04-04T10:56:54Z</time></trkpt><trkpt lat="42.730513585716864" lon="2.6831653239573585"><ele>264.0</ele><time>2026-04-04T10:56:57Z</time></trkpt><trkpt lat="42.73060465416527" lon="2.6832539860479465"><ele>264.0</ele><time>2026-04-04T10:56:59Z</time></trkpt><trkpt lat="42.73070978459208" lon="2.6832862541357985"><ele>264.0</ele><time>2026-04-04T10:57:01Z</time></trkpt><trkpt lat="42.73082308151339" lon="2.6832529630101716"><ele>264.0</ele><time>2026-04-04T10:57:03Z</time></trkpt><trkpt lat="42.73091177475768" lon="2.683193072040014"><ele>264.0</ele><time>2026-04-04T10:57:05Z</time></trkpt><trkpt lat="42.73099927076761" lon="2.6831292663131707"><ele>264.0</ele><time>2026-04-04T10:57:07Z</time></trkpt><trkpt lat="42.73109187503615" lon="2.683015507233904"><ele>260.2</ele><time>2026-04-04T10:57:09Z</time></trkpt><trkpt lat="42.731198362875666" lon="2.682952878999966"><ele>256.4</ele><time>2026-04-04T10:57:11Z</time></trkpt><trkpt lat="42.731263118147986" lon="2.6828367414807"><ele>252.6</ele><time>2026-04-04T10:57:13Z</time></trkpt><trkpt lat="42.731308281135654" lon="2.6827623028388357"><ele>248.8</ele><time>2026-04-04T10:57:16Z</time></trkpt><trkpt lat="42.73137658221895" lon="2.682677894368746"><ele>245.0</ele><time>2026-04-04T10:57:38.001Z</time></trkpt><trkpt lat="42.73142787123189" lon="2.682615962930725"><ele>245.0</ele><time>2026-04-04T10:57:39.001Z</time></trkpt><trkpt lat="42.73149185585496" lon="2.682543031295386"><ele>245.0</ele><time>2026-04-04T10:57:40.001Z</time></trkpt><trkpt lat="42.73157218437524" lon="2.682429447784938"><ele>245.0</ele><time>2026-04-04T10:57:41.001Z</time></trkpt><trkpt lat="42.73166965241018" lon="2.6823376149799043"><ele>245.0</ele><time>2026-04-04T10:57:42.001Z</time></trkpt><trkpt lat="42.73175704550449" lon="2.6822454272654617"><ele>245.0</ele><time>2026-04-04T10:57:43.001Z</time></trkpt><trkpt lat="42.73183288973325" lon="2.68214834258805"><ele>243.8</ele><time>2026-04-04T10:57:44.001Z</time></trkpt><trkpt lat="42.73191126454957" lon="2.6820592356411805"><ele>242.6</ele><time>2026-04-04T10:57:45.001Z</time></trkpt><trkpt lat="42.731992405327475" lon="2.6819713586447986"><ele>241.39999999999998</ele><time>2026-04-04T10:57:46.001Z</time></trkpt><trkpt lat="42.73207922239401" lon="2.681918414044552"><ele>240.2</ele><time>2026-04-04T10:57:47.001Z</time></trkpt><trkpt lat="42.73219400714708" lon="2.6818064162832203"><ele>239.0</ele><time>2026-04-04T10:57:48.001Z</time></trkpt><trkpt lat="42.732336694765245" lon="2.681705339602909"><ele>239.0</ele><time>2026-04-04T10:57:49.001Z</time></trkpt><trkpt lat="42.73240897138484" lon="2.6816071735585902"><ele>238.99999999999997</ele><time>2026-04-04T10:57:50.001Z</time></trkpt><trkpt lat="42.73249463670795" lon="2.681571191625986"><ele>238.99999999999997</ele><time>2026-04-04T10:57:51.001Z</time></trkpt><trkpt lat="42.73261380391838" lon="2.68153570476621"><ele>239.0</ele><time>2026-04-04T10:57:52.001Z</time></trkpt><trkpt lat="42.7327357704222" lon="2.6815047243139043"><ele>239.0</ele><time>2026-04-04T10:57:53.001Z</time></trkpt><trkpt lat="42.73287368305595" lon="2.6814514034408385"><ele>237.25</ele><time>2026-04-04T10:57:54Z</time></trkpt><trkpt lat="42.73302262456538" lon="2.681360759482326"><ele>235.5</ele><time>2026-04-04T10:57:55Z</time></trkpt><trkpt lat="42.7331419993193" lon="2.681273134610306"><ele>233.75</ele><time>2026-04-04T10:57:56Z</time></trkpt><trkpt lat="42.7332497200048" lon="2.6811803099692253"><ele>232.0</ele><time>2026-04-04T10:57:57Z</time></trkpt><trkpt lat="42.73335770491764" lon="2.6810692478390727"><ele>232.0</ele><time>2026-04-04T10:57:58Z</time></trkpt><trkpt lat="42.73344162019034" lon="2.680945576550916"><ele>232.0</ele><time>2026-04-04T10:57:59Z</time></trkpt><trkpt lat="42.73354773267775" lon="2.6808520928672657"><ele>232.0</ele><time>2026-04-04T10:58:00Z</time></trkpt><trkpt lat="42.73363146633089" lon="2.6807760729729266"><ele>232.0</ele><time>2026-04-04T10:58:01Z</time></trkpt><trkpt lat="42.73371968524464" lon="2.680700092187291"><ele>229.25</ele><time>2026-04-04T10:58:02Z</time></trkpt><trkpt lat="42.73383171673629" lon="2.6806460419048292"><ele>226.5</ele><time>2026-04-04T10:58:03Z</time></trkpt><trkpt lat="42.73397026809421" lon="2.680592657851544"><ele>223.75</ele><time>2026-04-04T10:58:04Z</time></trkpt><trkpt lat="42.73409816601054" lon="2.6805522066049248"><ele>221.0</ele><time>2026-04-04T10:58:05Z</time></trkpt><trkpt lat="42.73421812604964" lon="2.6805398674768104"><ele>221.0</ele><time>2026-04-04T10:58:06Z</time></trkpt><trkpt lat="42.734347555580584" lon="2.680512715090327"><ele>221.0</ele><time>2026-04-04T10:58:07Z</time></trkpt><trkpt lat="42.7344607647842" lon="2.6804486239993324"><ele>221.0</ele><time>2026-04-04T10:58:08Z</time></trkpt><trkpt lat="42.73457234042544" lon="2.6804075050214995"><ele>221.0</ele><time>2026-04-04T10:58:09Z</time></trkpt><trkpt lat="42.73467987462068" lon="2.6803874596320463"><ele>219.8</ele><time>2026-04-04T10:58:10Z</time></trkpt><trkpt lat="42.73477293251488" lon="2.6803996993145347"><ele>218.60000000000002</ele><time>2026-04-04T10:58:11Z</time></trkpt><trkpt lat="42.73488300789444" lon="2.6804323050607683"><ele>217.4</ele><time>2026-04-04T10:58:12Z</time></trkpt><trkpt lat="42.7349664624555" lon="2.6804730233266487"><ele>216.2</ele><time>2026-04-04T10:58:13Z</time></trkpt><trkpt lat="42.73502781429517" lon="2.6805323681198967"><ele>215.0</ele><time>2026-04-04T10:58:14Z</time></trkpt><trkpt lat="42.735094576067546" lon="2.680636188015534"><ele>215.0</ele><time>2026-04-04T10:58:15Z</time></trkpt><trkpt lat="42.73517637665254" lon="2.680711373457049"><ele>215.0</ele><time>2026-04-04T10:58:16Z</time></trkpt><trkpt lat="42.73525631308944" lon="2.680740803573257"><ele>215.0</ele><time>2026-04-04T10:58:17Z</time></trkpt><trkpt lat="42.73537485751061" lon="2.6807754180557613"><ele>215.0</ele><time>2026-04-04T10:58:18Z</time></trkpt><trkpt lat="42.73545426801235" lon="2.680702492373221"><ele>215.0</ele><time>2026-04-04T10:58:19Z</time></trkpt><trkpt lat="42.73554568944111" lon="2.680662510693185"><ele>212.75</ele><time>2026-04-04T10:58:20Z</time></trkpt><trkpt lat="42.735649811195096" lon="2.680594904223459"><ele>210.5</ele><time>2026-04-04T10:58:21Z</time></trkpt><trkpt lat="42.735788263319115" lon="2.6805380177255276"><ele>208.25</ele><time>2026-04-04T10:58:22Z</time></trkpt><trkpt lat="42.73593248012724" lon="2.6804618788011214"><ele>206.0</ele><time>2026-04-04T10:58:23Z</time></trkpt><trkpt lat="42.736066092695665" lon="2.6803907588005274"><ele>204.75</ele><time>2026-04-04T10:58:24Z</time></trkpt><trkpt lat="42.73619183070321" lon="2.6803255110771156"><ele>203.5</ele><time>2026-04-04T10:58:25Z</time></trkpt><trkpt lat="42.736307698963344" lon="2.6802696146008484"><ele>202.25</ele><time>2026-04-04T10:58:26Z</time></trkpt><trkpt lat="42.7364142047992" lon="2.6802327491215974"><ele>201.0</ele><time>2026-04-04T10:58:27Z</time></trkpt><trkpt lat="42.73651336090926" lon="2.680218700003935"><ele>200.66666666666666</ele><time>2026-04-04T10:58:28Z</time></trkpt><trkpt lat="42.73660529781125" lon="2.6801874482018473"><ele>200.33333333333331</ele><time>2026-04-04T10:58:29Z</time></trkpt><trkpt lat="42.73667723749027" lon="2.6801272264990756"><ele>200.0</ele><time>2026-04-04T10:58:30Z</time></trkpt><trkpt lat="42.73674193987993" lon="2.6800444841775404"><ele>199.66666666666666</ele><time>2026-04-04T10:58:31Z</time></trkpt><trkpt lat="42.73681010868045" lon="2.6799597515403275"><ele>199.33333333333331</ele><time>2026-04-04T10:58:32Z</time></trkpt><trkpt lat="42.73687882741002" lon="2.6798886728782865"><ele>199.0</ele><time>2026-04-04T10:58:33Z</time></trkpt><trkpt lat="42.73695993746728" lon="2.6798139033725166"><ele>199.0</ele><time>2026-04-04T10:58:34Z</time></trkpt><trkpt lat="42.73704934222246" lon="2.679733863101204"><ele>199.0</ele><time>2026-04-04T10:58:35Z</time></trkpt><trkpt lat="42.73714309697081" lon="2.6796440854225803"><ele>199.0</ele><time>2026-04-04T10:58:36Z</time></trkpt><trkpt lat="42.73724296361295" lon="2.679577575736731"><ele>199.0</ele><time>2026-04-04T10:58:37Z</time></trkpt><trkpt lat="42.73738214892769" lon="2.679455230488321"><ele>200.39999999999998</ele><time>2026-04-04T10:58:38Z</time></trkpt><trkpt lat="42.73745361379223" lon="2.6793703422961688"><ele>201.8</ele><time>2026-04-04T10:58:39Z</time></trkpt><trkpt lat="42.737528534545675" lon="2.6792924998198795"><ele>203.2</ele><time>2026-04-04T10:59:13Z</time></trkpt><trkpt lat="42.737588196776215" lon="2.6792179201798803"><ele>204.60000000000002</ele><time>2026-04-04T10:59:14Z</time></trkpt><trkpt lat="42.737564454310416" lon="2.679025912811775"><ele>206.0</ele><time>2026-04-04T10:59:15Z</time></trkpt><trkpt lat="42.73763385653996" lon="2.678899369832953"><ele>205.60000000000002</ele><time>2026-04-04T10:59:16Z</time></trkpt><trkpt lat="42.737731093398324" lon="2.6787570490254957"><ele>205.2</ele><time>2026-04-04T10:59:17Z</time></trkpt><trkpt lat="42.737800510754965" lon="2.678663971545511"><ele>204.8</ele><time>2026-04-04T10:59:18Z</time></trkpt><trkpt lat="42.73786909895728" lon="2.678562219228569"><ele>204.39999999999998</ele><time>2026-04-04T10:59:19Z</time></trkpt><trkpt lat="42.737920479262726" lon="2.6784632911456376"><ele>204.0</ele><time>2026-04-04T10:59:20Z</time></trkpt><trkpt lat="42.738003837401386" lon="2.6783358175445717"><ele>204.0</ele><time>2026-04-04T10:59:21Z</time></trkpt><trkpt lat="42.7380511137958" lon="2.6782151979821314"><ele>204.0</ele><time>2026-04-04T10:59:22Z</time></trkpt><trkpt lat="42.73808764117519" lon="2.6781105141440404"><ele>204.0</ele><time>2026-04-04T10:59:23Z</time></trkpt><trkpt lat="42.73810535336277" lon="2.6780268330124657"><ele>204.0</ele><time>2026-04-04T10:59:24Z</time></trkpt><trkpt lat="42.73814230995887" lon="2.677876091867135"><ele>204.0</ele><time>2026-04-04T10:59:26Z</time></trkpt><trkpt lat="42.73820818091049" lon="2.677794148798027"><ele>205.0</ele><time>2026-04-04T10:59:29Z</time></trkpt><trkpt lat="42.73826232494088" lon="2.6777217218916327"><ele>206.0</ele><time>2026-04-04T10:59:31Z</time></trkpt><trkpt lat="42.73833471107472" lon="2.6776059062616953"><ele>207.0</ele><time>2026-04-04T10:59:35Z</time></trkpt><trkpt lat="42.73840077499794" lon="2.677504764238099"><ele>208.0</ele><time>2026-04-04T10:59:36Z</time></trkpt><trkpt lat="42.738478270539886" lon="2.6773883964864917"><ele>209.0</ele><time>2026-04-04T10:59:37Z</time></trkpt><trkpt lat="42.738553175345324" lon="2.6772791824036126"><ele>207.66666666666669</ele><time>2026-04-04T10:59:38Z</time></trkpt><trkpt lat="42.73860900477296" lon="2.6771982944383916"><ele>206.33333333333334</ele><time>2026-04-04T10:59:39Z</time></trkpt><trkpt lat="42.738655403842124" lon="2.677134445218901"><ele>205.0</ele><time>2026-04-04T10:59:40Z</time></trkpt><trkpt lat="42.7387230392077" lon="2.677051279254937"><ele>203.66666666666669</ele><time>2026-04-04T10:59:42Z</time></trkpt><trkpt lat="42.738766914328316" lon="2.676980578543976"><ele>202.33333333333334</ele><time>2026-04-04T10:59:43Z</time></trkpt><trkpt lat="42.73884019582403" lon="2.676865449830668"><ele>201.0</ele><time>2026-04-04T10:59:45Z</time></trkpt><trkpt lat="42.73891810991751" lon="2.676750194099716"><ele>201.0</ele><time>2026-04-04T10:59:47Z</time></trkpt><trkpt lat="42.7390032790718" lon="2.6766319437725254"><ele>201.0</ele><time>2026-04-04T10:59:49Z</time></trkpt><trkpt lat="42.73905492100402" lon="2.6765386198786767"><ele>201.0</ele><time>2026-04-04T10:59:51Z</time></trkpt><trkpt lat="42.73912658892385" lon="2.6765145576063576"><ele>201.0</ele><time>2026-04-04T10:59:53Z</time></trkpt><trkpt lat="42.739199530099526" lon="2.676577157662058"><ele>201.0</ele><time>2026-04-04T10:59:55Z</time></trkpt><trkpt lat="42.73928758976051" lon="2.6766288532295506"><ele>201.0</ele><time>2026-04-04T10:59:57Z</time></trkpt><trkpt lat="42.73934599476223" lon="2.676672982472541"><ele>201.0</ele><time>2026-04-04T10:59:58Z</time></trkpt><trkpt lat="42.73941522720934" lon="2.6767126223623308"><ele>201.0</ele><time>2026-04-04T11:00:00Z</time></trkpt><trkpt lat="42.73948143848863" lon="2.6767729479553672"><ele>201.0</ele><time>2026-04-04T11:00:03Z</time></trkpt><trkpt lat="42.739554731551" lon="2.6767255759834536"><ele>201.0</ele><time>2026-04-04T11:00:06Z</time></trkpt><trkpt lat="42.739601347119496" lon="2.6766662511521058"><ele>201.0</ele><time>2026-04-04T11:00:08Z</time></trkpt><trkpt lat="42.73965927566576" lon="2.6766253690957345"><ele>201.0</ele><time>2026-04-04T11:00:11Z</time></trkpt><trkpt lat="42.73978109251271" lon="2.676620534472417"><ele>200.33333333333334</ele><time>2026-04-04T11:00:18Z</time></trkpt><trkpt lat="42.73987875038053" lon="2.676564283032552"><ele>199.66666666666669</ele><time>2026-04-04T11:00:20Z</time></trkpt><trkpt lat="42.73995114729304" lon="2.6765487523751093"><ele>199.0</ele><time>2026-04-04T11:02:32Z</time></trkpt><trkpt lat="42.739990393529034" lon="2.6766274303699906"><ele>198.33333333333334</ele><time>2026-04-04T11:02:37Z</time></trkpt><trkpt lat="42.739941931326726" lon="2.676566462985058"><ele>197.66666666666669</ele><time>2026-04-04T11:05:01Z</time></trkpt><trkpt lat="42.73987868731589" lon="2.6765755943224283"><ele>197.0</ele><time>2026-04-04T11:05:45.999Z</time></trkpt><trkpt lat="42.739772578068596" lon="2.676641502637247"><ele>197.0</ele><time>2026-04-04T11:05:47.999Z</time></trkpt><trkpt lat="42.739662428405595" lon="2.6766625259504275"><ele>197.0</ele><time>2026-04-04T11:05:49.999Z</time></trkpt><trkpt lat="42.739567122975295" lon="2.6767167195591615"><ele>197.0</ele><time>2026-04-04T11:05:51.999Z</time></trkpt><trkpt lat="42.73948714192694" lon="2.6767971625010243"><ele>197.0</ele><time>2026-04-04T11:05:53.999Z</time></trkpt><trkpt lat="42.73940533380934" lon="2.676731099384136"><ele>197.0</ele><time>2026-04-04T11:05:56.999Z</time></trkpt><trkpt lat="42.73935090275301" lon="2.676687116329681"><ele>197.66666666666669</ele><time>2026-04-04T11:05:57.999Z</time></trkpt><trkpt lat="42.739293020372976" lon="2.676644613407288"><ele>198.33333333333334</ele><time>2026-04-04T11:05:58.999Z</time></trkpt><trkpt lat="42.73922606159685" lon="2.6766098507843417"><ele>199.0</ele><time>2026-04-04T11:05:59.999Z</time></trkpt><trkpt lat="42.73912326877533" lon="2.676549956943913"><ele>199.66666666666669</ele><time>2026-04-04T11:06:01.999Z</time></trkpt><trkpt lat="42.739052532834" lon="2.6765002688499537"><ele>200.33333333333334</ele><time>2026-04-04T11:06:03.999Z</time></trkpt><trkpt lat="42.739015463430746" lon="2.676608304235071"><ele>201.0</ele><time>2026-04-04T11:06:05.999Z</time></trkpt><trkpt lat="42.73897753359482" lon="2.6766779657252537"><ele>201.0</ele><time>2026-04-04T11:06:06.999Z</time></trkpt><trkpt lat="42.738904806234295" lon="2.676771277381563"><ele>201.0</ele><time>2026-04-04T11:06:08.999Z</time></trkpt><trkpt lat="42.73886277725233" lon="2.67683699627014"><ele>201.0</ele><time>2026-04-04T11:06:10.999Z</time></trkpt><trkpt lat="42.738785859585484" lon="2.676923477744429"><ele>201.0</ele><time>2026-04-04T11:06:12.999Z</time></trkpt><trkpt lat="42.73873696408901" lon="2.676982645551954"><ele>201.0</ele><time>2026-04-04T11:06:13.999Z</time></trkpt><trkpt lat="42.73867155643799" lon="2.677106060449166"><ele>201.0</ele><time>2026-04-04T11:06:15.999Z</time></trkpt><trkpt lat="42.738596333291305" lon="2.677215156738316"><ele>202.33333333333334</ele><time>2026-04-04T11:06:17.999Z</time></trkpt><trkpt lat="42.73853960225736" lon="2.677310622958292"><ele>203.66666666666669</ele><time>2026-04-04T11:06:18.999Z</time></trkpt><trkpt lat="42.73849560628299" lon="2.6773907848387477"><ele>205.0</ele><time>2026-04-04T11:06:19.999Z</time></trkpt><trkpt lat="42.73841968676122" lon="2.6774969078281243"><ele>206.33333333333334</ele><time>2026-04-04T11:06:21.999Z</time></trkpt><trkpt lat="42.73836854279924" lon="2.677572790074221"><ele>207.66666666666669</ele><time>2026-04-04T11:06:22.999Z</time></trkpt><trkpt lat="42.73830188671979" lon="2.67767352681021"><ele>209.0</ele><time>2026-04-04T11:06:23.999Z</time></trkpt><trkpt lat="42.73823457841168" lon="2.6777602211099705"><ele>208.0</ele><time>2026-04-04T11:06:24.999Z</time></trkpt><trkpt lat="42.738170261415654" lon="2.677865565860998"><ele>207.0</ele><time>2026-04-04T11:06:26.999Z</time></trkpt><trkpt lat="42.73810466296163" lon="2.677974142907566"><ele>206.0</ele><time>2026-04-04T11:06:29.999Z</time></trkpt><trkpt lat="42.73805315171812" lon="2.678099410781615"><ele>205.0</ele><time>2026-04-04T11:06:31.999Z</time></trkpt><trkpt lat="42.73803855877721" lon="2.6781843371969667"><ele>204.0</ele><time>2026-04-04T11:06:32.999Z</time></trkpt><trkpt lat="42.737984707943525" lon="2.6783160110997577"><ele>204.0</ele><time>2026-04-04T11:06:34.999Z</time></trkpt><trkpt lat="42.73793993521381" lon="2.6784266654156283"><ele>204.0</ele><time>2026-04-04T11:06:35.999Z</time></trkpt><trkpt lat="42.7378799893627" lon="2.6785440507247813"><ele>204.0</ele><time>2026-04-04T11:06:36.999Z</time></trkpt><trkpt lat="42.73782648783366" lon="2.6786231337189226"><ele>204.0</ele><time>2026-04-04T11:06:37.999Z</time></trkpt><trkpt lat="42.737768426911124" lon="2.678701633685926"><ele>204.0</ele><time>2026-04-04T11:06:38.999Z</time></trkpt><trkpt lat="42.73769772061621" lon="2.678806629988723"><ele>204.39999999999998</ele><time>2026-04-04T11:06:39.999Z</time></trkpt><trkpt lat="42.73762328582291" lon="2.67892088478989"><ele>204.8</ele><time>2026-04-04T11:06:40.999Z</time></trkpt><trkpt lat="42.73756083415737" lon="2.6790125988065157"><ele>205.2</ele><time>2026-04-04T11:06:41.999Z</time></trkpt><trkpt lat="42.737507909734475" lon="2.6790921726852073"><ele>205.60000000000002</ele><time>2026-04-04T11:06:42.999Z</time></trkpt><trkpt lat="42.73745845496614" lon="2.679165276971788"><ele>206.0</ele><time>2026-04-04T11:06:43.999Z</time></trkpt><trkpt lat="42.73743487972228" lon="2.679348130887238"><ele>206.0</ele><time>2026-04-04T11:06:45.999Z</time></trkpt><trkpt lat="42.73753340903075" lon="2.679382000452896"><ele>206.0</ele><time>2026-04-04T11:06:50.999Z</time></trkpt><trkpt lat="42.73762172517789" lon="2.6793484534957437"><ele>206.0</ele><time>2026-04-04T11:06:51.999Z</time></trkpt><trkpt lat="42.73774626837229" lon="2.6792964160251858"><ele>206.0</ele><time>2026-04-04T11:06:52.999Z</time></trkpt><trkpt lat="42.737880071636944" lon="2.679240521227516"><ele>203.20000000000002</ele><time>2026-04-04T11:06:53.999Z</time></trkpt><trkpt lat="42.73798840637928" lon="2.6791629218632744"><ele>200.4</ele><time>2026-04-04T11:06:54.999Z</time></trkpt><trkpt lat="42.738102295358054" lon="2.679055407879382"><ele>197.6</ele><time>2026-04-04T11:06:56.999Z</time></trkpt><trkpt lat="42.738162480722515" lon="2.6789741941094563"><ele>194.8</ele><time>2026-04-04T11:06:57.999Z</time></trkpt><trkpt lat="42.738215568565295" lon="2.6789024450950807"><ele>192.0</ele><time>2026-04-04T11:06:58.999Z</time></trkpt><trkpt lat="42.73826510091616" lon="2.6788355014064957"><ele>192.0</ele><time>2026-04-04T11:06:59.999Z</time></trkpt><trkpt lat="42.7383483183887" lon="2.6787179004230715"><ele>192.0</ele><time>2026-04-04T11:07:01.999Z</time></trkpt><trkpt lat="42.73840486010053" lon="2.6786523598089738"><ele>192.0</ele><time>2026-04-04T11:07:02.999Z</time></trkpt><trkpt lat="42.73853458648484" lon="2.678497189882717"><ele>192.0</ele><time>2026-04-04T11:07:03.999Z</time></trkpt><trkpt lat="42.738679537265114" lon="2.6783240123892913"><ele>189.0</ele><time>2026-04-04T11:07:04.999Z</time></trkpt><trkpt lat="42.73887106997195" lon="2.6780750322718156"><ele>186.0</ele><time>2026-04-04T11:07:05.999Z</time></trkpt><trkpt lat="42.739024588580705" lon="2.677887399534799"><ele>186.0</ele><time>2026-04-04T11:07:06.999Z</time></trkpt><trkpt lat="42.73914416571963" lon="2.677740168958228"><ele>186.0</ele><time>2026-04-04T11:07:07.999Z</time></trkpt><trkpt lat="42.739227284746" lon="2.6776329688989517"><ele>186.0</ele><time>2026-04-04T11:07:08.999Z</time></trkpt><trkpt lat="42.739311718494086" lon="2.6775382177097757"><ele>186.0</ele><time>2026-04-04T11:07:09.999Z</time></trkpt><trkpt lat="42.7393867372162" lon="2.6774709101126746"><ele>186.0</ele><time>2026-04-04T11:07:10.999Z</time></trkpt><trkpt lat="42.739483640855845" lon="2.6774085420555096"><ele>186.0</ele><time>2026-04-04T11:07:11.999Z</time></trkpt><trkpt lat="42.739589267046746" lon="2.67740495818574"><ele>186.0</ele><time>2026-04-04T11:07:12.999Z</time></trkpt><trkpt lat="42.739678860495204" lon="2.67740604342441"><ele>186.0</ele><time>2026-04-04T11:07:13.999Z</time></trkpt><trkpt lat="42.73979132784586" lon="2.677396934021453"><ele>186.0</ele><time>2026-04-04T11:07:14.999Z</time></trkpt><trkpt lat="42.73991066036232" lon="2.677427051405351"><ele>186.0</ele><time>2026-04-04T11:07:15.999Z</time></trkpt><trkpt lat="42.7400146186839" lon="2.6774745050592346"><ele>186.0</ele><time>2026-04-04T11:07:16.999Z</time></trkpt><trkpt lat="42.74009707951661" lon="2.677546070994046"><ele>186.0</ele><time>2026-04-04T11:07:17.999Z</time></trkpt><trkpt lat="42.740172297563944" lon="2.6776000291708906"><ele>186.0</ele><time>2026-04-04T11:07:18.999Z</time></trkpt><trkpt lat="42.740242278879634" lon="2.6776444176671395"><ele>186.0</ele><time>2026-04-04T11:07:19.999Z</time></trkpt><trkpt lat="42.740308407473144" lon="2.6776847816484763"><ele>186.0</ele><time>2026-04-04T11:07:20.999Z</time></trkpt><trkpt lat="42.74037247458614" lon="2.6777195522465034"><ele>185.20000000000002</ele><time>2026-04-04T11:07:21.999Z</time></trkpt><trkpt lat="42.74044645899572" lon="2.6777427519523243"><ele>184.4</ele><time>2026-04-04T11:07:23.999Z</time></trkpt><trkpt lat="42.74049391140618" lon="2.677560077196559"><ele>183.6</ele><time>2026-04-04T11:07:25.999Z</time></trkpt><trkpt lat="42.7405207043508" lon="2.6774677898186505"><ele>182.8</ele><time>2026-04-04T11:07:26.999Z</time></trkpt><trkpt lat="42.74055639157109" lon="2.677353185150346"><ele>182.0</ele><time>2026-04-04T11:07:27.999Z</time></trkpt><trkpt lat="42.740609691218275" lon="2.677184426948419"><ele>182.0</ele><time>2026-04-04T11:07:28.999Z</time></trkpt><trkpt lat="42.7406894984546" lon="2.677006064162363"><ele>182.0</ele><time>2026-04-04T11:07:29.999Z</time></trkpt><trkpt lat="42.74074477295198" lon="2.6768669725373133"><ele>182.0</ele><time>2026-04-04T11:07:30.999Z</time></trkpt><trkpt lat="42.74078154706149" lon="2.676762975524883"><ele>182.0</ele><time>2026-04-04T11:07:41.999Z</time></trkpt><trkpt lat="42.74081603124574" lon="2.6766544936148775"><ele>182.0</ele><time>2026-04-04T11:07:43.999Z</time></trkpt><trkpt lat="42.740917146307936" lon="2.6766067432628637"><ele>181.5</ele><time>2026-04-04T11:07:45.999Z</time></trkpt><trkpt lat="42.74096518590689" lon="2.676545245559666"><ele>181.0</ele><time>2026-04-04T11:07:46.999Z</time></trkpt><trkpt lat="42.74105672058206" lon="2.6764898823965915"><ele>180.5</ele><time>2026-04-04T11:07:47.999Z</time></trkpt><trkpt lat="42.74120611562076" lon="2.676387556589049"><ele>180.0</ele><time>2026-04-04T11:07:48.999Z</time></trkpt><trkpt lat="42.74137774107182" lon="2.6762827621654735"><ele>180.0</ele><time>2026-04-04T11:07:49.999Z</time></trkpt><trkpt lat="42.74152666776531" lon="2.6761977512666477"><ele>180.0</ele><time>2026-04-04T11:07:50.999Z</time></trkpt><trkpt lat="42.74166011903657" lon="2.6761170952327777"><ele>180.0</ele><time>2026-04-04T11:07:51.999Z</time></trkpt><trkpt lat="42.7417695269047" lon="2.676013089397458"><ele>180.0</ele><time>2026-04-04T11:07:53.999Z</time></trkpt><trkpt lat="42.741839077668814" lon="2.675962069406332"><ele>180.5</ele><time>2026-04-04T11:07:54.999Z</time></trkpt><trkpt lat="42.74193091634261" lon="2.6759120394798743"><ele>181.0</ele><time>2026-04-04T11:07:55.999Z</time></trkpt><trkpt lat="42.74199013460505" lon="2.6758657042283196"><ele>181.5</ele><time>2026-04-04T11:07:56.999Z</time></trkpt><trkpt lat="42.74221721293185" lon="2.676014777645035"><ele>182.0</ele><time>2026-04-04T11:07:58.999Z</time></trkpt><trkpt lat="42.742286363957376" lon="2.6759917832165483"><ele>182.0</ele><time>2026-04-04T11:07:59.999Z</time></trkpt><trkpt lat="42.74239515923218" lon="2.6759146976564963"><ele>182.0</ele><time>2026-04-04T11:08:00.999Z</time></trkpt><trkpt lat="42.742497217475965" lon="2.675870377115387"><ele>182.0</ele><time>2026-04-04T11:08:01.999Z</time></trkpt><trkpt lat="42.742569004847006" lon="2.675832385084904"><ele>182.0</ele><time>2026-04-04T11:08:02.999Z</time></trkpt><trkpt lat="42.74263777039862" lon="2.6758976305622313"><ele>182.0</ele><time>2026-04-04T11:08:05.999Z</time></trkpt><trkpt lat="42.74265111067182" lon="2.6760395989481247"><ele>181.39999999999998</ele><time>2026-04-04T11:08:08.999Z</time></trkpt><trkpt lat="42.74267899099505" lon="2.676187328904776"><ele>180.79999999999998</ele><time>2026-04-04T11:08:09.999Z</time></trkpt><trkpt lat="42.74269217456733" lon="2.6763066929338515"><ele>180.2</ele><time>2026-04-04T11:08:10.999Z</time></trkpt><trkpt lat="42.742730610802724" lon="2.6763975004547644"><ele>179.6</ele><time>2026-04-04T11:08:11.999Z</time></trkpt><trkpt lat="42.74280882829017" lon="2.6764479877698775"><ele>179.0</ele><time>2026-04-04T11:08:12.999Z</time></trkpt><trkpt lat="42.74290295190225" lon="2.676502805455398"><ele>178.2</ele><time>2026-04-04T11:08:13.999Z</time></trkpt><trkpt lat="42.74301928071766" lon="2.6765498394120533"><ele>177.39999999999998</ele><time>2026-04-04T11:08:14.999Z</time></trkpt><trkpt lat="42.74313749598694" lon="2.676583303328714"><ele>176.6</ele><time>2026-04-04T11:08:15.999Z</time></trkpt><trkpt lat="42.74322045206409" lon="2.6766227227301664"><ele>175.8</ele><time>2026-04-04T11:08:16.999Z</time></trkpt><trkpt lat="42.743156947408345" lon="2.6766055496203407"><ele>175.0</ele><time>2026-04-04T11:08:35.999Z</time></trkpt><trkpt lat="42.743091270042456" lon="2.6765983923497165"><ele>175.0</ele><time>2026-04-04T11:08:36.999Z</time></trkpt><trkpt lat="42.74303182443787" lon="2.676567251491341"><ele>175.0</ele><time>2026-04-04T11:08:37.999Z</time></trkpt><trkpt lat="42.74294681195266" lon="2.676530504371904"><ele>175.0</ele><time>2026-04-04T11:08:38.999Z</time></trkpt><trkpt lat="42.74283896380696" lon="2.676483766603086"><ele>175.0</ele><time>2026-04-04T11:08:39.999Z</time></trkpt><trkpt lat="42.74274690162126" lon="2.676412396870634"><ele>175.0</ele><time>2026-04-04T11:08:40.999Z</time></trkpt><trkpt lat="42.74268221086974" lon="2.6763390815392882"><ele>175.8</ele><time>2026-04-04T11:08:41.999Z</time></trkpt><trkpt lat="42.74263191502544" lon="2.676236836535557"><ele>176.6</ele><time>2026-04-04T11:08:42.999Z</time></trkpt><trkpt lat="42.742627813721235" lon="2.67610424638211"><ele>177.39999999999998</ele><time>2026-04-04T11:08:43.999Z</time></trkpt><trkpt lat="42.742615415274585" lon="2.67593309486651"><ele>178.2</ele><time>2026-04-04T11:08:44.999Z</time></trkpt><trkpt lat="42.7425824658269" lon="2.675807548451083"><ele>179.0</ele><time>2026-04-04T11:08:45.999Z</time></trkpt><trkpt lat="42.74249923991447" lon="2.6758311494514615"><ele>179.5</ele><time>2026-04-04T11:08:47.999Z</time></trkpt><trkpt lat="42.742446781356385" lon="2.6758802714882797"><ele>180.0</ele><time>2026-04-04T11:08:48.999Z</time></trkpt><trkpt lat="42.74237707603053" lon="2.6759301844694106"><ele>180.5</ele><time>2026-04-04T11:08:49.999Z</time></trkpt><trkpt lat="42.742282173125766" lon="2.675974753634639"><ele>181.0</ele><time>2026-04-04T11:08:50.999Z</time></trkpt><trkpt lat="42.74220365277382" lon="2.6760041593990973"><ele>181.5</ele><time>2026-04-04T11:08:51.999Z</time></trkpt><trkpt lat="42.742139707888306" lon="2.6760181288217226"><ele>182.0</ele><time>2026-04-04T11:08:52.999Z</time></trkpt><trkpt lat="42.74202303103747" lon="2.6760141358339613"><ele>182.0</ele><time>2026-04-04T11:08:54.999Z</time></trkpt><trkpt lat="42.74192049786124" lon="2.675962050415648"><ele>182.0</ele><time>2026-04-04T11:08:56.999Z</time></trkpt><trkpt lat="42.74182389695116" lon="2.675973393079844"><ele>182.0</ele><time>2026-04-04T11:08:58.999Z</time></trkpt><trkpt lat="42.74173303522607" lon="2.6759930754632104"><ele>182.0</ele><time>2026-04-04T11:09:00.999Z</time></trkpt><trkpt lat="42.74165912508237" lon="2.6760491519325527"><ele>182.0</ele><time>2026-04-04T11:09:03.999Z</time></trkpt><trkpt lat="42.74158506706335" lon="2.6761002519721857"><ele>181.5</ele><time>2026-04-04T11:09:05.999Z</time></trkpt><trkpt lat="42.74146499574506" lon="2.67618036951537"><ele>181.0</ele><time>2026-04-04T11:09:07.999Z</time></trkpt><trkpt lat="42.74137205372572" lon="2.676241305412569"><ele>180.5</ele><time>2026-04-04T11:09:08.999Z</time></trkpt><trkpt lat="42.74125978495932" lon="2.6763147553019646"><ele>180.0</ele><time>2026-04-04T11:09:09.999Z</time></trkpt><trkpt lat="42.741164224227504" lon="2.6763774404973906"><ele>182.33333333333334</ele><time>2026-04-04T11:09:10.999Z</time></trkpt><trkpt lat="42.741043445234816" lon="2.676460518374001"><ele>184.66666666666669</ele><time>2026-04-04T11:09:11.999Z</time></trkpt><trkpt lat="42.74089157302354" lon="2.676574318072573"><ele>187.0</ele><time>2026-04-04T11:09:12.999Z</time></trkpt><trkpt lat="42.74075208336047" lon="2.676677501653978"><ele>187.0</ele><time>2026-04-04T11:09:13.999Z</time></trkpt><trkpt lat="42.740648567686144" lon="2.676809592973274"><ele>187.0</ele><time>2026-04-04T11:09:14.999Z</time></trkpt><trkpt lat="42.74070458046122" lon="2.676859498205452"><ele>187.0</ele><time>2026-04-04T11:09:16.999Z</time></trkpt><trkpt lat="42.740673468812524" lon="2.6769824144921377"><ele>187.0</ele><time>2026-04-04T11:09:18.999Z</time></trkpt><trkpt lat="42.74062255448621" lon="2.677090341672258"><ele>187.0</ele><time>2026-04-04T11:09:19.999Z</time></trkpt><trkpt lat="42.74059444989452" lon="2.6772252637028244"><ele>186.28571428571428</ele><time>2026-04-04T11:09:20.999Z</time></trkpt><trkpt lat="42.740560317589356" lon="2.677317442783101"><ele>185.57142857142858</ele><time>2026-04-04T11:09:21.999Z</time></trkpt><trkpt lat="42.74053505905364" lon="2.677402603509828"><ele>184.85714285714286</ele><time>2026-04-04T11:09:22.999Z</time></trkpt><trkpt lat="42.74049399582751" lon="2.6774729973534788"><ele>184.14285714285714</ele><time>2026-04-04T11:09:23.999Z</time></trkpt><trkpt lat="42.740477929217654" lon="2.6775626007170583"><ele>183.42857142857144</ele><time>2026-04-04T11:09:24.999Z</time></trkpt><trkpt lat="42.74044832814334" lon="2.677638864216232"><ele>182.71428571428572</ele><time>2026-04-04T11:09:25.999Z</time></trkpt><trkpt lat="42.740419487095295" lon="2.6777442990305134"><ele>182.0</ele><time>2026-04-04T11:09:27.999Z</time></trkpt><trkpt lat="42.7404945898961" lon="2.67776950710178"><ele>179.5</ele><time>2026-04-04T11:09:30.999Z</time></trkpt><trkpt lat="42.74055618510327" lon="2.6778047857071696"><ele>177.0</ele><time>2026-04-04T11:09:31.999Z</time></trkpt><trkpt lat="42.74067838114953" lon="2.6778744741458613"><ele>174.5</ele><time>2026-04-04T11:09:32.999Z</time></trkpt><trkpt lat="42.740831866542386" lon="2.677974232440186"><ele>172.0</ele><time>2026-04-04T11:09:33.999Z</time></trkpt><trkpt lat="42.74096249049333" lon="2.6780654871408354"><ele>170.0</ele><time>2026-04-04T11:09:34.999Z</time></trkpt><trkpt lat="42.741121353396515" lon="2.6781464206723484"><ele>168.0</ele><time>2026-04-04T11:09:35.999Z</time></trkpt><trkpt lat="42.74125990030984" lon="2.6781989962375574"><ele>166.0</ele><time>2026-04-04T11:09:36.999Z</time></trkpt><trkpt lat="42.74140001238151" lon="2.678258055127426"><ele>166.0</ele><time>2026-04-04T11:09:37.999Z</time></trkpt><trkpt lat="42.74148757902731" lon="2.678286408290039"><ele>166.0</ele><time>2026-04-04T11:09:38.999Z</time></trkpt><trkpt lat="42.741588808545096" lon="2.678324662128052"><ele>166.0</ele><time>2026-04-04T11:09:39.999Z</time></trkpt><trkpt lat="42.7417574007411" lon="2.6783848772789254"><ele>166.0</ele><time>2026-04-04T11:09:40.999Z</time></trkpt><trkpt lat="42.741974804803114" lon="2.6784523700786296"><ele>165.0</ele><time>2026-04-04T11:09:41.999Z</time></trkpt><trkpt lat="42.74215896991751" lon="2.678529542033255"><ele>164.0</ele><time>2026-04-04T11:09:42.999Z</time></trkpt><trkpt lat="42.742322335436484" lon="2.678612073517517"><ele>163.0</ele><time>2026-04-04T11:09:43.999Z</time></trkpt><trkpt lat="42.74239135906277" lon="2.6786342135715375"><ele>162.0</ele><time>2026-04-04T11:09:44.999Z</time></trkpt><trkpt lat="42.742501672867775" lon="2.678637599270866"><ele>162.0</ele><time>2026-04-04T11:09:45.999Z</time></trkpt><trkpt lat="42.74261452031103" lon="2.6785973846284596"><ele>162.0</ele><time>2026-04-04T11:09:46.999Z</time></trkpt><trkpt lat="42.74273950296536" lon="2.678519047203567"><ele>162.0</ele><time>2026-04-04T11:09:47.999Z</time></trkpt><trkpt lat="42.74291305466178" lon="2.6784145532636363"><ele>162.0</ele><time>2026-04-04T11:09:48.999Z</time></trkpt><trkpt lat="42.74304913691679" lon="2.678338299249479"><ele>161.4</ele><time>2026-04-04T11:09:49.999Z</time></trkpt><trkpt lat="42.74315937703323" lon="2.678282440244264"><ele>160.79999999999998</ele><time>2026-04-04T11:09:50.999Z</time></trkpt><trkpt lat="42.7432526795428" lon="2.678264473503018"><ele>160.2</ele><time>2026-04-04T11:09:51.999Z</time></trkpt><trkpt lat="42.743351108748335" lon="2.6783009772819533"><ele>159.6</ele><time>2026-04-04T11:09:52.999Z</time></trkpt><trkpt lat="42.743443724750435" lon="2.6783308182691257"><ele>159.0</ele><time>2026-04-04T11:09:53.999Z</time></trkpt><trkpt lat="42.74354386116965" lon="2.6783296631929683"><ele>159.75</ele><time>2026-04-04T11:09:54.999Z</time></trkpt><trkpt lat="42.743628169634846" lon="2.6782446533289987"><ele>160.5</ele><time>2026-04-04T11:09:55.999Z</time></trkpt><trkpt lat="42.74371300202944" lon="2.6781407527954353"><ele>161.25</ele><time>2026-04-04T11:09:56.999Z</time></trkpt><trkpt lat="42.743815794578424" lon="2.678043744033884"><ele>162.0</ele><time>2026-04-04T11:09:57.999Z</time></trkpt><trkpt lat="42.744004003874466" lon="2.677900312202121"><ele>159.66666666666666</ele><time>2026-04-04T11:09:58.999Z</time></trkpt><trkpt lat="42.744179156346945" lon="2.677753509549609"><ele>157.33333333333331</ele><time>2026-04-04T11:09:59.999Z</time></trkpt><trkpt lat="42.744322979789246" lon="2.677638402684295"><ele>155.0</ele><time>2026-04-04T11:10:00.999Z</time></trkpt><trkpt lat="42.74445999357065" lon="2.6775220639353914"><ele>155.0</ele><time>2026-04-04T11:10:02Z</time></trkpt><trkpt lat="42.74457350030312" lon="2.677407669770277"><ele>155.0</ele><time>2026-04-04T11:10:03Z</time></trkpt><trkpt lat="42.74467801400408" lon="2.677273862342832"><ele>155.0</ele><time>2026-04-04T11:10:04Z</time></trkpt><trkpt lat="42.74478441810332" lon="2.677168292197975"><ele>155.0</ele><time>2026-04-04T11:10:05Z</time></trkpt><trkpt lat="42.74488653198865" lon="2.6770730812220576"><ele>155.0</ele><time>2026-04-04T11:10:06Z</time></trkpt><trkpt lat="42.744977404612506" lon="2.6769840226151187"><ele>155.0</ele><time>2026-04-04T11:10:07Z</time></trkpt><trkpt lat="42.74506730865346" lon="2.676904810217723"><ele>155.0</ele><time>2026-04-04T11:10:08Z</time></trkpt><trkpt lat="42.74518216475305" lon="2.6768150493564837"><ele>155.0</ele><time>2026-04-04T11:10:09Z</time></trkpt><trkpt lat="42.74530621214824" lon="2.67672027399692"><ele>153.5</ele><time>2026-04-04T11:10:10Z</time></trkpt><trkpt lat="42.745423035820465" lon="2.6766132494671697"><ele>152.0</ele><time>2026-04-04T11:10:11Z</time></trkpt><trkpt lat="42.74553303912552" lon="2.6764819494359906"><ele>150.5</ele><time>2026-04-04T11:10:12Z</time></trkpt><trkpt lat="42.74563381850062" lon="2.6763778645922214"><ele>149.0</ele><time>2026-04-04T11:10:13Z</time></trkpt><trkpt lat="42.74573352798755" lon="2.6763192562930183"><ele>149.0</ele><time>2026-04-04T11:10:14Z</time></trkpt><trkpt lat="42.7458521080353" lon="2.6763394972889083"><ele>149.0</ele><time>2026-04-04T11:10:15Z</time></trkpt><trkpt lat="42.745977414919146" lon="2.676327995022334"><ele>149.0</ele><time>2026-04-04T11:10:16Z</time></trkpt><trkpt lat="42.74611001440237" lon="2.6763012797500125"><ele>149.0</ele><time>2026-04-04T11:10:17Z</time></trkpt><trkpt lat="42.74629875009201" lon="2.676265895656074"><ele>149.0</ele><time>2026-04-04T11:10:18Z</time></trkpt><trkpt lat="42.746489622592506" lon="2.6762265031874364"><ele>149.0</ele><time>2026-04-04T11:10:19Z</time></trkpt><trkpt lat="42.74664947600386" lon="2.6762327813775033"><ele>149.0</ele><time>2026-04-04T11:10:20Z</time></trkpt><trkpt lat="42.74679985902984" lon="2.676259835075279"><ele>148.5</ele><time>2026-04-04T11:10:21Z</time></trkpt><trkpt lat="42.7469507356362" lon="2.6762751951200423"><ele>148.0</ele><time>2026-04-04T11:10:22Z</time></trkpt><trkpt lat="42.74707908346129" lon="2.676263109248127"><ele>147.5</ele><time>2026-04-04T11:10:23Z</time></trkpt><trkpt lat="42.74719618693282" lon="2.6762327006014197"><ele>147.0</ele><time>2026-04-04T11:10:24Z</time></trkpt><trkpt lat="42.74730710273486" lon="2.6762112306151398"><ele>147.0</ele><time>2026-04-04T11:10:25Z</time></trkpt><trkpt lat="42.747397288522265" lon="2.676186117352039"><ele>147.0</ele><time>2026-04-04T11:10:26Z</time></trkpt><trkpt lat="42.74747869594995" lon="2.676157443852834"><ele>147.0</ele><time>2026-04-04T11:10:27Z</time></trkpt><trkpt lat="42.747543176155496" lon="2.676127060093154"><ele>147.0</ele><time>2026-04-04T11:10:28Z</time></trkpt><trkpt lat="42.747617421733" lon="2.6761491951051566"><ele>147.0</ele><time>2026-04-04T11:10:29Z</time></trkpt><trkpt lat="42.747689328754824" lon="2.6761730385951394"><ele>147.0</ele><time>2026-04-04T11:10:30Z</time></trkpt><trkpt lat="42.74776856889323" lon="2.676216464553706"><ele>146.33333333333334</ele><time>2026-04-04T11:10:31Z</time></trkpt><trkpt lat="42.74783638011124" lon="2.6762643106734383"><ele>145.66666666666666</ele><time>2026-04-04T11:10:32Z</time></trkpt><trkpt lat="42.74789120413469" lon="2.6763187968363935"><ele>145.0</ele><time>2026-04-04T11:10:33Z</time></trkpt><trkpt lat="42.747962195939294" lon="2.676364105726016"><ele>144.33333333333331</ele><time>2026-04-04T11:10:34Z</time></trkpt><trkpt lat="42.74802137971433" lon="2.6764305745709125"><ele>143.66666666666666</ele><time>2026-04-04T11:10:35Z</time></trkpt><trkpt lat="42.74807943658631" lon="2.676508488846499"><ele>143.0</ele><time>2026-04-04T11:10:36Z</time></trkpt><trkpt lat="42.748134629657535" lon="2.6765790109693137"><ele>143.0</ele><time>2026-04-04T11:10:37Z</time></trkpt><trkpt lat="42.74818873912784" lon="2.676646702959159"><ele>143.0</ele><time>2026-04-04T11:10:38Z</time></trkpt><trkpt lat="42.74824129930984" lon="2.676711704360172"><ele>143.0</ele><time>2026-04-04T11:10:39Z</time></trkpt><trkpt lat="42.748290621961424" lon="2.6767731424783783"><ele>143.0</ele><time>2026-04-04T11:10:40Z</time></trkpt><trkpt lat="42.74838196174428" lon="2.676889876056834"><ele>143.0</ele><time>2026-04-04T11:10:42Z</time></trkpt><trkpt lat="42.748446073351246" lon="2.676987073272255"><ele>143.0</ele><time>2026-04-04T11:10:44Z</time></trkpt><trkpt lat="42.74849139378806" lon="2.6770502868920545"><ele>142.33333333333331</ele><time>2026-04-04T11:10:45Z</time></trkpt><trkpt lat="42.74855062287791" lon="2.6771344008474975"><ele>141.66666666666666</ele><time>2026-04-04T11:10:46Z</time></trkpt><trkpt lat="42.748609642441735" lon="2.6772222532271233"><ele>141.0</ele><time>2026-04-04T11:10:47Z</time></trkpt><trkpt lat="42.748657764856745" lon="2.6772969371729882"><ele>140.33333333333334</ele><time>2026-04-04T11:10:48Z</time></trkpt><trkpt lat="42.74870116100255" lon="2.677363528581653"><ele>139.66666666666669</ele><time>2026-04-04T11:10:49Z</time></trkpt><trkpt lat="42.74877640999452" lon="2.677496983312939"><ele>139.0</ele><time>2026-04-04T11:10:51Z</time></trkpt><trkpt lat="42.74880367351987" lon="2.677658981040625"><ele>137.5</ele><time>2026-04-04T11:10:53Z</time></trkpt><trkpt lat="42.748848635092436" lon="2.677818255770591"><ele>136.0</ele><time>2026-04-04T11:10:55Z</time></trkpt><trkpt lat="42.74888604945509" lon="2.677971756626503"><ele>134.5</ele><time>2026-04-04T11:10:57Z</time></trkpt><trkpt lat="42.74892572309683" lon="2.6781351553838433"><ele>133.0</ele><time>2026-04-04T11:10:59Z</time></trkpt><trkpt lat="42.748983909834905" lon="2.67828480381748"><ele>133.0</ele><time>2026-04-04T11:11:01Z</time></trkpt><trkpt lat="42.74903682992773" lon="2.67842780255215"><ele>133.0</ele><time>2026-04-04T11:11:03Z</time></trkpt><trkpt lat="42.74906651098439" lon="2.678553974879758"><ele>133.0</ele><time>2026-04-04T11:11:05Z</time></trkpt><trkpt lat="42.74918791715507" lon="2.678499926524814"><ele>133.0</ele><time>2026-04-04T11:11:06Z</time></trkpt><trkpt lat="42.74930077992777" lon="2.6783927600381587"><ele>133.0</ele><time>2026-04-04T11:11:08Z</time></trkpt><trkpt lat="42.74937249672782" lon="2.678312688528223"><ele>133.0</ele><time>2026-04-04T11:11:09Z</time></trkpt><trkpt lat="42.74945166440969" lon="2.6782254654859132"><ele>133.0</ele><time>2026-04-04T11:11:10Z</time></trkpt><trkpt lat="42.74952566290454" lon="2.678146927147109"><ele>133.0</ele><time>2026-04-04T11:11:11Z</time></trkpt><trkpt lat="42.74960626291066" lon="2.678074633345171"><ele>133.0</ele><time>2026-04-04T11:11:12Z</time></trkpt><trkpt lat="42.749675420561886" lon="2.678001114952346"><ele>132.20000000000002</ele><time>2026-04-04T11:11:13Z</time></trkpt><trkpt lat="42.74973749363902" lon="2.6779604177637735"><ele>131.4</ele><time>2026-04-04T11:11:14Z</time></trkpt><trkpt lat="42.749815791102236" lon="2.6779133217677304"><ele>130.60000000000002</ele><time>2026-04-04T11:11:15Z</time></trkpt><trkpt lat="42.74988630307161" lon="2.6778393766138473"><ele>129.8</ele><time>2026-04-04T11:11:16Z</time></trkpt><trkpt lat="42.74998546498559" lon="2.6777927119736935"><ele>129.0</ele><time>2026-04-04T11:11:17Z</time></trkpt><trkpt lat="42.75008131504693" lon="2.677722952236741"><ele>129.0</ele><time>2026-04-04T11:11:18Z</time></trkpt><trkpt lat="42.75017832745055" lon="2.6776524610371246"><ele>129.0</ele><time>2026-04-04T11:11:19Z</time></trkpt><trkpt lat="42.75027449825849" lon="2.6775755155055605"><ele>129.0</ele><time>2026-04-04T11:11:20Z</time></trkpt><trkpt lat="42.75036059138708" lon="2.677457058208018"><ele>129.0</ele><time>2026-04-04T11:11:21Z</time></trkpt><trkpt lat="42.75044447285105" lon="2.6773455247761033"><ele>127.6</ele><time>2026-04-04T11:11:22Z</time></trkpt><trkpt lat="42.750527285575195" lon="2.6772587339727427"><ele>126.2</ele><time>2026-04-04T11:11:23Z</time></trkpt><trkpt lat="42.75059208875299" lon="2.677161612755554"><ele>124.79999999999998</ele><time>2026-04-04T11:11:24Z</time></trkpt><trkpt lat="42.75064471491825" lon="2.6770517881605342"><ele>123.39999999999999</ele><time>2026-04-04T11:11:25Z</time></trkpt><trkpt lat="42.75071138872034" lon="2.6769657548134886"><ele>122.0</ele><time>2026-04-04T11:11:26Z</time></trkpt><trkpt lat="42.75078374009373" lon="2.676865953559689"><ele>122.0</ele><time>2026-04-04T11:11:27Z</time></trkpt><trkpt lat="42.7508639685656" lon="2.6767579417296385"><ele>121.99999999999999</ele><time>2026-04-04T11:11:28Z</time></trkpt><trkpt lat="42.75095710525089" lon="2.676689968065997"><ele>121.99999999999999</ele><time>2026-04-04T11:11:29Z</time></trkpt><trkpt lat="42.75103335507385" lon="2.6765922492921774"><ele>122.0</ele><time>2026-04-04T11:11:30Z</time></trkpt><trkpt lat="42.75112757132952" lon="2.6765188913984024"><ele>122.0</ele><time>2026-04-04T11:11:31Z</time></trkpt><trkpt lat="42.75126076156542" lon="2.6764011267096257"><ele>119.75</ele><time>2026-04-04T11:11:32Z</time></trkpt><trkpt lat="42.751404341840775" lon="2.676299501710282"><ele>117.5</ele><time>2026-04-04T11:11:33Z</time></trkpt><trkpt lat="42.751496499678005" lon="2.6762103639499855"><ele>115.25</ele><time>2026-04-04T11:11:34Z</time></trkpt><trkpt lat="42.751587156853304" lon="2.6761211536152882"><ele>113.0</ele><time>2026-04-04T11:11:35Z</time></trkpt><trkpt lat="42.75167649756725" lon="2.6760533186975066"><ele>113.0</ele><time>2026-04-04T11:11:36Z</time></trkpt><trkpt lat="42.75175928420437" lon="2.675986669310678"><ele>113.00000000000001</ele><time>2026-04-04T11:11:37Z</time></trkpt><trkpt lat="42.75182960679266" lon="2.675916855384975"><ele>113.00000000000001</ele><time>2026-04-04T11:11:38Z</time></trkpt><trkpt lat="42.75190206833193" lon="2.6758354918726424"><ele>113.0</ele><time>2026-04-04T11:11:39Z</time></trkpt><trkpt lat="42.75199199698546" lon="2.6757306658566034"><ele>113.0</ele><time>2026-04-04T11:11:40Z</time></trkpt><trkpt lat="42.75206074993892" lon="2.675604725498621"><ele>112.2</ele><time>2026-04-04T11:11:41Z</time></trkpt><trkpt lat="42.75213792489442" lon="2.6755022410408777"><ele>111.4</ele><time>2026-04-04T11:11:42Z</time></trkpt><trkpt lat="42.75219934071645" lon="2.67540186258299"><ele>110.60000000000001</ele><time>2026-04-04T11:11:43Z</time></trkpt><trkpt lat="42.752263307465405" lon="2.6753166343892523"><ele>109.80000000000001</ele><time>2026-04-04T11:11:44Z</time></trkpt><trkpt lat="42.75234489295125" lon="2.6752230740568312"><ele>109.0</ele><time>2026-04-04T11:11:45Z</time></trkpt><trkpt lat="42.752431895161635" lon="2.6751440897714"><ele>109.0</ele><time>2026-04-04T11:11:46Z</time></trkpt><trkpt lat="42.752525583037986" lon="2.67507382821178"><ele>109.0</ele><time>2026-04-04T11:11:47Z</time></trkpt><trkpt lat="42.75262445459966" lon="2.6750175799667133"><ele>109.0</ele><time>2026-04-04T11:11:48Z</time></trkpt><trkpt lat="42.75275002396734" lon="2.674961005100839"><ele>109.0</ele><time>2026-04-04T11:11:49Z</time></trkpt><trkpt lat="42.75288596175799" lon="2.674897865407854"><ele>108.0</ele><time>2026-04-04T11:11:50Z</time></trkpt><trkpt lat="42.75306372482393" lon="2.6748150636919887"><ele>107.0</ele><time>2026-04-04T11:11:51Z</time></trkpt><trkpt lat="42.75321079705037" lon="2.6747383729381693"><ele>106.0</ele><time>2026-04-04T11:11:52Z</time></trkpt><trkpt lat="42.75333193324981" lon="2.674678550841196"><ele>106.0</ele><time>2026-04-04T11:11:53Z</time></trkpt><trkpt lat="42.753442783063804" lon="2.6746308868894135"><ele>106.0</ele><time>2026-04-04T11:11:54Z</time></trkpt><trkpt lat="42.75354378708637" lon="2.6745845240385955"><ele>106.0</ele><time>2026-04-04T11:11:55Z</time></trkpt><trkpt lat="42.75363446120253" lon="2.674541432753579"><ele>106.0</ele><time>2026-04-04T11:11:56Z</time></trkpt><trkpt lat="42.753712853922934" lon="2.674505727946163"><ele>106.0</ele><time>2026-04-04T11:11:57Z</time></trkpt><trkpt lat="42.75377488251308" lon="2.6744811575511513"><ele>105.8</ele><time>2026-04-04T11:11:58Z</time></trkpt><trkpt lat="42.753836036854715" lon="2.674454135823996"><ele>105.6</ele><time>2026-04-04T11:12:00Z</time></trkpt><trkpt lat="42.75395073648731" lon="2.6745206503811914"><ele>105.4</ele><time>2026-04-04T11:12:44Z</time></trkpt><trkpt lat="42.75401639543781" lon="2.674605525226148"><ele>105.2</ele><time>2026-04-04T11:12:45Z</time></trkpt><trkpt lat="42.75409307317552" lon="2.6747051075947215"><ele>105.0</ele><time>2026-04-04T11:12:46Z</time></trkpt><trkpt lat="42.754179226361465" lon="2.6748181494890404"><ele>105.0</ele><time>2026-04-04T11:12:47Z</time></trkpt><trkpt lat="42.75429153033714" lon="2.6749589159135843"><ele>105.0</ele><time>2026-04-04T11:12:48Z</time></trkpt><trkpt lat="42.75443823003442" lon="2.6751500989407435"><ele>105.0</ele><time>2026-04-04T11:12:49Z</time></trkpt><trkpt lat="42.754604859802036" lon="2.675365804891943"><ele>103.66666666666666</ele><time>2026-04-04T11:12:50Z</time></trkpt><trkpt lat="42.75476626376254" lon="2.6755750446246522"><ele>102.33333333333333</ele><time>2026-04-04T11:12:51Z</time></trkpt><trkpt lat="42.75488588765441" lon="2.6757477947717776"><ele>101.0</ele><time>2026-04-04T11:12:52Z</time></trkpt><trkpt lat="42.7549987227689" lon="2.675890997382989"><ele>101.0</ele><time>2026-04-04T11:12:53Z</time></trkpt><trkpt lat="42.75510793148843" lon="2.6760303370146725"><ele>101.0</ele><time>2026-04-04T11:12:54Z</time></trkpt><trkpt lat="42.75520139241747" lon="2.676148311467319"><ele>101.0</ele><time>2026-04-04T11:12:55Z</time></trkpt><trkpt lat="42.75528381759757" lon="2.6762580717399858"><ele>101.0</ele><time>2026-04-04T11:12:56Z</time></trkpt><trkpt lat="42.755360631340125" lon="2.676360313604442"><ele>100.33333333333333</ele><time>2026-04-04T11:12:57Z</time></trkpt><trkpt lat="42.75544779360406" lon="2.67647245206711"><ele>99.66666666666666</ele><time>2026-04-04T11:12:58Z</time></trkpt><trkpt lat="42.7555669155734" lon="2.6766209576442064"><ele>99.0</ele><time>2026-04-04T11:12:59Z</time></trkpt><trkpt lat="42.75572051130783" lon="2.6768174606131154"><ele>98.66666666666666</ele><time>2026-04-04T11:13:00Z</time></trkpt><trkpt lat="42.7558893706965" lon="2.6770274898861177"><ele>98.33333333333333</ele><time>2026-04-04T11:13:01Z</time></trkpt><trkpt lat="42.75601915813025" lon="2.6772087460036245"><ele>98.0</ele><time>2026-04-04T11:13:02Z</time></trkpt><trkpt lat="42.75614769252993" lon="2.6773748762046914"><ele>97.66666666666666</ele><time>2026-04-04T11:13:03Z</time></trkpt><trkpt lat="42.756271095153416" lon="2.677537489698992"><ele>97.33333333333334</ele><time>2026-04-04T11:13:04Z</time></trkpt><trkpt lat="42.75639657909368" lon="2.6777041902397514"><ele>97.0</ele><time>2026-04-04T11:13:05Z</time></trkpt><trkpt lat="42.75652258692537" lon="2.677865954745006"><ele>98.0</ele><time>2026-04-04T11:13:06Z</time></trkpt><trkpt lat="42.756679434845" lon="2.6780698252428015"><ele>99.0</ele><time>2026-04-04T11:13:07Z</time></trkpt><trkpt lat="42.75685417791063" lon="2.678293733212283"><ele>98.5</ele><time>2026-04-04T11:13:08Z</time></trkpt><trkpt lat="42.75702646056505" lon="2.6785186035533743"><ele>98.0</ele><time>2026-04-04T11:13:09Z</time></trkpt><trkpt lat="42.757196616724016" lon="2.6787414571922903"><ele>98.0</ele><time>2026-04-04T11:13:10Z</time></trkpt><trkpt lat="42.757370690786196" lon="2.678966365465396"><ele>98.0</ele><time>2026-04-04T11:13:11Z</time></trkpt><trkpt lat="42.757535641632145" lon="2.6791811754496972"><ele>98.0</ele><time>2026-04-04T11:13:12Z</time></trkpt><trkpt lat="42.757687744536625" lon="2.67937874713843"><ele>98.0</ele><time>2026-04-04T11:13:13Z</time></trkpt><trkpt lat="42.75784191302154" lon="2.6795754460081262"><ele>98.0</ele><time>2026-04-04T11:13:14Z</time></trkpt><trkpt lat="42.75799124715562" lon="2.679767503813954"><ele>98.0</ele><time>2026-04-04T11:13:15Z</time></trkpt><trkpt lat="42.758142876748146" lon="2.6799630455970522"><ele>98.0</ele><time>2026-04-04T11:13:16Z</time></trkpt><trkpt lat="42.75828819065905" lon="2.6801543735522566"><ele>98.0</ele><time>2026-04-04T11:13:17Z</time></trkpt><trkpt lat="42.75843286604429" lon="2.680344964034927"><ele>97.0</ele><time>2026-04-04T11:13:18Z</time></trkpt><trkpt lat="42.75857660123334" lon="2.6805347673135347"><ele>96.0</ele><time>2026-04-04T11:13:19Z</time></trkpt><trkpt lat="42.75872391442539" lon="2.6807296393865996"><ele>95.0</ele><time>2026-04-04T11:13:20Z</time></trkpt><trkpt lat="42.758867812843384" lon="2.680917998832415"><ele>95.33333333333334</ele><time>2026-04-04T11:13:21Z</time></trkpt><trkpt lat="42.75901432997092" lon="2.6811085783022346"><ele>95.66666666666667</ele><time>2026-04-04T11:13:22Z</time></trkpt><trkpt lat="42.759157411209344" lon="2.6812963242777266"><ele>96.0</ele><time>2026-04-04T11:13:23Z</time></trkpt><trkpt lat="42.75930556386973" lon="2.6814908348710556"><ele>95.66666666666667</ele><time>2026-04-04T11:13:24Z</time></trkpt><trkpt lat="42.75945513506448" lon="2.681684266511247"><ele>95.33333333333334</ele><time>2026-04-04T11:13:25Z</time></trkpt><trkpt lat="42.75960555334867" lon="2.6818772240117577"><ele>95.0</ele><time>2026-04-04T11:13:26Z</time></trkpt><trkpt lat="42.759757672161186" lon="2.682070917026248"><ele>95.0</ele><time>2026-04-04T11:13:27Z</time></trkpt><trkpt lat="42.759911092750855" lon="2.6822684076560037"><ele>95.0</ele><time>2026-04-04T11:13:28Z</time></trkpt><trkpt lat="42.760059643426736" lon="2.682463781339853"><ele>95.0</ele><time>2026-04-04T11:13:29Z</time></trkpt><trkpt lat="42.76020465011145" lon="2.6826544905625065"><ele>94.66666666666667</ele><time>2026-04-04T11:13:30Z</time></trkpt><trkpt lat="42.76035140601022" lon="2.6828478188550826"><ele>94.33333333333333</ele><time>2026-04-04T11:13:31Z</time></trkpt><trkpt lat="42.76049687850775" lon="2.683037246092721"><ele>94.0</ele><time>2026-04-04T11:13:32Z</time></trkpt><trkpt lat="42.76063922647364" lon="2.6832263266583523"><ele>94.0</ele><time>2026-04-04T11:13:33Z</time></trkpt><trkpt lat="42.76078465606557" lon="2.6834190361203385"><ele>94.0</ele><time>2026-04-04T11:13:34Z</time></trkpt><trkpt lat="42.7609390718951" lon="2.6836194235438806"><ele>94.0</ele><time>2026-04-04T11:13:35Z</time></trkpt><trkpt lat="42.76109863549689" lon="2.6838061375059885"><ele>94.66666666666666</ele><time>2026-04-04T11:13:36Z</time></trkpt><trkpt lat="42.76126563746839" lon="2.683973844964942"><ele>95.33333333333333</ele><time>2026-04-04T11:13:37Z</time></trkpt><trkpt lat="42.761441990537676" lon="2.684124874378411"><ele>96.0</ele><time>2026-04-04T11:13:38Z</time></trkpt><trkpt lat="42.76162690204978" lon="2.684267639206124"><ele>96.0</ele><time>2026-04-04T11:13:39Z</time></trkpt><trkpt lat="42.761813860471236" lon="2.6844116433196468"><ele>96.0</ele><time>2026-04-04T11:13:40Z</time></trkpt><trkpt lat="42.761990536096555" lon="2.684556504114816"><ele>96.0</ele><time>2026-04-04T11:13:41Z</time></trkpt><trkpt lat="42.76215261183686" lon="2.6846905107428567"><ele>98.66666666666666</ele><time>2026-04-04T11:13:42Z</time></trkpt><trkpt lat="42.76230671560475" lon="2.6848200534927633"><ele>101.33333333333333</ele><time>2026-04-04T11:13:43Z</time></trkpt><trkpt lat="42.762451166068836" lon="2.6849390608976247"><ele>104.0</ele><time>2026-04-04T11:13:44Z</time></trkpt><trkpt lat="42.76259962321117" lon="2.6850592565493225"><ele>101.0</ele><time>2026-04-04T11:13:45Z</time></trkpt><trkpt lat="42.76275226071755" lon="2.6851880549698737"><ele>98.0</ele><time>2026-04-04T11:13:46Z</time></trkpt><trkpt lat="42.76289658033458" lon="2.6853105860126485"><ele>95.0</ele><time>2026-04-04T11:13:47Z</time></trkpt><trkpt lat="42.763046827968466" lon="2.685440794339947"><ele>95.0</ele><time>2026-04-04T11:13:48Z</time></trkpt><trkpt lat="42.763189590618154" lon="2.6855899599079764"><ele>95.0</ele><time>2026-04-04T11:13:49Z</time></trkpt><trkpt lat="42.763326864974054" lon="2.6857597299130447"><ele>95.0</ele><time>2026-04-04T11:13:50Z</time></trkpt><trkpt lat="42.76345427315293" lon="2.685947738877634"><ele>93.33333333333334</ele><time>2026-04-04T11:13:51Z</time></trkpt><trkpt lat="42.763564401120675" lon="2.686130438189126"><ele>91.66666666666667</ele><time>2026-04-04T11:13:52Z</time></trkpt><trkpt lat="42.76366922014319" lon="2.686301713194531"><ele>90.0</ele><time>2026-04-04T11:13:53Z</time></trkpt><trkpt lat="42.763774236047105" lon="2.686468261421472"><ele>90.0</ele><time>2026-04-04T11:13:54Z</time></trkpt><trkpt lat="42.76386880030384" lon="2.6866137422876752"><ele>90.0</ele><time>2026-04-04T11:13:55Z</time></trkpt><trkpt lat="42.763952265022034" lon="2.6867473175198793"><ele>90.0</ele><time>2026-04-04T11:13:56Z</time></trkpt><trkpt lat="42.76402873305906" lon="2.686867820870816"><ele>90.0</ele><time>2026-04-04T11:13:57Z</time></trkpt><trkpt lat="42.764096134128344" lon="2.6869733645806773"><ele>89.0</ele><time>2026-04-04T11:13:58Z</time></trkpt><trkpt lat="42.764169181455635" lon="2.6870894866038433"><ele>88.0</ele><time>2026-04-04T11:13:59Z</time></trkpt><trkpt lat="42.764249912839674" lon="2.687219269302837"><ele>87.0</ele><time>2026-04-04T11:14:00Z</time></trkpt><trkpt lat="42.76433736101623" lon="2.6873596570226477"><ele>86.0</ele><time>2026-04-04T11:14:01Z</time></trkpt><trkpt lat="42.764430018734814" lon="2.6875074545227"><ele>86.0</ele><time>2026-04-04T11:14:02Z</time></trkpt><trkpt lat="42.76455548662356" lon="2.687706040622392"><ele>86.0</ele><time>2026-04-04T11:14:03Z</time></trkpt><trkpt lat="42.764702979973585" lon="2.6879332136373772"><ele>86.0</ele><time>2026-04-04T11:14:04Z</time></trkpt><trkpt lat="42.76483719061496" lon="2.688138728651737"><ele>86.75</ele><time>2026-04-04T11:14:05Z</time></trkpt><trkpt lat="42.76489327902622" lon="2.6882483802594486"><ele>87.5</ele><time>2026-04-04T11:14:06Z</time></trkpt><trkpt lat="42.764987324043794" lon="2.6883905264832464"><ele>88.25</ele><time>2026-04-04T11:14:07Z</time></trkpt><trkpt lat="42.76508204916356" lon="2.688536459317557"><ele>89.0</ele><time>2026-04-04T11:14:08Z</time></trkpt><trkpt lat="42.76516734271663" lon="2.6886753975365827"><ele>88.0</ele><time>2026-04-04T11:14:09Z</time></trkpt><trkpt lat="42.765256768697164" lon="2.6888102735415504"><ele>87.0</ele><time>2026-04-04T11:14:10Z</time></trkpt><trkpt lat="42.76538842583751" lon="2.689011040534435"><ele>86.0</ele><time>2026-04-04T11:14:11Z</time></trkpt><trkpt lat="42.76548961254311" lon="2.6891811305135596"><ele>86.0</ele><time>2026-04-04T11:14:12Z</time></trkpt><trkpt lat="42.76558619523859" lon="2.6893342037888797"><ele>86.0</ele><time>2026-04-04T11:14:13Z</time></trkpt><trkpt lat="42.765682332841315" lon="2.689485569500678"><ele>86.0</ele><time>2026-04-04T11:14:14.001Z</time></trkpt><trkpt lat="42.76577759954903" lon="2.6896305756250762"><ele>86.0</ele><time>2026-04-04T11:14:15.001Z</time></trkpt><trkpt lat="42.76590522931268" lon="2.6898330643676247"><ele>86.0</ele><time>2026-04-04T11:14:16.001Z</time></trkpt><trkpt lat="42.76604852258509" lon="2.6900782893510584"><ele>86.0</ele><time>2026-04-04T11:14:17.001Z</time></trkpt><trkpt lat="42.76621271178328" lon="2.690346134997373"><ele>86.0</ele><time>2026-04-04T11:14:18.001Z</time></trkpt><trkpt lat="42.76637826957577" lon="2.69062870813144"><ele>86.0</ele><time>2026-04-04T11:14:19.001Z</time></trkpt><trkpt lat="42.76651218599505" lon="2.6908157525055456"><ele>86.0</ele><time>2026-04-04T11:14:20.001Z</time></trkpt><trkpt lat="42.766632244641954" lon="2.690993699935454"><ele>86.0</ele><time>2026-04-04T11:14:21.001Z</time></trkpt><trkpt lat="42.76674440633969" lon="2.6911744894594647"><ele>86.0</ele><time>2026-04-04T11:14:22.001Z</time></trkpt><trkpt lat="42.766845182336546" lon="2.6913405460293562"><ele>86.0</ele><time>2026-04-04T11:14:23.001Z</time></trkpt><trkpt lat="42.76694485077395" lon="2.6915095157993156"><ele>86.0</ele><time>2026-04-04T11:14:24.001Z</time></trkpt><trkpt lat="42.76704528902027" lon="2.6916641174259652"><ele>86.0</ele><time>2026-04-04T11:14:25.001Z</time></trkpt><trkpt lat="42.76713577083815" lon="2.691815041838631"><ele>86.25</ele><time>2026-04-04T11:14:26.001Z</time></trkpt><trkpt lat="42.767225447224554" lon="2.6919636071465765"><ele>86.5</ele><time>2026-04-04T11:14:27.001Z</time></trkpt><trkpt lat="42.76731739705562" lon="2.692102977061191"><ele>86.75</ele><time>2026-04-04T11:14:28.001Z</time></trkpt><trkpt lat="42.76740255283533" lon="2.692240870652595"><ele>87.0</ele><time>2026-04-04T11:14:29Z</time></trkpt><trkpt lat="42.767484807759985" lon="2.692364737545231"><ele>87.0</ele><time>2026-04-04T11:14:30Z</time></trkpt><trkpt lat="42.76756769293136" lon="2.692476808781723"><ele>87.0</ele><time>2026-04-04T11:14:31Z</time></trkpt><trkpt lat="42.76764472730878" lon="2.692568555419107"><ele>87.0</ele><time>2026-04-04T11:14:32Z</time></trkpt><trkpt lat="42.76771287818775" lon="2.692651038352967"><ele>87.0</ele><time>2026-04-04T11:14:33Z</time></trkpt><trkpt lat="42.767809130801375" lon="2.692763812930328"><ele>87.0</ele><time>2026-04-04T11:14:34Z</time></trkpt><trkpt lat="42.76794823796947" lon="2.69293083909857"><ele>85.75</ele><time>2026-04-04T11:14:35Z</time></trkpt><trkpt lat="42.76805861620126" lon="2.693064545482131"><ele>84.5</ele><time>2026-04-04T11:14:36Z</time></trkpt><trkpt lat="42.76812648361264" lon="2.6931754068649814"><ele>83.25</ele><time>2026-04-04T11:14:37Z</time></trkpt><trkpt lat="42.76820774385254" lon="2.693281170778279"><ele>82.0</ele><time>2026-04-04T11:14:38Z</time></trkpt><trkpt lat="42.768286623435486" lon="2.6933519944468194"><ele>82.0</ele><time>2026-04-04T11:14:39Z</time></trkpt><trkpt lat="42.7683466292836" lon="2.6934246381875995"><ele>82.0</ele><time>2026-04-04T11:14:40Z</time></trkpt><trkpt lat="42.7683940479879" lon="2.6934902328073256"><ele>82.0</ele><time>2026-04-04T11:14:41Z</time></trkpt><trkpt lat="42.76844506307781" lon="2.6935891085607837"><ele>82.0</ele><time>2026-04-04T11:15:27Z</time></trkpt><trkpt lat="42.768512329013944" lon="2.693670732834763"><ele>82.0</ele><time>2026-04-04T11:15:28Z</time></trkpt><trkpt lat="42.768599135561814" lon="2.6937338793006678"><ele>82.0</ele><time>2026-04-04T11:15:29Z</time></trkpt><trkpt lat="42.76867423045407" lon="2.6938437346805615"><ele>81.33333333333333</ele><time>2026-04-04T11:15:30Z</time></trkpt><trkpt lat="42.7687918430597" lon="2.6939893942886233"><ele>80.66666666666667</ele><time>2026-04-04T11:15:31Z</time></trkpt><trkpt lat="42.76890775942486" lon="2.69412266932172"><ele>80.0</ele><time>2026-04-04T11:15:32Z</time></trkpt><trkpt lat="42.76901523263158" lon="2.6942707589973067"><ele>80.33333333333334</ele><time>2026-04-04T11:15:33Z</time></trkpt><trkpt lat="42.76915182281396" lon="2.694437082760481"><ele>80.66666666666667</ele><time>2026-04-04T11:15:34Z</time></trkpt><trkpt lat="42.769286249218524" lon="2.694595718909976"><ele>81.0</ele><time>2026-04-04T11:15:35Z</time></trkpt><trkpt lat="42.76941454174261" lon="2.6947492189165096"><ele>80.33333333333333</ele><time>2026-04-04T11:15:36Z</time></trkpt><trkpt lat="42.76953446951784" lon="2.694893917696993"><ele>79.66666666666666</ele><time>2026-04-04T11:15:37Z</time></trkpt><trkpt lat="42.76965585197643" lon="2.69503853905368"><ele>79.0</ele><time>2026-04-04T11:15:38Z</time></trkpt><trkpt lat="42.76977874464801" lon="2.695194469346721"><ele>79.0</ele><time>2026-04-04T11:15:39Z</time></trkpt><trkpt lat="42.76989658402992" lon="2.695338953084136"><ele>79.0</ele><time>2026-04-04T11:15:40Z</time></trkpt><trkpt lat="42.7700052414419" lon="2.6954762184519163"><ele>79.0</ele><time>2026-04-04T11:15:41Z</time></trkpt><trkpt lat="42.77010746118827" lon="2.695603045927711"><ele>79.0</ele><time>2026-04-04T11:15:42Z</time></trkpt><trkpt lat="42.770202267709294" lon="2.6957248311418223"><ele>79.25</ele><time>2026-04-04T11:15:43Z</time></trkpt><trkpt lat="42.77030448667288" lon="2.695861391031008"><ele>79.5</ele><time>2026-04-04T11:15:44Z</time></trkpt><trkpt lat="42.7704127215677" lon="2.695995976252179"><ele>79.75</ele><time>2026-04-04T11:15:45Z</time></trkpt><trkpt lat="42.77051894423465" lon="2.6961296384602447"><ele>80.0</ele><time>2026-04-04T11:15:46Z</time></trkpt><trkpt lat="42.770632399414104" lon="2.6962505153182303"><ele>80.0</ele><time>2026-04-04T11:15:47Z</time></trkpt><trkpt lat="42.77074445402075" lon="2.696383232207548"><ele>80.0</ele><time>2026-04-04T11:15:48Z</time></trkpt><trkpt lat="42.770854219895085" lon="2.696513630540549"><ele>80.0</ele><time>2026-04-04T11:15:49Z</time></trkpt><trkpt lat="42.77096430143551" lon="2.696641321953059"><ele>80.0</ele><time>2026-04-04T11:15:50Z</time></trkpt><trkpt lat="42.771066701219816" lon="2.6967650878977145"><ele>79.75</ele><time>2026-04-04T11:15:51Z</time></trkpt><trkpt lat="42.77116389195074" lon="2.6968888351754505"><ele>79.5</ele><time>2026-04-04T11:15:52Z</time></trkpt><trkpt lat="42.77124674395158" lon="2.697001775001151"><ele>79.25</ele><time>2026-04-04T11:15:53Z</time></trkpt><trkpt lat="42.77133249573265" lon="2.697103850578707"><ele>79.0</ele><time>2026-04-04T11:15:54Z</time></trkpt><trkpt lat="42.77141516412379" lon="2.697194878176129"><ele>79.0</ele><time>2026-04-04T11:15:55Z</time></trkpt><trkpt lat="42.7714885630127" lon="2.6972817141888408"><ele>79.0</ele><time>2026-04-04T11:15:56Z</time></trkpt><trkpt lat="42.77155623643608" lon="2.6973624406451893"><ele>79.0</ele><time>2026-04-04T11:15:57Z</time></trkpt><trkpt lat="42.77162529615095" lon="2.6974334707484"><ele>79.0</ele><time>2026-04-04T11:15:58Z</time></trkpt><trkpt lat="42.771693185852726" lon="2.697489151649004"><ele>79.0</ele><time>2026-04-04T11:15:59Z</time></trkpt><trkpt lat="42.77175246467761" lon="2.6975592999950146"><ele>79.0</ele><time>2026-04-04T11:16:00Z</time></trkpt><trkpt lat="42.77182387801549" lon="2.6976004895739387"><ele>79.2</ele><time>2026-04-04T11:16:01Z</time></trkpt><trkpt lat="42.77189168825681" lon="2.6976348083507853"><ele>79.4</ele><time>2026-04-04T11:16:02Z</time></trkpt><trkpt lat="42.77195855179578" lon="2.697692170997259"><ele>79.6</ele><time>2026-04-04T11:16:03Z</time></trkpt><trkpt lat="42.77205513475868" lon="2.697716463457452"><ele>79.8</ele><time>2026-04-04T11:16:04Z</time></trkpt><trkpt lat="42.77215607507701" lon="2.6977521372108493"><ele>80.0</ele><time>2026-04-04T11:16:05Z</time></trkpt><trkpt lat="42.772267093192546" lon="2.69779081073642"><ele>80.4</ele><time>2026-04-04T11:16:06Z</time></trkpt><trkpt lat="42.772379701372415" lon="2.697835804020583"><ele>80.8</ele><time>2026-04-04T11:16:07Z</time></trkpt><trkpt lat="42.77247389101357" lon="2.697919769016751"><ele>81.19999999999999</ele><time>2026-04-04T11:16:08Z</time></trkpt><trkpt lat="42.77256697908779" lon="2.6979769889995713"><ele>81.6</ele><time>2026-04-04T11:16:09Z</time></trkpt><trkpt lat="42.77263845318535" lon="2.6980441812376457"><ele>82.0</ele><time>2026-04-04T11:16:10Z</time></trkpt><trkpt lat="42.77269445920224" lon="2.6980954503944705"><ele>81.33333333333333</ele><time>2026-04-04T11:16:11Z</time></trkpt><trkpt lat="42.772753621388006" lon="2.698153536850441"><ele>80.66666666666666</ele><time>2026-04-04T11:16:13Z</time></trkpt><trkpt lat="42.772822166849906" lon="2.6980759299852313"><ele>80.0</ele><time>2026-04-04T11:16:17Z</time></trkpt><trkpt lat="42.77283178359407" lon="2.69798779278122"><ele>79.33333333333333</ele><time>2026-04-04T11:16:18Z</time></trkpt><trkpt lat="42.77289326354918" lon="2.6979033150188285"><ele>78.66666666666667</ele><time>2026-04-04T11:16:19Z</time></trkpt><trkpt lat="42.7729357855532" lon="2.697811184286971"><ele>78.0</ele><time>2026-04-04T11:16:20Z</time></trkpt><trkpt lat="42.77296297122987" lon="2.6977105860546033"><ele>78.0</ele><time>2026-04-04T11:16:21Z</time></trkpt><trkpt lat="42.77300088638362" lon="2.6976249351266577"><ele>78.0</ele><time>2026-04-04T11:16:22Z</time></trkpt><trkpt lat="42.77304449670749" lon="2.697535401214142"><ele>78.0</ele><time>2026-04-04T11:16:23Z</time></trkpt><trkpt lat="42.77309027776776" lon="2.6974300825731126"><ele>78.0</ele><time>2026-04-04T11:16:24Z</time></trkpt><trkpt lat="42.77314454608526" lon="2.697315667209662"><ele>78.0</ele><time>2026-04-04T11:16:25Z</time></trkpt><trkpt lat="42.77319931437902" lon="2.697208145154565"><ele>78.0</ele><time>2026-04-04T11:16:26Z</time></trkpt><trkpt lat="42.77325794393751" lon="2.697087197486364"><ele>78.0</ele><time>2026-04-04T11:16:27Z</time></trkpt><trkpt lat="42.773317326030615" lon="2.696946549975199"><ele>78.0</ele><time>2026-04-04T11:16:28Z</time></trkpt><trkpt lat="42.77337935156239" lon="2.6968206543617845"><ele>78.0</ele><time>2026-04-04T11:16:29Z</time></trkpt><trkpt lat="42.77344603494421" lon="2.6966939056535497"><ele>78.0</ele><time>2026-04-04T11:16:30Z</time></trkpt><trkpt lat="42.77351629256663" lon="2.696562781253084"><ele>77.75</ele><time>2026-04-04T11:16:31Z</time></trkpt><trkpt lat="42.77359878456241" lon="2.696439139380897"><ele>77.5</ele><time>2026-04-04T11:16:32Z</time></trkpt><trkpt lat="42.77368519101916" lon="2.696326410131172"><ele>77.25</ele><time>2026-04-04T11:16:33Z</time></trkpt><trkpt lat="42.77377169828029" lon="2.6962148276357536"><ele>77.0</ele><time>2026-04-04T11:16:34Z</time></trkpt><trkpt lat="42.77385983195854" lon="2.6961116110757244"><ele>77.25</ele><time>2026-04-04T11:16:35Z</time></trkpt><trkpt lat="42.77395295499207" lon="2.6960195997246688"><ele>77.5</ele><time>2026-04-04T11:16:36Z</time></trkpt><trkpt lat="42.77404630471043" lon="2.6959332602509622"><ele>77.75</ele><time>2026-04-04T11:16:37Z</time></trkpt><trkpt lat="42.774148287044554" lon="2.695863584274603"><ele>78.0</ele><time>2026-04-04T11:16:38Z</time></trkpt><trkpt lat="42.77424915259116" lon="2.6957993926354478"><ele>78.0</ele><time>2026-04-04T11:16:39Z</time></trkpt><trkpt lat="42.77435272676648" lon="2.6957448450215757"><ele>78.0</ele><time>2026-04-04T11:16:40Z</time></trkpt><trkpt lat="42.77445887659667" lon="2.6956922398576464"><ele>78.0</ele><time>2026-04-04T11:16:41Z</time></trkpt><trkpt lat="42.774553289687894" lon="2.695653736060574"><ele>78.0</ele><time>2026-04-04T11:16:42Z</time></trkpt><trkpt lat="42.77463155930795" lon="2.695619532273805"><ele>78.0</ele><time>2026-04-04T11:16:43Z</time></trkpt><trkpt lat="42.774694856010136" lon="2.695601656093181"><ele>77.83333333333333</ele><time>2026-04-04T11:16:44Z</time></trkpt><trkpt lat="42.774776127175414" lon="2.695584710517604"><ele>77.66666666666667</ele><time>2026-04-04T11:16:45Z</time></trkpt><trkpt lat="42.7748632131409" lon="2.6955696246972534"><ele>77.5</ele><time>2026-04-04T11:16:46Z</time></trkpt><trkpt lat="42.77494809846826" lon="2.6955625132466845"><ele>77.33333333333334</ele><time>2026-04-04T11:16:47Z</time></trkpt><trkpt lat="42.77503993523575" lon="2.69556182739788"><ele>77.16666666666667</ele><time>2026-04-04T11:16:48Z</time></trkpt><trkpt lat="42.77514047832064" lon="2.695572444013423"><ele>77.0</ele><time>2026-04-04T11:16:49Z</time></trkpt><trkpt lat="42.77524024712676" lon="2.6955897795265265"><ele>76.6</ele><time>2026-04-04T11:16:50Z</time></trkpt><trkpt lat="42.77532846060138" lon="2.695606604506569"><ele>76.2</ele><time>2026-04-04T11:16:51Z</time></trkpt><trkpt lat="42.77542633864391" lon="2.6956269493315586"><ele>75.8</ele><time>2026-04-04T11:16:52Z</time></trkpt><trkpt lat="42.77554122812184" lon="2.6956625244011567"><ele>75.4</ele><time>2026-04-04T11:16:53Z</time></trkpt><trkpt lat="42.775657955942506" lon="2.695718410219351"><ele>75.0</ele><time>2026-04-04T11:16:54Z</time></trkpt><trkpt lat="42.77577591214097" lon="2.6957796351331873"><ele>75.0</ele><time>2026-04-04T11:16:55Z</time></trkpt><trkpt lat="42.77589317776924" lon="2.695853932638321"><ele>75.0</ele><time>2026-04-04T11:16:56Z</time></trkpt><trkpt lat="42.77600040435773" lon="2.6959216753355624"><ele>75.0</ele><time>2026-04-04T11:16:57Z</time></trkpt><trkpt lat="42.77610082945397" lon="2.6959928541827183"><ele>75.0</ele><time>2026-04-04T11:16:58Z</time></trkpt><trkpt lat="42.77621093851004" lon="2.69606626965143"><ele>74.5</ele><time>2026-04-04T11:16:59Z</time></trkpt><trkpt lat="42.77632606015058" lon="2.6961411696160313"><ele>74.0</ele><time>2026-04-04T11:17:00Z</time></trkpt><trkpt lat="42.77643910187423" lon="2.6962175802276116"><ele>73.5</ele><time>2026-04-04T11:17:01Z</time></trkpt><trkpt lat="42.776550598083276" lon="2.6962931770815532"><ele>73.0</ele><time>2026-04-04T11:17:02Z</time></trkpt><trkpt lat="42.7766603303074" lon="2.6963674425544215"><ele>73.0</ele><time>2026-04-04T11:17:03Z</time></trkpt><trkpt lat="42.776761957322385" lon="2.6964332916851266"><ele>73.0</ele><time>2026-04-04T11:17:04Z</time></trkpt><trkpt lat="42.77685281511447" lon="2.6964951088567695"><ele>73.0</ele><time>2026-04-04T11:17:05Z</time></trkpt><trkpt lat="42.776932249653235" lon="2.696551709617939"><ele>73.0</ele><time>2026-04-04T11:17:06Z</time></trkpt><trkpt lat="42.777000190724074" lon="2.6966013192791904"><ele>73.0</ele><time>2026-04-04T11:17:07Z</time></trkpt><trkpt lat="42.77705771203992" lon="2.6966379369402524"><ele>73.0</ele><time>2026-04-04T11:17:08Z</time></trkpt><trkpt lat="42.777161246557505" lon="2.69669863331265"><ele>74.6</ele><time>2026-04-04T11:17:10Z</time></trkpt><trkpt lat="42.77724919972067" lon="2.696755316574092"><ele>76.19999999999999</ele><time>2026-04-04T11:17:12Z</time></trkpt><trkpt lat="42.777323047213216" lon="2.6969306854897357"><ele>77.8</ele><time>2026-04-04T11:17:14Z</time></trkpt><trkpt lat="42.7773141249531" lon="2.697035830094672"><ele>79.39999999999999</ele><time>2026-04-04T11:17:15Z</time></trkpt><trkpt lat="42.77723603360298" lon="2.6970861539408704"><ele>81.0</ele><time>2026-04-04T11:17:16Z</time></trkpt><trkpt lat="42.77713497627433" lon="2.6972065285445637"><ele>80.2</ele><time>2026-04-04T11:17:18Z</time></trkpt><trkpt lat="42.7770683815261" lon="2.697289260421618"><ele>79.39999999999999</ele><time>2026-04-04T11:17:19Z</time></trkpt><trkpt lat="42.77699868148857" lon="2.6973787521921135"><ele>78.6</ele><time>2026-04-04T11:17:20Z</time></trkpt><trkpt lat="42.77692169691746" lon="2.697475514993734"><ele>77.8</ele><time>2026-04-04T11:17:21Z</time></trkpt><trkpt lat="42.77684151414497" lon="2.697582105608043"><ele>77.0</ele><time>2026-04-04T11:17:22Z</time></trkpt><trkpt lat="42.77675949461586" lon="2.697692419321342"><ele>78.0</ele><time>2026-04-04T11:17:23Z</time></trkpt><trkpt lat="42.77667634556468" lon="2.697804746706959"><ele>79.0</ele><time>2026-04-04T11:17:24Z</time></trkpt><trkpt lat="42.7765943860593" lon="2.6979200143273028"><ele>80.0</ele><time>2026-04-04T11:17:25Z</time></trkpt><trkpt lat="42.77651728420821" lon="2.698043763318457"><ele>81.0</ele><time>2026-04-04T11:17:26Z</time></trkpt><trkpt lat="42.776446319086936" lon="2.6981764125889396"><ele>81.0</ele><time>2026-04-04T11:17:27Z</time></trkpt><trkpt lat="42.77637860004469" lon="2.69831641009027"><ele>81.0</ele><time>2026-04-04T11:17:28Z</time></trkpt><trkpt lat="42.776318587853446" lon="2.698464253562431"><ele>81.0</ele><time>2026-04-04T11:17:29Z</time></trkpt><trkpt lat="42.77626233649681" lon="2.6986142827100705"><ele>81.0</ele><time>2026-04-04T11:17:30Z</time></trkpt><trkpt lat="42.77620607257749" lon="2.6987656200320416"><ele>81.6</ele><time>2026-04-04T11:17:31Z</time></trkpt><trkpt lat="42.77615740745065" lon="2.698913294138168"><ele>82.19999999999999</ele><time>2026-04-04T11:17:32Z</time></trkpt><trkpt lat="42.77611260637883" lon="2.6990456992268794"><ele>82.80000000000001</ele><time>2026-04-04T11:17:33Z</time></trkpt><trkpt lat="42.77607169152591" lon="2.6991669048142346"><ele>83.4</ele><time>2026-04-04T11:17:34Z</time></trkpt><trkpt lat="42.776036422521315" lon="2.6992807071096534"><ele>84.0</ele><time>2026-04-04T11:17:35Z</time></trkpt><trkpt lat="42.77600269670272" lon="2.699404202175382"><ele>82.4</ele><time>2026-04-04T11:17:36Z</time></trkpt><trkpt lat="42.775969466124266" lon="2.699531113952024"><ele>80.80000000000001</ele><time>2026-04-04T11:17:37Z</time></trkpt><trkpt lat="42.77594418455636" lon="2.699656439854369"><ele>79.19999999999999</ele><time>2026-04-04T11:17:38Z</time></trkpt><trkpt lat="42.7759183516939" lon="2.6997863076071074"><ele>77.6</ele><time>2026-04-04T11:17:39Z</time></trkpt><trkpt lat="42.77588940279764" lon="2.6999158632777216"><ele>76.0</ele><time>2026-04-04T11:17:40Z</time></trkpt><trkpt lat="42.775864800697676" lon="2.70003281991227"><ele>76.0</ele><time>2026-04-04T11:17:41Z</time></trkpt><trkpt lat="42.775841572248034" lon="2.7001401915949566"><ele>76.0</ele><time>2026-04-04T11:17:42Z</time></trkpt><trkpt lat="42.77581661444292" lon="2.7002362509703124"><ele>76.0</ele><time>2026-04-04T11:17:43Z</time></trkpt><trkpt lat="42.77579066789704" lon="2.7003197622963517"><ele>76.0</ele><time>2026-04-04T11:17:44Z</time></trkpt><trkpt lat="42.77571953054762" lon="2.7004485801720692"><ele>76.0</ele><time>2026-04-04T11:17:46Z</time></trkpt><trkpt lat="42.77563962133467" lon="2.7004669906078766"><ele>76.0</ele><time>2026-04-04T11:17:48Z</time></trkpt><trkpt lat="42.77568006396858" lon="2.700563639295247"><ele>76.2</ele><time>2026-04-04T11:18:13Z</time></trkpt><trkpt lat="42.775627935820715" lon="2.700625759639825"><ele>76.39999999999999</ele><time>2026-04-04T11:18:15Z</time></trkpt><trkpt lat="42.77564829924395" lon="2.7007100762788094"><ele>76.6</ele><time>2026-04-04T11:18:16Z</time></trkpt><trkpt lat="42.77563091031564" lon="2.700811401436273"><ele>76.8</ele><time>2026-04-04T11:18:17Z</time></trkpt><trkpt lat="42.775586616378035" lon="2.7009320470542826"><ele>77.0</ele><time>2026-04-04T11:18:18Z</time></trkpt><trkpt lat="42.7755297259563" lon="2.70111216294028"><ele>78.33333333333334</ele><time>2026-04-04T11:18:19Z</time></trkpt><trkpt lat="42.7754629898324" lon="2.7013418341068896"><ele>79.66666666666667</ele><time>2026-04-04T11:18:20Z</time></trkpt><trkpt lat="42.77541302322295" lon="2.7015538085271507"><ele>81.0</ele><time>2026-04-04T11:18:21Z</time></trkpt><trkpt lat="42.77538259485285" lon="2.701783920428337"><ele>80.0</ele><time>2026-04-04T11:18:22Z</time></trkpt><trkpt lat="42.77537388567856" lon="2.7020191306718506"><ele>79.0</ele><time>2026-04-04T11:18:23Z</time></trkpt><trkpt lat="42.775380670962186" lon="2.702254987724976"><ele>78.0</ele><time>2026-04-04T11:18:24Z</time></trkpt><trkpt lat="42.77538319678758" lon="2.702511293925856"><ele>77.0</ele><time>2026-04-04T11:18:25Z</time></trkpt><trkpt lat="42.77538676891226" lon="2.7027685940641195"><ele>76.0</ele><time>2026-04-04T11:18:26.001Z</time></trkpt><trkpt lat="42.77539235856941" lon="2.703014664006613"><ele>75.0</ele><time>2026-04-04T11:18:27.001Z</time></trkpt><trkpt lat="42.77540633041603" lon="2.7032633769660253"><ele>75.0</ele><time>2026-04-04T11:18:28.001Z</time></trkpt><trkpt lat="42.77542766811126" lon="2.703510902788978"><ele>75.0</ele><time>2026-04-04T11:18:29.001Z</time></trkpt><trkpt lat="42.77545450973372" lon="2.7037569447713063"><ele>75.0</ele><time>2026-04-04T11:18:30.001Z</time></trkpt><trkpt lat="42.77548241585916" lon="2.704005812437284"><ele>74.33333333333333</ele><time>2026-04-04T11:18:31.001Z</time></trkpt><trkpt lat="42.77550913993748" lon="2.704246903125792"><ele>73.66666666666666</ele><time>2026-04-04T11:18:32.001Z</time></trkpt><trkpt lat="42.775535669061284" lon="2.7045002297610656"><ele>73.0</ele><time>2026-04-04T11:18:33.001Z</time></trkpt><trkpt lat="42.77555854566262" lon="2.70474607268401"><ele>72.66666666666666</ele><time>2026-04-04T11:18:34.001Z</time></trkpt><trkpt lat="42.77558697016789" lon="2.7049966255409927"><ele>72.33333333333333</ele><time>2026-04-04T11:18:35.001Z</time></trkpt><trkpt lat="42.77562042610952" lon="2.7052246587559776"><ele>72.0</ele><time>2026-04-04T11:18:36.001Z</time></trkpt><trkpt lat="42.77566538414193" lon="2.7054334732983536"><ele>71.66666666666667</ele><time>2026-04-04T11:18:37.001Z</time></trkpt><trkpt lat="42.775727834354356" lon="2.705640460468837"><ele>71.33333333333334</ele><time>2026-04-04T11:18:38.001Z</time></trkpt><trkpt lat="42.77581098352184" lon="2.7058604223573592"><ele>71.0</ele><time>2026-04-04T11:18:39.001Z</time></trkpt><trkpt lat="42.77590793708599" lon="2.7060691132204995"><ele>70.33333333333334</ele><time>2026-04-04T11:18:40.001Z</time></trkpt><trkpt lat="42.776016590207306" lon="2.7062737202345084"><ele>69.66666666666667</ele><time>2026-04-04T11:18:41.001Z</time></trkpt><trkpt lat="42.77613978272361" lon="2.70646453009803"><ele>69.0</ele><time>2026-04-04T11:18:42.001Z</time></trkpt><trkpt lat="42.77626365726384" lon="2.706648567385863"><ele>69.75</ele><time>2026-04-04T11:18:43.001Z</time></trkpt><trkpt lat="42.77637528212344" lon="2.7068159718073006"><ele>70.5</ele><time>2026-04-04T11:18:44.001Z</time></trkpt><trkpt lat="42.776475196539046" lon="2.7069614461899856"><ele>71.25</ele><time>2026-04-04T11:18:45.001Z</time></trkpt><trkpt lat="42.77656461191341" lon="2.707094139362007"><ele>72.0</ele><time>2026-04-04T11:18:46.001Z</time></trkpt><trkpt lat="42.776648059050395" lon="2.7072197926104797"><ele>72.0</ele><time>2026-04-04T11:18:47.001Z</time></trkpt><trkpt lat="42.77672180113458" lon="2.7073425344530913"><ele>72.0</ele><time>2026-04-04T11:18:48.001Z</time></trkpt><trkpt lat="42.77678382561592" lon="2.7074606883581387"><ele>72.0</ele><time>2026-04-04T11:18:49.001Z</time></trkpt><trkpt lat="42.7768371795007" lon="2.7075802124633785"><ele>72.0</ele><time>2026-04-04T11:18:50.001Z</time></trkpt><trkpt lat="42.776904228982694" lon="2.7076640638725435"><ele>72.0</ele><time>2026-04-04T11:18:51.001Z</time></trkpt><trkpt lat="42.77690220489256" lon="2.7077946581588788"><ele>74.83333333333333</ele><time>2026-04-04T11:18:52.001Z</time></trkpt><trkpt lat="42.77694151867153" lon="2.707879908495168"><ele>77.66666666666667</ele><time>2026-04-04T11:18:53.001Z</time></trkpt><trkpt lat="42.777054693627086" lon="2.7079895019690623"><ele>80.5</ele><time>2026-04-04T11:18:55.001Z</time></trkpt><trkpt lat="42.777086471374346" lon="2.7080761134692133"><ele>83.33333333333334</ele><time>2026-04-04T11:18:56.001Z</time></trkpt><trkpt lat="42.777103205622645" lon="2.7081654160284976"><ele>86.16666666666667</ele><time>2026-04-04T11:18:57.001Z</time></trkpt><trkpt lat="42.77712280176648" lon="2.708260150261691"><ele>89.0</ele><time>2026-04-04T11:18:58.001Z</time></trkpt><trkpt lat="42.777147215392574" lon="2.7083550576309428"><ele>89.0</ele><time>2026-04-04T11:18:59.001Z</time></trkpt><trkpt lat="42.777167217015155" lon="2.708452727084633"><ele>89.0</ele><time>2026-04-04T11:19:00.001Z</time></trkpt><trkpt lat="42.7772046084235" lon="2.7086259779235338"><ele>89.0</ele><time>2026-04-04T11:19:01.001Z</time></trkpt><trkpt lat="42.777233567622844" lon="2.708859659837849"><ele>89.0</ele><time>2026-04-04T11:19:02.001Z</time></trkpt><trkpt lat="42.77727440400005" lon="2.709036388095556"><ele>87.5</ele><time>2026-04-04T11:19:03.001Z</time></trkpt><trkpt lat="42.77731608937662" lon="2.7091826826229934"><ele>86.0</ele><time>2026-04-04T11:19:04.001Z</time></trkpt><trkpt lat="42.7773480932805" lon="2.709319886346045"><ele>84.5</ele><time>2026-04-04T11:19:05.001Z</time></trkpt><trkpt lat="42.777381975381616" lon="2.709477860514116"><ele>83.0</ele><time>2026-04-04T11:19:06.001Z</time></trkpt><trkpt lat="42.7774126328707" lon="2.7096253210370698"><ele>81.80000000000001</ele><time>2026-04-04T11:19:07.001Z</time></trkpt><trkpt lat="42.77744835416947" lon="2.7097687832058375"><ele>80.60000000000001</ele><time>2026-04-04T11:19:08.001Z</time></trkpt><trkpt lat="42.777486678773975" lon="2.709900106975095"><ele>79.4</ele><time>2026-04-04T11:19:09.001Z</time></trkpt><trkpt lat="42.7775337955522" lon="2.710041405055673"><ele>78.2</ele><time>2026-04-04T11:19:10Z</time></trkpt><trkpt lat="42.77758697515236" lon="2.7101819593571217"><ele>77.0</ele><time>2026-04-04T11:19:11Z</time></trkpt><trkpt lat="42.77763295764869" lon="2.710315752436118"><ele>76.25</ele><time>2026-04-04T11:19:12Z</time></trkpt><trkpt lat="42.77767570487777" lon="2.710459248309604"><ele>75.5</ele><time>2026-04-04T11:19:13Z</time></trkpt><trkpt lat="42.777708218991215" lon="2.710611897091799"><ele>74.75</ele><time>2026-04-04T11:19:14Z</time></trkpt><trkpt lat="42.777720759624316" lon="2.7107870523494806"><ele>74.0</ele><time>2026-04-04T11:19:15Z</time></trkpt><trkpt lat="42.77773105574169" lon="2.7109585298803824"><ele>78.75</ele><time>2026-04-04T11:19:16Z</time></trkpt><trkpt lat="42.777730878476376" lon="2.711131136218923"><ele>83.5</ele><time>2026-04-04T11:19:17Z</time></trkpt><trkpt lat="42.77773079435598" lon="2.7113184760611606"><ele>88.25</ele><time>2026-04-04T11:19:18Z</time></trkpt><trkpt lat="42.77773515512729" lon="2.711504159966351"><ele>93.0</ele><time>2026-04-04T11:19:19Z</time></trkpt><trkpt lat="42.77773942560456" lon="2.711683563588815"><ele>93.0</ele><time>2026-04-04T11:19:20Z</time></trkpt><trkpt lat="42.77774785575316" lon="2.7118682498034907"><ele>93.0</ele><time>2026-04-04T11:19:21Z</time></trkpt><trkpt lat="42.777762500392576" lon="2.7120308586782653"><ele>93.0</ele><time>2026-04-04T11:19:22Z</time></trkpt><trkpt lat="42.777779246650404" lon="2.71219903770119"><ele>93.0</ele><time>2026-04-04T11:19:23Z</time></trkpt><trkpt lat="42.77779528894948" lon="2.7123587384656607"><ele>91.5</ele><time>2026-04-04T11:19:24Z</time></trkpt><trkpt lat="42.77781341160464" lon="2.71252473349845"><ele>90.0</ele><time>2026-04-04T11:19:25Z</time></trkpt><trkpt lat="42.77783312589248" lon="2.7126957866587835"><ele>88.5</ele><time>2026-04-04T11:19:26Z</time></trkpt><trkpt lat="42.777838129579784" lon="2.7128593121851714"><ele>87.0</ele><time>2026-04-04T11:19:27Z</time></trkpt><trkpt lat="42.777822934913985" lon="2.713026229799671"><ele>86.25</ele><time>2026-04-04T11:19:28Z</time></trkpt><trkpt lat="42.777790605982375" lon="2.7131875116295805"><ele>85.5</ele><time>2026-04-04T11:19:29Z</time></trkpt><trkpt lat="42.7777544106516" lon="2.7133545672832424"><ele>84.75</ele><time>2026-04-04T11:19:30Z</time></trkpt><trkpt lat="42.777744301707465" lon="2.7135170389979937"><ele>84.0</ele><time>2026-04-04T11:19:31Z</time></trkpt><trkpt lat="42.77773566299704" lon="2.713652035344364"><ele>83.2</ele><time>2026-04-04T11:19:32Z</time></trkpt><trkpt lat="42.77773602456162" lon="2.71378098459213"><ele>82.4</ele><time>2026-04-04T11:19:33Z</time></trkpt><trkpt lat="42.777804413670744" lon="2.7139019202495835"><ele>81.6</ele><time>2026-04-04T11:19:34Z</time></trkpt><trkpt lat="42.77785586042154" lon="2.714014945421091"><ele>80.8</ele><time>2026-04-04T11:19:35Z</time></trkpt><trkpt lat="42.777895446978036" lon="2.714152732410172"><ele>80.0</ele><time>2026-04-04T11:19:36Z</time></trkpt><trkpt lat="42.77793847305725" lon="2.7142841691919144"><ele>79.0</ele><time>2026-04-04T11:19:37Z</time></trkpt><trkpt lat="42.77795802683376" lon="2.7144198605859704"><ele>78.0</ele><time>2026-04-04T11:19:38Z</time></trkpt><trkpt lat="42.77796176005618" lon="2.714567968838669"><ele>77.0</ele><time>2026-04-04T11:19:39Z</time></trkpt><trkpt lat="42.77796663506631" lon="2.7147217532200054"><ele>76.0</ele><time>2026-04-04T11:19:40Z</time></trkpt><trkpt lat="42.77799062779252" lon="2.714887961527866"><ele>75.0</ele><time>2026-04-04T11:19:41Z</time></trkpt><trkpt lat="42.77798840496041" lon="2.7150841330134527"><ele>73.66666666666667</ele><time>2026-04-04T11:19:42Z</time></trkpt><trkpt lat="42.778016192123104" lon="2.715283874699414"><ele>72.33333333333334</ele><time>2026-04-04T11:19:43Z</time></trkpt><trkpt lat="42.778036795844436" lon="2.7154918708072255"><ele>71.0</ele><time>2026-04-04T11:19:44Z</time></trkpt><trkpt lat="42.7780867349975" lon="2.715776464935565"><ele>71.0</ele><time>2026-04-04T11:19:45Z</time></trkpt><trkpt lat="42.77811947619516" lon="2.7160068065701246"><ele>71.0</ele><time>2026-04-04T11:19:46Z</time></trkpt><trkpt lat="42.77815881884439" lon="2.7162009602353216"><ele>71.0</ele><time>2026-04-04T11:19:47Z</time></trkpt><trkpt lat="42.778207246981" lon="2.716378681559237"><ele>70.25</ele><time>2026-04-04T11:19:48Z</time></trkpt><trkpt lat="42.778257644565876" lon="2.716549346716353"><ele>69.5</ele><time>2026-04-04T11:19:49Z</time></trkpt><trkpt lat="42.7783034955081" lon="2.7167045884646983"><ele>68.75</ele><time>2026-04-04T11:19:50Z</time></trkpt><trkpt lat="42.77835622076733" lon="2.7168340584214805"><ele>68.0</ele><time>2026-04-04T11:19:51Z</time></trkpt><trkpt lat="42.778404760910234" lon="2.7169515947615985"><ele>68.0</ele><time>2026-04-04T11:19:52Z</time></trkpt><trkpt lat="42.778476837610846" lon="2.7170299553366366"><ele>68.0</ele><time>2026-04-04T11:19:53Z</time></trkpt><trkpt lat="42.778566107585995" lon="2.717022205866192"><ele>68.0</ele><time>2026-04-04T11:19:54Z</time></trkpt><trkpt lat="42.77863516826357" lon="2.716974529318227"><ele>68.0</ele><time>2026-04-04T11:19:55Z</time></trkpt><trkpt lat="42.7786523284604" lon="2.7168670654779543"><ele>68.0</ele><time>2026-04-04T11:19:56Z</time></trkpt><trkpt lat="42.7786576005299" lon="2.716728260245934"><ele>68.0</ele><time>2026-04-04T11:19:57Z</time></trkpt><trkpt lat="42.7787011603774" lon="2.716582799279156"><ele>68.16666666666667</ele><time>2026-04-04T11:19:58Z</time></trkpt><trkpt lat="42.77872491395873" lon="2.716467500141198"><ele>68.33333333333334</ele><time>2026-04-04T11:19:59Z</time></trkpt><trkpt lat="42.77873419705422" lon="2.716378319388327"><ele>68.5</ele><time>2026-04-04T11:20:00Z</time></trkpt><trkpt lat="42.7787975546112" lon="2.71635911290557"><ele>68.66666666666667</ele><time>2026-04-04T11:20:12Z</time></trkpt><trkpt lat="42.77883427489914" lon="2.716211053693991"><ele>68.83333333333333</ele><time>2026-04-04T11:20:15Z</time></trkpt><trkpt lat="42.77894177429782" lon="2.71616029822483"><ele>69.0</ele><time>2026-04-04T11:20:17Z</time></trkpt><trkpt lat="42.77899235738239" lon="2.7161016514272758"><ele>68.60000000000001</ele><time>2026-04-04T11:20:18Z</time></trkpt><trkpt lat="42.778953571666854" lon="2.715892387743959"><ele>68.2</ele><time>2026-04-04T11:20:19Z</time></trkpt><trkpt lat="42.778985767709365" lon="2.715810406533036"><ele>67.80000000000001</ele><time>2026-04-04T11:20:20Z</time></trkpt><trkpt lat="42.77902139907163" lon="2.715703425425988"><ele>67.4</ele><time>2026-04-04T11:20:21Z</time></trkpt><trkpt lat="42.77905130173649" lon="2.7155984241769877"><ele>67.0</ele><time>2026-04-04T11:20:22Z</time></trkpt><trkpt lat="42.77904888410045" lon="2.7154394216171323"><ele>67.0</ele><time>2026-04-04T11:20:23Z</time></trkpt><trkpt lat="42.779065520909" lon="2.7152648426851353"><ele>67.0</ele><time>2026-04-04T11:20:24Z</time></trkpt><trkpt lat="42.779082508235824" lon="2.7150994726094275"><ele>67.0</ele><time>2026-04-04T11:20:25Z</time></trkpt><trkpt lat="42.77908156486454" lon="2.7149427523553706"><ele>67.0</ele><time>2026-04-04T11:20:26Z</time></trkpt><trkpt lat="42.779078382530386" lon="2.7148290682170053"><ele>67.0</ele><time>2026-04-04T11:20:27Z</time></trkpt><trkpt lat="42.77908762395" lon="2.7146928918150146"><ele>67.0</ele><time>2026-04-04T11:20:28Z</time></trkpt><trkpt lat="42.77913555501634" lon="2.7145435114793015"><ele>67.0</ele><time>2026-04-04T11:20:29Z</time></trkpt><trkpt lat="42.77917272155669" lon="2.7143956259871613"><ele>67.0</ele><time>2026-04-04T11:20:30Z</time></trkpt><trkpt lat="42.779194328616825" lon="2.7142834230559587"><ele>67.0</ele><time>2026-04-04T11:20:31Z</time></trkpt><trkpt lat="42.77919978435194" lon="2.714147619562777"><ele>67.5</ele><time>2026-04-04T11:20:32.001Z</time></trkpt><trkpt lat="42.779212095565484" lon="2.713992583930275"><ele>68.0</ele><time>2026-04-04T11:20:33.001Z</time></trkpt><trkpt lat="42.77921400038002" lon="2.713819586856862"><ele>68.5</ele><time>2026-04-04T11:20:34.001Z</time></trkpt><trkpt lat="42.779224242024654" lon="2.713665376905736"><ele>69.0</ele><time>2026-04-04T11:20:35.001Z</time></trkpt><trkpt lat="42.77924355881312" lon="2.7135292072584867"><ele>69.0</ele><time>2026-04-04T11:20:36.001Z</time></trkpt><trkpt lat="42.779265169659986" lon="2.7133771599743164"><ele>69.0</ele><time>2026-04-04T11:20:37.001Z</time></trkpt><trkpt lat="42.7792859977309" lon="2.7132195921316673"><ele>69.0</ele><time>2026-04-04T11:20:38.001Z</time></trkpt><trkpt lat="42.779307024312345" lon="2.7130596332598196"><ele>69.0</ele><time>2026-04-04T11:20:39.001Z</time></trkpt><trkpt lat="42.779323270669416" lon="2.7128770325215257"><ele>69.8</ele><time>2026-04-04T11:20:40.001Z</time></trkpt><trkpt lat="42.77932870214303" lon="2.712725203545538"><ele>70.60000000000001</ele><time>2026-04-04T11:20:41.001Z</time></trkpt><trkpt lat="42.77933692890824" lon="2.7125840630534297"><ele>71.4</ele><time>2026-04-04T11:20:42.001Z</time></trkpt><trkpt lat="42.77934258413741" lon="2.7124671378465077"><ele>72.2</ele><time>2026-04-04T11:20:43.001Z</time></trkpt><trkpt lat="42.779338569506976" lon="2.7123809167397006"><ele>73.0</ele><time>2026-04-04T11:20:44.001Z</time></trkpt><trkpt lat="42.779325215046185" lon="2.7122650473140695"><ele>74.83333333333333</ele><time>2026-04-04T11:20:46.001Z</time></trkpt><trkpt lat="42.77937231349896" lon="2.7121709291532548"><ele>76.66666666666666</ele><time>2026-04-04T11:21:58Z</time></trkpt><trkpt lat="42.779446634894086" lon="2.7121163502418333"><ele>78.5</ele><time>2026-04-04T11:22:02Z</time></trkpt><trkpt lat="42.7795034343268" lon="2.7120723300997143"><ele>80.33333333333333</ele><time>2026-04-04T11:22:06Z</time></trkpt><trkpt lat="42.77958397492209" lon="2.71202452864231"><ele>82.16666666666667</ele><time>2026-04-04T11:22:13Z</time></trkpt><trkpt lat="42.77966114487517" lon="2.71200579680608"><ele>84.0</ele><time>2026-04-04T11:22:16Z</time></trkpt><trkpt lat="42.779728763205505" lon="2.7119743006765997"><ele>84.0</ele><time>2026-04-04T11:22:24Z</time></trkpt><trkpt lat="42.77980200235036" lon="2.7119068036551983"><ele>84.0</ele><time>2026-04-04T11:22:27Z</time></trkpt><trkpt lat="42.779830969568714" lon="2.7117603355817237"><ele>84.0</ele><time>2026-04-04T11:22:29Z</time></trkpt><trkpt lat="42.779822472038376" lon="2.7116128709100416"><ele>84.0</ele><time>2026-04-04T11:22:31Z</time></trkpt><trkpt lat="42.77979806594516" lon="2.711419266515307"><ele>84.6</ele><time>2026-04-04T11:22:33Z</time></trkpt><trkpt lat="42.779788407196186" lon="2.711254662586759"><ele>85.2</ele><time>2026-04-04T11:22:35Z</time></trkpt><trkpt lat="42.77978526608053" lon="2.7111685122481854"><ele>85.8</ele><time>2026-04-04T11:22:36Z</time></trkpt><trkpt lat="42.77977370042317" lon="2.7109990651848768"><ele>86.39999999999999</ele><time>2026-04-04T11:22:38.001Z</time></trkpt><trkpt lat="42.77976915400546" lon="2.710829722982632"><ele>87.0</ele><time>2026-04-04T11:22:40.001Z</time></trkpt><trkpt lat="42.779764993403525" lon="2.7107147384192656"><ele>87.6</ele><time>2026-04-04T11:22:42.001Z</time></trkpt><trkpt lat="42.779733176711254" lon="2.7105637777736327"><ele>88.19999999999999</ele><time>2026-04-04T11:22:44.001Z</time></trkpt><trkpt lat="42.77970029611607" lon="2.7104529540674163"><ele>88.8</ele><time>2026-04-04T11:22:45.001Z</time></trkpt><trkpt lat="42.77968377278022" lon="2.7102761009748093"><ele>89.4</ele><time>2026-04-04T11:22:47.001Z</time></trkpt><trkpt lat="42.779663455989244" lon="2.7101396315541595"><ele>90.0</ele><time>2026-04-04T11:22:49.001Z</time></trkpt><trkpt lat="42.779658347218835" lon="2.7100229536520235"><ele>90.0</ele><time>2026-04-04T11:22:51.001Z</time></trkpt><trkpt lat="42.77963980015379" lon="2.709877234891155"><ele>90.0</ele><time>2026-04-04T11:22:53.001Z</time></trkpt><trkpt lat="42.77963740657158" lon="2.7097891414647095"><ele>90.0</ele><time>2026-04-04T11:22:54.001Z</time></trkpt><trkpt lat="42.77962738815375" lon="2.7097001013587034"><ele>90.0</ele><time>2026-04-04T11:22:55.001Z</time></trkpt><trkpt lat="42.77960541767426" lon="2.70954897005033"><ele>90.0</ele><time>2026-04-04T11:22:57.001Z</time></trkpt><trkpt lat="42.779591602664865" lon="2.709398040867678"><ele>90.4</ele><time>2026-04-04T11:22:59.001Z</time></trkpt><trkpt lat="42.77958226766575" lon="2.7092360221239145"><ele>90.8</ele><time>2026-04-04T11:23:01.001Z</time></trkpt><trkpt lat="42.779576565821216" lon="2.709125992309128"><ele>91.19999999999999</ele><time>2026-04-04T11:23:03Z</time></trkpt><trkpt lat="42.77953523972746" lon="2.708991703941334"><ele>91.6</ele><time>2026-04-04T11:23:04Z</time></trkpt><trkpt lat="42.77950367219217" lon="2.708899982099278"><ele>92.0</ele><time>2026-04-04T11:23:05Z</time></trkpt><trkpt lat="42.77946919983347" lon="2.708805759576745"><ele>92.0</ele><time>2026-04-04T11:23:06Z</time></trkpt><trkpt lat="42.779433004682964" lon="2.708717724959529"><ele>92.0</ele><time>2026-04-04T11:23:07Z</time></trkpt><trkpt lat="42.77939533722232" lon="2.7086269718901748"><ele>92.0</ele><time>2026-04-04T11:23:08Z</time></trkpt><trkpt lat="42.779354858584774" lon="2.708537557050828"><ele>92.0</ele><time>2026-04-04T11:23:09Z</time></trkpt><trkpt lat="42.779321235355404" lon="2.708445078405178"><ele>92.0</ele><time>2026-04-04T11:23:10Z</time></trkpt><trkpt lat="42.779293574181644" lon="2.708329853829051"><ele>92.0</ele><time>2026-04-04T11:23:11Z</time></trkpt><trkpt lat="42.77927418863629" lon="2.7082115167820513"><ele>89.16666666666667</ele><time>2026-04-04T11:23:12Z</time></trkpt><trkpt lat="42.77925254776133" lon="2.708092447736942"><ele>86.33333333333334</ele><time>2026-04-04T11:23:13Z</time></trkpt><trkpt lat="42.77924066277477" lon="2.7079731612636375"><ele>83.5</ele><time>2026-04-04T11:23:14Z</time></trkpt><trkpt lat="42.77921424663002" lon="2.7078528546426286"><ele>80.66666666666667</ele><time>2026-04-04T11:23:15Z</time></trkpt><trkpt lat="42.779196883552004" lon="2.7077367799220378"><ele>77.83333333333333</ele><time>2026-04-04T11:23:16Z</time></trkpt><trkpt lat="42.77918429972625" lon="2.7076400862230305"><ele>75.0</ele><time>2026-04-04T11:23:17Z</time></trkpt><trkpt lat="42.77917482733525" lon="2.7075288801310013"><ele>75.0</ele><time>2026-04-04T11:23:18Z</time></trkpt><trkpt lat="42.779175556646535" lon="2.707371503113993"><ele>75.0</ele><time>2026-04-04T11:23:20Z</time></trkpt><trkpt lat="42.779193585805075" lon="2.7072722967548324"><ele>75.0</ele><time>2026-04-04T11:23:21Z</time></trkpt><trkpt lat="42.77921948059514" lon="2.707167009064562"><ele>75.0</ele><time>2026-04-04T11:23:22Z</time></trkpt><trkpt lat="42.77924651954205" lon="2.707051358514513"><ele>75.0</ele><time>2026-04-04T11:23:23Z</time></trkpt><trkpt lat="42.77927006349182" lon="2.706931277437123"><ele>75.16666666666667</ele><time>2026-04-04T11:23:24Z</time></trkpt><trkpt lat="42.77929240664705" lon="2.706810972276329"><ele>75.33333333333333</ele><time>2026-04-04T11:23:25Z</time></trkpt><trkpt lat="42.77931758370349" lon="2.7066938809239693"><ele>75.5</ele><time>2026-04-04T11:23:26Z</time></trkpt><trkpt lat="42.779350068791615" lon="2.7065728766618617"><ele>75.66666666666666</ele><time>2026-04-04T11:23:27Z</time></trkpt><trkpt lat="42.77938099023915" lon="2.70646526535244"><ele>75.83333333333333</ele><time>2026-04-04T11:23:28Z</time></trkpt><trkpt lat="42.77941744506158" lon="2.7063647332810215"><ele>76.0</ele><time>2026-04-04T11:23:29Z</time></trkpt><trkpt lat="42.7794759658096" lon="2.7062565350770216"><ele>77.5</ele><time>2026-04-04T11:23:30Z</time></trkpt><trkpt lat="42.779539910170314" lon="2.7061497990233745"><ele>79.0</ele><time>2026-04-04T11:23:31Z</time></trkpt><trkpt lat="42.779603941357195" lon="2.7060650013468477"><ele>80.5</ele><time>2026-04-04T11:23:32Z</time></trkpt><trkpt lat="42.7796668232514" lon="2.7059830719052793"><ele>82.0</ele><time>2026-04-04T11:23:33Z</time></trkpt><trkpt lat="42.77971583796409" lon="2.7059064571959444"><ele>83.5</ele><time>2026-04-04T11:23:34Z</time></trkpt><trkpt lat="42.77975164634961" lon="2.7058218057616763"><ele>85.0</ele><time>2026-04-04T11:23:35Z</time></trkpt><trkpt lat="42.77979499696575" lon="2.7056962203686594"><ele>85.0</ele><time>2026-04-04T11:23:36Z</time></trkpt><trkpt lat="42.77984937738025" lon="2.705573535306389"><ele>85.0</ele><time>2026-04-04T11:23:37Z</time></trkpt><trkpt lat="42.77989716541986" lon="2.7054555851314754"><ele>85.0</ele><time>2026-04-04T11:23:38Z</time></trkpt><trkpt lat="42.77994825250382" lon="2.7053459519799508"><ele>85.0</ele><time>2026-04-04T11:23:39Z</time></trkpt><trkpt lat="42.780002089412505" lon="2.7052450400887422"><ele>85.0</ele><time>2026-04-04T11:23:40Z</time></trkpt><trkpt lat="42.78004565696349" lon="2.705160830260661"><ele>84.33333333333333</ele><time>2026-04-04T11:23:41Z</time></trkpt><trkpt lat="42.78008554035923" lon="2.7050921712421125"><ele>83.66666666666666</ele><time>2026-04-04T11:23:42Z</time></trkpt><trkpt lat="42.78015239127427" lon="2.7049786096783435"><ele>83.0</ele><time>2026-04-04T11:23:44Z</time></trkpt><trkpt lat="42.78020149638316" lon="2.704876044679207"><ele>82.33333333333333</ele><time>2026-04-04T11:23:46Z</time></trkpt><trkpt lat="42.78012398210019" lon="2.7048001918197415"><ele>81.66666666666667</ele><time>2026-04-04T11:23:48Z</time></trkpt><trkpt lat="42.78005359564525" lon="2.7047780137210538"><ele>81.0</ele><time>2026-04-04T11:23:50Z</time></trkpt><trkpt lat="42.78000194699517" lon="2.704679118478317"><ele>79.83333333333333</ele><time>2026-04-04T11:23:55Z</time></trkpt><trkpt lat="42.7800425695097" lon="2.7045942166538013"><ele>78.66666666666667</ele><time>2026-04-04T11:23:58Z</time></trkpt><trkpt lat="42.780121384438935" lon="2.704528834124288"><ele>77.5</ele><time>2026-04-04T11:24:00Z</time></trkpt><trkpt lat="42.780121606631525" lon="2.7044332299663507"><ele>76.33333333333334</ele><time>2026-04-04T11:24:03Z</time></trkpt><trkpt lat="42.78013457840741" lon="2.7043151117487674"><ele>75.16666666666667</ele><time>2026-04-04T11:24:06Z</time></trkpt><trkpt lat="42.78010271193377" lon="2.7042360715924563"><ele>74.0</ele><time>2026-04-04T11:24:08Z</time></trkpt><trkpt lat="42.78006934311537" lon="2.704162095546366"><ele>74.0</ele><time>2026-04-04T11:24:12Z</time></trkpt><trkpt lat="42.78004611434883" lon="2.704077215711396"><ele>74.0</ele><time>2026-04-04T11:25:12Z</time></trkpt><trkpt lat="42.78002683783078" lon="2.703994662837813"><ele>74.0</ele><time>2026-04-04T11:25:19Z</time></trkpt><trkpt lat="42.780076318963935" lon="2.704131823039297"><ele>74.0</ele><time>2026-04-04T11:26:53.999Z</time></trkpt><trkpt lat="42.78008434032609" lon="2.704046714851833"><ele>74.0</ele><time>2026-04-04T11:26:59.999Z</time></trkpt><trkpt lat="42.780095590536675" lon="2.7039582607745913"><ele>74.0</ele><time>2026-04-04T11:27:04.999Z</time></trkpt><trkpt lat="42.780159292417" lon="2.7039317310044466"><ele>74.0</ele><time>2026-04-04T11:27:36.999Z</time></trkpt><trkpt lat="42.78016835810856" lon="2.7040483443638514"><ele>74.0</ele><time>2026-04-04T11:27:50.999Z</time></trkpt><trkpt lat="42.780119909133745" lon="2.703987193924361"><ele>74.0</ele><time>2026-04-04T11:29:00.999Z</time></trkpt><trkpt lat="42.78013969271783" lon="2.703904858741993"><ele>74.0</ele><time>2026-04-04T11:29:09.999Z</time></trkpt><trkpt lat="42.7801161251025" lon="2.704000918018969"><ele>74.0</ele><time>2026-04-04T11:31:14.999Z</time></trkpt><trkpt lat="42.78012128004239" lon="2.7039137170238323"><ele>74.0</ele><time>2026-04-04T11:31:36.999Z</time></trkpt><trkpt lat="42.78011040624959" lon="2.704014800148035"><ele>74.0</ele><time>2026-04-04T11:32:00.999Z</time></trkpt><trkpt lat="42.78009913328942" lon="2.704104334514825"><ele>74.0</ele><time>2026-04-04T11:32:15.999Z</time></trkpt><trkpt lat="42.78012363300879" lon="2.704209727370634"><ele>74.0</ele><time>2026-04-04T11:32:32Z</time></trkpt><trkpt lat="42.7801366755799" lon="2.7042992912781445"><ele>74.0</ele><time>2026-04-04T11:32:33Z</time></trkpt><trkpt lat="42.78013374521233" lon="2.704441300042137"><ele>74.0</ele><time>2026-04-04T11:32:35Z</time></trkpt><trkpt lat="42.780087739850266" lon="2.704572439278236"><ele>74.0</ele><time>2026-04-04T11:32:37Z</time></trkpt><trkpt lat="42.78003079391827" lon="2.7046375493077317"><ele>74.0</ele><time>2026-04-04T11:32:39Z</time></trkpt><trkpt lat="42.78005341710437" lon="2.7047427167720826"><ele>74.0</ele><time>2026-04-04T11:32:42Z</time></trkpt><trkpt lat="42.780115898776884" lon="2.704713632118057"><ele>74.0</ele><time>2026-04-04T11:32:45Z</time></trkpt><trkpt lat="42.78013656106329" lon="2.704620663577967"><ele>74.0</ele><time>2026-04-04T11:32:50Z</time></trkpt><trkpt lat="42.780171099993105" lon="2.7045480490825233"><ele>74.0</ele><time>2026-04-04T11:32:51Z</time></trkpt><trkpt lat="42.78021840783335" lon="2.704470304516001"><ele>74.0</ele><time>2026-04-04T11:32:52Z</time></trkpt><trkpt lat="42.78028812092904" lon="2.7043445629876417"><ele>74.0</ele><time>2026-04-04T11:32:54Z</time></trkpt><trkpt lat="42.78033441857491" lon="2.7042791047907158"><ele>74.0</ele><time>2026-04-04T11:32:56Z</time></trkpt><trkpt lat="42.78041931788504" lon="2.704348887400716"><ele>74.0</ele><time>2026-04-04T11:33:03Z</time></trkpt><trkpt lat="42.78049107875088" lon="2.7044060132313272"><ele>74.0</ele><time>2026-04-04T11:33:05Z</time></trkpt><trkpt lat="42.780556466480505" lon="2.7044602172726235"><ele>74.0</ele><time>2026-04-04T11:33:06.999Z</time></trkpt><trkpt lat="42.78061411979606" lon="2.7044972674285397"><ele>74.0</ele><time>2026-04-04T11:33:08.999Z</time></trkpt><trkpt lat="42.78068838915905" lon="2.7045508058511976"><ele>74.0</ele><time>2026-04-04T11:33:10.999Z</time></trkpt><trkpt lat="42.780767607280815" lon="2.7046009891654577"><ele>74.0</ele><time>2026-04-04T11:33:12.999Z</time></trkpt><trkpt lat="42.78077043934476" lon="2.7046897019041403"><ele>75.4</ele><time>2026-04-04T11:33:16Z</time></trkpt><trkpt lat="42.78071663558392" lon="2.7047375299102168"><ele>76.80000000000001</ele><time>2026-04-04T11:33:19Z</time></trkpt><trkpt lat="42.780642453862654" lon="2.7047118342725764"><ele>78.19999999999999</ele><time>2026-04-04T11:33:37Z</time></trkpt><trkpt lat="42.78070200043495" lon="2.7046801884913907"><ele>79.6</ele><time>2026-04-04T11:34:32Z</time></trkpt><trkpt lat="42.78080900292343" lon="2.7046647152992715"><ele>81.0</ele><time>2026-04-04T11:34:35Z</time></trkpt><trkpt lat="42.78100281262183" lon="2.7046229006618367"><ele>81.4</ele><time>2026-04-04T11:34:38Z</time></trkpt><trkpt lat="42.781067330616956" lon="2.7046250361720694"><ele>81.8</ele><time>2026-04-04T11:34:39Z</time></trkpt><trkpt lat="42.781146557477946" lon="2.704629408015482"><ele>82.2</ele><time>2026-04-04T11:34:40Z</time></trkpt><trkpt lat="42.78126353194832" lon="2.704616886430993"><ele>82.60000000000001</ele><time>2026-04-04T11:34:42Z</time></trkpt><trkpt lat="42.78134919391657" lon="2.704610517831958"><ele>83.0</ele><time>2026-04-04T11:34:44Z</time></trkpt><trkpt lat="42.78145314761369" lon="2.704682616791448"><ele>83.0</ele><time>2026-04-04T11:34:46Z</time></trkpt><trkpt lat="42.78152322249189" lon="2.704740534419177"><ele>83.0</ele><time>2026-04-04T11:34:47Z</time></trkpt><trkpt lat="42.78159258851542" lon="2.7047854271031606"><ele>83.0</ele><time>2026-04-04T11:34:48Z</time></trkpt><trkpt lat="42.78171071521181" lon="2.704868232770457"><ele>83.0</ele><time>2026-04-04T11:34:50Z</time></trkpt><trkpt lat="42.78178150122686" lon="2.7049185089354295"><ele>83.0</ele><time>2026-04-04T11:34:51Z</time></trkpt><trkpt lat="42.78184517816236" lon="2.70496361782717"><ele>83.0</ele><time>2026-04-04T11:34:52Z</time></trkpt><trkpt lat="42.78194647261918" lon="2.7049976499962787"><ele>83.0</ele><time>2026-04-04T11:34:54Z</time></trkpt><trkpt lat="42.78201618143798" lon="2.7050271501422483"><ele>83.0</ele><time>2026-04-04T11:34:57Z</time></trkpt><trkpt lat="42.781950815520695" lon="2.7050564477472308"><ele>83.0</ele><time>2026-04-04T11:35:09Z</time></trkpt><trkpt lat="42.78184764543121" lon="2.70498215660643"><ele>83.0</ele><time>2026-04-04T11:35:11Z</time></trkpt><trkpt lat="42.78177496030166" lon="2.70485913931162"><ele>83.0</ele><time>2026-04-04T11:35:12.999Z</time></trkpt><trkpt lat="42.78174572724416" lon="2.704773819914892"><ele>83.0</ele><time>2026-04-04T11:35:13.999Z</time></trkpt><trkpt lat="42.781693601324015" lon="2.704658702425469"><ele>83.0</ele><time>2026-04-04T11:35:15.999Z</time></trkpt><trkpt lat="42.781635384309105" lon="2.7046101203637862"><ele>83.0</ele><time>2026-04-04T11:35:16.999Z</time></trkpt><trkpt lat="42.78157785767801" lon="2.704556911085315"><ele>83.0</ele><time>2026-04-04T11:35:17.999Z</time></trkpt><trkpt lat="42.78147229178142" lon="2.7044649972725208"><ele>83.0</ele><time>2026-04-04T11:35:19.999Z</time></trkpt><trkpt lat="42.781412838848034" lon="2.7044249060781675"><ele>83.0</ele><time>2026-04-04T11:35:20.999Z</time></trkpt><trkpt lat="42.78134683289926" lon="2.7043377006798752"><ele>83.0</ele><time>2026-04-04T11:35:22.999Z</time></trkpt><trkpt lat="42.78128477153434" lon="2.7042779293604706"><ele>81.5</ele><time>2026-04-04T11:35:23.999Z</time></trkpt><trkpt lat="42.781219530612425" lon="2.7042506285231607"><ele>80.0</ele><time>2026-04-04T11:35:24.999Z</time></trkpt><trkpt lat="42.78115555469421" lon="2.7042189608133604"><ele>78.5</ele><time>2026-04-04T11:35:25.999Z</time></trkpt><trkpt lat="42.781054471837535" lon="2.7041310066948308"><ele>77.0</ele><time>2026-04-04T11:35:27.999Z</time></trkpt><trkpt lat="42.78096519595382" lon="2.7040501104081995"><ele>75.5</ele><time>2026-04-04T11:35:30Z</time></trkpt><trkpt lat="42.78089975866904" lon="2.7040196036983404"><ele>74.0</ele><time>2026-04-04T11:35:31Z</time></trkpt><trkpt lat="42.78080762984011" lon="2.704003313007563"><ele>74.0</ele><time>2026-04-04T11:35:32Z</time></trkpt><trkpt lat="42.780707144993684" lon="2.7040063473713687"><ele>74.0</ele><time>2026-04-04T11:35:33Z</time></trkpt><trkpt lat="42.7806201005004" lon="2.704004281845442"><ele>74.0</ele><time>2026-04-04T11:35:34Z</time></trkpt><trkpt lat="42.780551633084094" lon="2.704025222988771"><ele>74.0</ele><time>2026-04-04T11:35:35Z</time></trkpt><trkpt lat="42.78046809683427" lon="2.704122972732298"><ele>74.0</ele><time>2026-04-04T11:35:37Z</time></trkpt><trkpt lat="42.7803921256371" lon="2.7042134811389693"><ele>74.0</ele><time>2026-04-04T11:35:38Z</time></trkpt><trkpt lat="42.78032848088594" lon="2.704299868559869"><ele>74.0</ele><time>2026-04-04T11:35:39Z</time></trkpt><trkpt lat="42.78027956816396" lon="2.704374879693311"><ele>74.0</ele><time>2026-04-04T11:35:40Z</time></trkpt><trkpt lat="42.78021653384556" lon="2.704457197902842"><ele>74.0</ele><time>2026-04-04T11:35:42Z</time></trkpt><trkpt lat="42.780176638361226" lon="2.704548366364498"><ele>74.0</ele><time>2026-04-04T11:35:43Z</time></trkpt><trkpt lat="42.780149369567376" lon="2.704625724359773"><ele>74.0</ele><time>2026-04-04T11:35:44Z</time></trkpt><trkpt lat="42.78010472230348" lon="2.704722409756174"><ele>74.0</ele><time>2026-04-04T11:35:46Z</time></trkpt><trkpt lat="42.78004239872446" lon="2.704755330778781"><ele>74.0</ele><time>2026-04-04T11:35:49Z</time></trkpt><trkpt lat="42.78000986187372" lon="2.7046557872625425"><ele>74.0</ele><time>2026-04-04T11:35:51Z</time></trkpt><trkpt lat="42.78008900246014" lon="2.7045575422602477"><ele>74.0</ele><time>2026-04-04T11:35:53Z</time></trkpt><trkpt lat="42.78012888149136" lon="2.704473535449272"><ele>74.0</ele><time>2026-04-04T11:35:55Z</time></trkpt><trkpt lat="42.78013585056419" lon="2.7043755534868046"><ele>74.0</ele><time>2026-04-04T11:35:57Z</time></trkpt><trkpt lat="42.78010933386966" lon="2.7042862007942037"><ele>74.0</ele><time>2026-04-04T11:36:00Z</time></trkpt><trkpt lat="42.78011942661098" lon="2.704187101039249"><ele>74.0</ele><time>2026-04-04T11:36:02Z</time></trkpt><trkpt lat="42.780187967154475" lon="2.7040685885739055"><ele>74.0</ele><time>2026-04-04T11:36:04Z</time></trkpt><trkpt lat="42.78024519397624" lon="2.703967956271423"><ele>74.0</ele><time>2026-04-04T11:36:06Z</time></trkpt><trkpt lat="42.780319066658514" lon="2.7038804042794946"><ele>74.0</ele><time>2026-04-04T11:36:08Z</time></trkpt><trkpt lat="42.78038528272972" lon="2.7037973722946975"><ele>74.0</ele><time>2026-04-04T11:36:10Z</time></trkpt><trkpt lat="42.780466115501696" lon="2.7037491585444187"><ele>74.0</ele><time>2026-04-04T11:36:14Z</time></trkpt><trkpt lat="42.780570766779455" lon="2.703746651153384"><ele>74.0</ele><time>2026-04-04T11:36:16Z</time></trkpt><trkpt lat="42.78064084518794" lon="2.7036917417655126"><ele>74.0</ele><time>2026-04-04T11:36:18Z</time></trkpt><trkpt lat="42.78069538278153" lon="2.7036445463089347"><ele>74.0</ele><time>2026-04-04T11:36:20Z</time></trkpt><trkpt lat="42.780642671315626" lon="2.7035648760658666"><ele>74.0</ele><time>2026-04-04T11:36:29Z</time></trkpt><trkpt lat="42.780578950743084" lon="2.7036115463601034"><ele>74.0</ele><time>2026-04-04T11:38:07Z</time></trkpt><trkpt lat="42.78049968763113" lon="2.7036226296033554"><ele>74.0</ele><time>2026-04-04T11:38:10Z</time></trkpt><trkpt lat="42.780444113700156" lon="2.703685528843407"><ele>74.0</ele><time>2026-04-04T11:38:13Z</time></trkpt><trkpt lat="42.78038767839033" lon="2.7037535726664492"><ele>74.0</ele><time>2026-04-04T11:38:17Z</time></trkpt><trkpt lat="42.780345311252646" lon="2.7038439210098932"><ele>74.0</ele><time>2026-04-04T11:38:19Z</time></trkpt><trkpt lat="42.78025098804168" lon="2.7039672360828257"><ele>74.0</ele><time>2026-04-04T11:38:21Z</time></trkpt><trkpt lat="42.78019844015784" lon="2.7040324001140514"><ele>74.0</ele><time>2026-04-04T11:38:22Z</time></trkpt><trkpt lat="42.78013492545147" lon="2.7041711992752284"><ele>74.0</ele><time>2026-04-04T11:38:24Z</time></trkpt><trkpt lat="42.780116424264705" lon="2.7042955433670177"><ele>74.0</ele><time>2026-04-04T11:38:26Z</time></trkpt><trkpt lat="42.78013890685067" lon="2.7043902001777633"><ele>74.0</ele><time>2026-04-04T11:38:27Z</time></trkpt><trkpt lat="42.78010556993837" lon="2.7045527622243695"><ele>74.0</ele><time>2026-04-04T11:38:29Z</time></trkpt><trkpt lat="42.78006294571493" lon="2.704625121821395"><ele>74.0</ele><time>2026-04-04T11:38:30Z</time></trkpt><trkpt lat="42.78001228693914" lon="2.7047155863537338"><ele>74.0</ele><time>2026-04-04T11:38:32Z</time></trkpt><trkpt lat="42.78009540230121" lon="2.7047727271738276"><ele>74.0</ele><time>2026-04-04T11:38:35Z</time></trkpt><trkpt lat="42.780144639111654" lon="2.7048510491177615"><ele>74.0</ele><time>2026-04-04T11:38:40Z</time></trkpt><trkpt lat="42.78020699880553" lon="2.704931564148286"><ele>74.0</ele><time>2026-04-04T11:38:42Z</time></trkpt><trkpt lat="42.78016980513196" lon="2.7050058688721874"><ele>74.0</ele><time>2026-04-04T11:38:43Z</time></trkpt><trkpt lat="42.780113763422825" lon="2.7050606317384216"><ele>74.0</ele><time>2026-04-04T11:38:44Z</time></trkpt><trkpt lat="42.780049600696636" lon="2.7051251436882535"><ele>74.0</ele><time>2026-04-04T11:38:45Z</time></trkpt><trkpt lat="42.780001153071304" lon="2.705218308605436"><ele>74.0</ele><time>2026-04-04T11:38:46Z</time></trkpt><trkpt lat="42.77993882968116" lon="2.7053431714183813"><ele>74.0</ele><time>2026-04-04T11:38:47Z</time></trkpt><trkpt lat="42.77987138480763" lon="2.705483357231967"><ele>74.0</ele><time>2026-04-04T11:38:48Z</time></trkpt><trkpt lat="42.77979369604783" lon="2.7056518790648316"><ele>76.75</ele><time>2026-04-04T11:38:49Z</time></trkpt><trkpt lat="42.779727132295754" lon="2.705812423006285"><ele>79.5</ele><time>2026-04-04T11:38:50Z</time></trkpt><trkpt lat="42.779669320823196" lon="2.7059488815841775"><ele>82.25</ele><time>2026-04-04T11:38:51Z</time></trkpt><trkpt lat="42.77961267064586" lon="2.706066113455317"><ele>85.0</ele><time>2026-04-04T11:38:52Z</time></trkpt><trkpt lat="42.77954670585861" lon="2.7061642965019814"><ele>82.75</ele><time>2026-04-04T11:38:53Z</time></trkpt><trkpt lat="42.77946647490029" lon="2.706267520433841"><ele>80.5</ele><time>2026-04-04T11:38:54Z</time></trkpt><trkpt lat="42.77939464233381" lon="2.7063913129095463"><ele>78.25</ele><time>2026-04-04T11:38:55Z</time></trkpt><trkpt lat="42.77933992763842" lon="2.706523100880502"><ele>76.0</ele><time>2026-04-04T11:38:56Z</time></trkpt><trkpt lat="42.77930810726263" lon="2.706670924873025"><ele>76.0</ele><time>2026-04-04T11:38:57Z</time></trkpt><trkpt lat="42.77928249951234" lon="2.706837605656214"><ele>76.0</ele><time>2026-04-04T11:38:58Z</time></trkpt><trkpt lat="42.779256581848756" lon="2.7069995272088074"><ele>76.0</ele><time>2026-04-04T11:38:59Z</time></trkpt><trkpt lat="42.779230854964275" lon="2.707141198812266"><ele>76.0</ele><time>2026-04-04T11:39:00Z</time></trkpt><trkpt lat="42.779207926645775" lon="2.7072702658654326"><ele>75.83333333333333</ele><time>2026-04-04T11:39:01Z</time></trkpt><trkpt lat="42.779184320746346" lon="2.7073669466922654"><ele>75.66666666666666</ele><time>2026-04-04T11:39:02Z</time></trkpt><trkpt lat="42.77916954460665" lon="2.7074637822902745"><ele>75.5</ele><time>2026-04-04T11:39:03Z</time></trkpt><trkpt lat="42.779176296953466" lon="2.707576085642558"><ele>75.33333333333333</ele><time>2026-04-04T11:39:04Z</time></trkpt><trkpt lat="42.779203504988516" lon="2.7076935629212477"><ele>75.16666666666667</ele><time>2026-04-04T11:39:05Z</time></trkpt><trkpt lat="42.779226510005735" lon="2.707802093522893"><ele>75.0</ele><time>2026-04-04T11:39:06Z</time></trkpt><trkpt lat="42.7792452235686" lon="2.7079612924591707"><ele>74.6</ele><time>2026-04-04T11:39:07Z</time></trkpt><trkpt lat="42.779256549277456" lon="2.7081330179585876"><ele>74.2</ele><time>2026-04-04T11:39:08Z</time></trkpt><trkpt lat="42.77929198254575" lon="2.708243208549614"><ele>73.8</ele><time>2026-04-04T11:39:09Z</time></trkpt><trkpt lat="42.779315437524055" lon="2.7083610218885212"><ele>73.4</ele><time>2026-04-04T11:39:10Z</time></trkpt><trkpt lat="42.77934165561249" lon="2.7084706959525375"><ele>73.0</ele><time>2026-04-04T11:39:11Z</time></trkpt><trkpt lat="42.779391817496126" lon="2.7086018731788655"><ele>76.8</ele><time>2026-04-04T11:39:12Z</time></trkpt><trkpt lat="42.77945128511971" lon="2.7087470657074832"><ele>80.6</ele><time>2026-04-04T11:39:13Z</time></trkpt><trkpt lat="42.77949936715644" lon="2.7088660904807713"><ele>84.39999999999999</ele><time>2026-04-04T11:39:14Z</time></trkpt><trkpt lat="42.77954260796759" lon="2.708983946677082"><ele>88.19999999999999</ele><time>2026-04-04T11:39:15Z</time></trkpt><trkpt lat="42.779578372228265" lon="2.7090843883033395"><ele>92.0</ele><time>2026-04-04T11:39:16Z</time></trkpt><trkpt lat="42.77960231487392" lon="2.7091771857361566"><ele>92.0</ele><time>2026-04-04T11:39:17Z</time></trkpt><trkpt lat="42.77962264340283" lon="2.7092674904511833"><ele>92.0</ele><time>2026-04-04T11:39:18Z</time></trkpt><trkpt lat="42.77962257272427" lon="2.7093667982505156"><ele>92.0</ele><time>2026-04-04T11:39:19Z</time></trkpt><trkpt lat="42.77962273496704" lon="2.7095039445227433"><ele>92.0</ele><time>2026-04-04T11:39:20Z</time></trkpt><trkpt lat="42.7796415508336" lon="2.7096499759222166"><ele>92.0</ele><time>2026-04-04T11:39:21Z</time></trkpt><trkpt lat="42.779669713092105" lon="2.7098329846607463"><ele>91.75</ele><time>2026-04-04T11:39:22Z</time></trkpt><trkpt lat="42.77968300862127" lon="2.710020185396349"><ele>91.5</ele><time>2026-04-04T11:39:23Z</time></trkpt><trkpt lat="42.77969038381494" lon="2.7102028819248707"><ele>91.25</ele><time>2026-04-04T11:39:24Z</time></trkpt><trkpt lat="42.779714330178706" lon="2.7103854920260595"><ele>91.0</ele><time>2026-04-04T11:39:25Z</time></trkpt><trkpt lat="42.77973416948433" lon="2.7105444496492437"><ele>91.0</ele><time>2026-04-04T11:39:26Z</time></trkpt><trkpt lat="42.779759862670055" lon="2.7106654400565087"><ele>91.0</ele><time>2026-04-04T11:39:27Z</time></trkpt><trkpt lat="42.77978116276935" lon="2.7107658880425856"><ele>91.0</ele><time>2026-04-04T11:39:28Z</time></trkpt><trkpt lat="42.77979665156943" lon="2.710881510551669"><ele>91.0</ele><time>2026-04-04T11:39:29Z</time></trkpt><trkpt lat="42.77979353108872" lon="2.7110011909710234"><ele>91.0</ele><time>2026-04-04T11:39:30Z</time></trkpt><trkpt lat="42.77978815152011" lon="2.71113061109593"><ele>91.0</ele><time>2026-04-04T11:39:31Z</time></trkpt><trkpt lat="42.77979980720136" lon="2.711224347546076"><ele>87.0</ele><time>2026-04-04T11:39:32Z</time></trkpt><trkpt lat="42.77981424274629" lon="2.711367926731008"><ele>87.0</ele><time>2026-04-04T11:39:34Z</time></trkpt><trkpt lat="42.77982362168873" lon="2.711477447364982"><ele>87.0</ele><time>2026-04-04T11:39:37Z</time></trkpt></trkseg></trk></gpx>